[[{"header":{"parameterUnit":"m.s-1","parameterCategory":1,"la1":31.0,"la2":29.5877,"lo1":-88.7671,"lo2":-86.6584,"dy":0.0162,"dx":0.0185,"nx":115,"ny":88,"refTime":"2024-09-27T12:00:00:Z","depth":0,"parameterNumber":2,"parameterNumberName":"U-component_of_WINDS"},"data":[0.0,0.0,0.0,0.0,0.0,0.0,0.0,0.0,0.0,0.0,0.0,0.0,0.0,0.0,0.0,0.0,0.0,0.0,0.0,0.0,0.0,0.0,0.0,0.0,0.0,0.0,0.0,0.0,0.0,0.0,0.0,0.0,0.0,0.0,0.0,0.0,0.0,0.0,0.0,0.0,0.0,0.0,0.0,0.0,0.0,0.0,0.0,0.0,0.0,0.0,0.0,0.0,0.0,0.0,0.0,0.0,0.0,0.0,0.0,0.0,0.0,0.0,0.0,0.0,0.0,0.0,0.0,0.0,0.0,0.0,0.0,0.0,0.0,0.0,0.0,0.0,0.0,0.0,0.0,0.0,0.0,0.0,0.0,0.0,0.0,0.0,0.0,0.0,0.0,0.0,0.0,0.0,0.0,0.0,0.0,0.0,0.0,0.0,0.0,0.0,0.0,0.0,0.0,0.0,0.0,0.0,0.0,0.0,0.0,0.0,0.0,0.0,0.0,0.0,0.0,0.0,0.0,0.0,0.0,0.0,0.0,0.0,0.0,0.0,0.0,0.0,0.0,0.0,0.0,0.0,0.0,0.0,0.0,0.0,0.0,0.0,0.0,0.0,0.0,0.0,0.0,0.0,0.0,0.0,0.0,0.0,0.0,0.0,0.0,0.0,0.0,0.0,0.0,0.0,0.0,0.0,0.0,0.0,0.0,0.0,0.0,0.0,0.0,0.0,0.0,0.0,0.0,0.0,0.0,0.0,0.0,0.0,0.0,0.0,0.0,0.0,0.0,0.0,0.0,0.0,0.0,0.0,0.0,0.0,0.0,0.0,0.0,0.0,0.0,0.0,0.0,0.0,0.0,0.0,0.0,0.0,0.0,0.0,0.0,0.0,0.0,0.0,0.0,0.0,0.0,0.0,0.0,0.0,0.0,0.0,0.0,0.0,0.0,0.0,0.0,0.0,0.0,0.0,0.0,0.0,0.0,0.0,0.0,0.0,0.0,0.0,0.0,0.0,0.0,0.0,0.0,0.0,0.0,0.0,0.0,0.0,0.0,0.0,0.0,0.0,0.0,0.0,0.0,0.0,0.0,0.0,0.0,0.0,0.0,0.0,0.0,0.0,0.0,0.0,0.0,0.0,0.0,0.0,0.0,0.0,0.0,0.0,0.0,0.0,0.0,0.0,0.0,0.0,0.0,0.0,0.0,0.0,0.0,0.0,0.0,0.0,0.0,0.0,0.0,0.0,0.0,0.0,0.0,0.0,0.0,0.0,0.0,0.0,0.0,0.0,0.0,0.0,0.0,0.0,0.0,0.0,0.0,0.0,0.0,0.0,0.0,0.0,0.0,0.0,0.0,0.0,0.0,0.0,0.0,0.0,0.0,0.0,0.0,0.0,0.0,0.0,0.0,0.0,0.0,0.0,0.0,0.0,0.0,0.0,0.0,0.0,0.0,0.0,0.0,0.0,0.0,0.0,0.0,0.0,0.0,0.0,0.0,0.0,0.0,0.0,0.0,0.0,0.0,0.0,0.0,0.0,0.0,0.0,0.0,0.0,0.0,0.0,0.0,0.0,0.0,0.0,0.0,0.0,0.0,0.0,0.0,0.0,0.0,0.0,0.0,0.0,0.0,0.0,0.0,0.0,0.0,0.0,0.0,0.0,0.0,0.0,0.0,0.0,0.0,0.0,0.0,0.0,0.0,0.0,0.0,0.0,0.0,0.0,0.0,0.0,0.0,0.0,0.0,0.0,0.0,0.0,0.0,0.0,0.0,0.0,0.0,0.0,0.0,0.0,0.0,0.0,0.0,0.0,0.0,0.0,0.0,0.0,0.0,0.0,0.0,0.0,0.0,0.0,0.0,0.0,0.0,0.0,0.0,0.0,0.0,0.0,0.0,0.0,0.0,0.0,0.0,0.0,0.0,0.0,0.0,0.0,0.0,0.0,0.0,0.0,0.0,0.0,0.0,0.0,0.0,0.0,0.0,0.0,0.0,0.0,0.0,0.0,0.0,0.0,0.0,0.0,0.0,0.0,0.0,0.0,0.0,0.0,0.0,0.0,0.0,0.0,0.0,0.0,0.0,0.0,0.0,0.0,0.0,0.0,0.0,0.0,0.0,0.0,0.0,0.0,0.0,0.0,0.0,0.0,0.0,0.0,0.0,0.0,0.0,0.0,0.0,0.0,0.0,0.0,0.0,0.0,0.0,0.0,0.0,0.0,0.0,0.0,0.0,0.0,0.0,0.0,0.0,0.0,0.0,0.0,0.0,0.0,0.0,0.0,0.0,0.0,0.0,0.0,0.0,0.0,0.0,0.0,0.0,0.0,0.0,0.0,0.0,0.0,0.0,0.0,0.0,0.0,0.0,0.0,0.0,0.0,0.0,0.0,0.0,0.0,0.0,0.0,0.0,0.0,0.0,0.0,0.0,0.0,0.0,0.0,0.0,0.0,0.0,0.0,0.0,0.0,0.0,0.0,0.0,0.0,0.0,0.0,0.0,0.0,0.0,0.0,0.0,0.0,0.0,0.0,0.0,0.0,0.0,0.0,0.0,0.0,0.0,0.0,0.0,0.0,0.0,0.0,0.0,0.0,0.0,0.0,0.0,0.0,0.0,0.0,0.0,0.0,0.0,0.0,0.0,0.0,0.0,0.0,0.0,0.0,0.0,0.0,0.0,0.0,0.0,0.0,0.0,0.0,0.0,0.0,0.0,0.0,0.0,0.0,0.0,0.0,0.0,0.0,0.0,0.0,0.0,0.0,0.0,0.0,0.0,0.0,0.0,0.0,0.0,0.0,0.0,0.0,0.0,0.0,0.0,0.0,0.0,0.0,0.0,0.0,0.0,0.0,0.0,0.0,0.0,0.0,0.0,0.0,0.0,0.0,0.0,0.0,0.0,0.0,0.0,0.0,0.0,0.0,0.0,0.0,0.0,0.0,0.0,0.0,0.0,0.0,0.0,0.0,0.0,0.0,0.0,0.0,0.0,0.0,0.0,0.0,0.0,0.0,0.0,0.0,0.0,0.0,0.0,0.0,0.0,0.0,0.0,0.0,0.0,0.0,0.0,0.0,0.0,0.0,0.0,0.0,0.0,0.0,0.0,0.0,0.0,0.0,0.0,0.0,0.0,0.0,0.0,0.0,0.0,0.0,0.0,0.0,0.0,0.0,0.0,0.0,0.0,0.0,0.0,0.0,0.0,0.0,0.0,0.0,0.0,0.0,0.0,0.0,0.0,0.0,0.0,0.0,0.0,0.0,0.0,0.0,0.0,0.0,0.0,0.0,0.0,0.0,0.0,0.0,0.0,0.0,0.0,0.0,0.0,0.0,0.0,0.0,0.0,0.0,0.0,0.0,0.0,0.0,0.0,0.0,0.0,0.0,0.0,0.0,0.0,0.0,0.0,0.0,0.0,0.0,0.0,0.0,0.0,0.0,0.0,0.0,0.0,0.0,0.0,0.0,0.0,0.0,0.0,0.0,0.0,0.0,0.0,0.0,0.0,0.0,0.0,0.0,0.0,0.0,0.0,0.0,0.0,0.0,0.0,0.0,0.0,0.0,0.0,0.0,0.0,0.0,0.0,0.0,0.0,0.0,0.0,0.0,0.0,0.0,0.0,0.0,0.0,0.0,0.0,0.0,0.0,0.0,0.0,0.0,0.0,0.0,0.0,0.0,0.0,0.0,0.0,0.0,0.0,0.0,0.0,0.0,0.0,0.0,0.0,0.0,0.0,0.0,0.0,0.0,0.0,0.0,0.0,0.0,0.0,0.0,0.0,0.0,0.0,0.0,0.0,0.0,0.0,0.0,0.0,0.0,0.0,0.0,0.0,0.0,0.0,0.0,0.0,0.0,0.0,0.0,0.0,0.0,0.0,0.0,0.0,0.0,0.0,0.0,0.0,0.0,0.0,0.0,0.0,0.0,0.0,0.0,0.0,0.0,0.0,0.0,0.0,0.0,0.0,0.0,0.0,0.0,0.0,0.0,0.0,0.0,0.0,0.0,0.0,0.0,0.0,0.0,0.0,0.0,0.0,0.0,0.0,0.0,0.0,0.0,0.0,0.0,0.0,0.0,0.0,0.0,0.0,0.0,0.0,0.0,0.0,0.0,0.0,0.0,0.0,0.0,0.0,0.0,0.0,0.0,0.0,0.0,0.0,0.0,0.0,0.0,0.0,0.0,0.0,0.0,0.0,0.0,0.0,0.0,0.0,0.0,0.0,0.0,0.0,0.0,0.0,0.0,0.0,0.0,0.0,0.0,0.0,0.0,0.0,0.0,0.0,0.0,-3.9218,0.0,0.0,0.0,0.0,0.0,0.0,0.0,0.0,0.0,0.0,0.0,0.0,0.0,0.0,0.0,0.0,0.0,0.0,0.0,0.0,0.0,0.0,0.0,0.0,0.0,0.0,0.0,0.0,0.0,0.0,0.0,0.0,0.0,0.0,0.0,0.0,0.0,0.0,0.0,0.0,0.0,0.0,0.0,0.0,0.0,0.0,0.0,0.0,0.0,0.0,0.0,0.0,0.0,0.0,0.0,0.0,0.0,0.0,0.0,0.0,0.0,0.0,0.0,0.0,0.0,0.0,0.0,0.0,0.0,0.0,0.0,0.0,0.0,0.0,0.0,0.0,0.0,0.0,0.0,0.0,0.0,0.0,0.0,0.0,0.0,0.0,0.0,0.0,0.0,0.0,0.0,0.0,0.0,0.0,0.0,0.0,0.0,0.0,0.0,0.0,0.0,0.0,0.0,0.0,0.0,0.0,0.0,0.0,0.0,0.0,-4.0118,-4.0809,-4.0949,-4.0648,-3.9712,0.0,0.0,0.0,0.0,0.0,0.0,0.0,0.0,0.0,0.0,0.0,0.0,0.0,0.0,0.0,0.0,0.0,0.0,0.0,0.0,0.0,0.0,0.0,0.0,0.0,0.0,0.0,0.0,0.0,0.0,0.0,0.0,0.0,0.0,0.0,0.0,0.0,0.0,0.0,0.0,0.0,0.0,0.0,0.0,0.0,0.0,0.0,0.0,0.0,0.0,0.0,0.0,0.0,0.0,0.0,0.0,0.0,0.0,0.0,0.0,0.0,0.0,0.0,0.0,0.0,0.0,0.0,0.0,0.0,0.0,0.0,0.0,0.0,0.0,0.0,0.0,0.0,0.0,0.0,0.0,0.0,0.0,0.0,0.0,0.0,0.0,0.0,0.0,0.0,0.0,0.0,0.0,0.0,0.0,0.0,0.0,0.0,0.0,0.0,0.0,0.0,0.0,0.0,0.0,0.0,0.0,0.0,0.0,0.0,0.0,0.0,0.0,-4.2415,-4.1831,-4.035,0.0,0.0,0.0,0.0,0.0,0.0,0.0,0.0,0.0,0.0,0.0,0.0,0.0,0.0,0.0,0.0,0.0,0.0,0.0,0.0,0.0,0.0,0.0,0.0,0.0,0.0,0.0,0.0,0.0,0.0,0.0,0.0,0.0,0.0,0.0,0.0,0.0,0.0,0.0,0.0,0.0,0.0,0.0,0.0,0.0,0.0,0.0,0.0,0.0,0.0,0.0,0.0,0.0,0.0,0.0,0.0,0.0,0.0,0.0,0.0,0.0,0.0,0.0,0.0,0.0,0.0,0.0,0.0,0.0,0.0,0.0,0.0,0.0,0.0,0.0,0.0,0.0,0.0,0.0,0.0,0.0,0.0,0.0,0.0,0.0,0.0,0.0,0.0,0.0,0.0,0.0,0.0,0.0,0.0,0.0,0.0,0.0,0.0,0.0,0.0,0.0,0.0,0.0,0.0,0.0,0.0,0.0,0.0,0.0,0.0,-4.1889,-4.3747,-4.3805,0.0,-4.1105,0.0,0.0,0.0,0.0,0.0,0.0,0.0,0.0,0.0,0.0,0.0,0.0,0.0,0.0,0.0,0.0,0.0,0.0,0.0,0.0,0.0,0.0,0.0,0.0,0.0,0.0,0.0,0.0,0.0,0.0,0.0,0.0,0.0,0.0,0.0,0.0,0.0,0.0,0.0,0.0,0.0,0.0,0.0,0.0,0.0,0.0,0.0,0.0,0.0,0.0,0.0,0.0,0.0,0.0,0.0,0.0,0.0,0.0,0.0,0.0,0.0,0.0,0.0,0.0,0.0,0.0,0.0,0.0,0.0,0.0,0.0,0.0,0.0,0.0,0.0,0.0,0.0,0.0,0.0,0.0,0.0,0.0,0.0,0.0,0.0,0.0,0.0,0.0,0.0,0.0,0.0,0.0,0.0,0.0,0.0,0.0,0.0,0.0,0.0,0.0,0.0,0.0,0.0,0.0,0.0,0.0,0.0,0.0,0.0,0.0,-4.2291,-4.4734,-4.4147,-4.2923,0.0,0.0,0.0,0.0,0.0,0.0,0.0,0.0,0.0,0.0,0.0,0.0,0.0,0.0,0.0,0.0,0.0,0.0,0.0,0.0,0.0,0.0,0.0,0.0,0.0,0.0,0.0,0.0,0.0,0.0,0.0,0.0,0.0,0.0,0.0,0.0,0.0,0.0,0.0,0.0,0.0,0.0,0.0,0.0,0.0,0.0,0.0,0.0,0.0,0.0,0.0,0.0,0.0,0.0,0.0,0.0,0.0,0.0,0.0,0.0,0.0,0.0,0.0,0.0,0.0,0.0,0.0,0.0,0.0,0.0,0.0,0.0,0.0,0.0,0.0,0.0,0.0,0.0,0.0,0.0,0.0,0.0,0.0,0.0,0.0,0.0,0.0,0.0,0.0,0.0,0.0,0.0,0.0,0.0,0.0,0.0,0.0,0.0,0.0,0.0,0.0,0.0,0.0,0.0,0.0,0.0,0.0,0.0,0.0,0.0,-4.1295,-4.2931,-4.5375,-4.4266,-4.2615,-4.0958,0.0,0.0,0.0,0.0,0.0,0.0,0.0,0.0,0.0,0.0,0.0,0.0,0.0,0.0,0.0,0.0,0.0,0.0,0.0,0.0,0.0,0.0,0.0,0.0,0.0,0.0,0.0,0.0,0.0,0.0,0.0,0.0,0.0,0.0,0.0,0.0,0.0,0.0,0.0,0.0,0.0,0.0,0.0,0.0,0.0,0.0,0.0,0.0,0.0,0.0,0.0,0.0,0.0,0.0,0.0,0.0,0.0,0.0,0.0,0.0,0.0,0.0,0.0,0.0,0.0,0.0,0.0,0.0,0.0,0.0,0.0,0.0,0.0,0.0,0.0,0.0,0.0,0.0,0.0,0.0,0.0,0.0,0.0,0.0,0.0,0.0,0.0,0.0,0.0,0.0,0.0,0.0,0.0,0.0,0.0,0.0,0.0,0.0,0.0,0.0,0.0,0.0,0.0,0.0,0.0,0.0,0.0,0.0,0.0,-4.3371,-4.4124,-4.6408,-4.4138,-4.2044,0.0,0.0,0.0,0.0,0.0,0.0,0.0,0.0,0.0,0.0,0.0,0.0,0.0,0.0,0.0,0.0,0.0,0.0,0.0,0.0,0.0,0.0,0.0,0.0,0.0,0.0,0.0,0.0,0.0,0.0,0.0,0.0,0.0,0.0,0.0,0.0,0.0,0.0,0.0,0.0,0.0,0.0,0.0,0.0,0.0,0.0,0.0,0.0,0.0,0.0,0.0,0.0,0.0,0.0,0.0,0.0,0.0,0.0,0.0,0.0,0.0,0.0,0.0,0.0,0.0,0.0,0.0,0.0,0.0,0.0,0.0,0.0,0.0,0.0,0.0,0.0,0.0,0.0,0.0,0.0,0.0,0.0,0.0,0.0,0.0,0.0,0.0,0.0,0.0,0.0,0.0,0.0,0.0,0.0,0.0,0.0,0.0,0.0,0.0,0.0,0.0,0.0,0.0,0.0,0.0,0.0,0.0,0.0,0.0,-3.9197,-4.1306,-4.3392,-4.5316,-4.3153,-4.1546,0.0,0.0,0.0,0.0,0.0,0.0,0.0,0.0,0.0,0.0,0.0,0.0,0.0,0.0,0.0,0.0,0.0,0.0,0.0,0.0,0.0,0.0,0.0,0.0,0.0,0.0,0.0,0.0,0.0,0.0,0.0,0.0,0.0,0.0,0.0,0.0,0.0,0.0,0.0,0.0,0.0,0.0,0.0,0.0,0.0,0.0,0.0,0.0,0.0,0.0,0.0,0.0,0.0,0.0,0.0,0.0,0.0,0.0,0.0,0.0,0.0,0.0,0.0,0.0,0.0,0.0,0.0,0.0,0.0,0.0,0.0,0.0,0.0,0.0,0.0,0.0,0.0,0.0,0.0,0.0,0.0,0.0,0.0,0.0,0.0,0.0,0.0,0.0,0.0,0.0,0.0,0.0,0.0,0.0,0.0,0.0,0.0,0.0,0.0,0.0,0.0,0.0,0.0,0.0,0.0,0.0,0.0,0.0,0.0,-3.8559,0.0,-4.4166,0.0,-4.2684,-4.0978,0.0,0.0,0.0,0.0,0.0,0.0,0.0,0.0,0.0,0.0,0.0,0.0,0.0,0.0,0.0,0.0,0.0,0.0,0.0,0.0,0.0,0.0,0.0,0.0,0.0,0.0,0.0,0.0,0.0,0.0,0.0,0.0,0.0,0.0,0.0,0.0,0.0,0.0,0.0,0.0,0.0,0.0,0.0,0.0,0.0,0.0,0.0,0.0,0.0,0.0,0.0,0.0,0.0,0.0,0.0,0.0,0.0,0.0,0.0,0.0,0.0,0.0,0.0,0.0,0.0,0.0,0.0,0.0,0.0,0.0,0.0,0.0,0.0,0.0,0.0,0.0,0.0,0.0,0.0,0.0,0.0,0.0,0.0,0.0,0.0,0.0,0.0,0.0,0.0,0.0,0.0,0.0,0.0,0.0,0.0,0.0,0.0,0.0,0.0,0.0,0.0,0.0,0.0,0.0,0.0,0.0,0.0,0.0,-3.7464,-4.2835,-4.5656,-4.6374,-4.5092,-4.2965,-4.0367,0.0,0.0,0.0,0.0,0.0,0.0,0.0,0.0,0.0,0.0,0.0,0.0,0.0,0.0,0.0,0.0,0.0,0.0,0.0,0.0,0.0,0.0,0.0,0.0,0.0,0.0,0.0,0.0,0.0,0.0,0.0,0.0,0.0,0.0,0.0,0.0,0.0,0.0,0.0,0.0,0.0,0.0,0.0,0.0,0.0,0.0,0.0,0.0,0.0,0.0,0.0,0.0,0.0,0.0,0.0,0.0,0.0,0.0,0.0,0.0,0.0,0.0,0.0,0.0,0.0,0.0,0.0,0.0,0.0,0.0,0.0,0.0,0.0,0.0,0.0,0.0,0.0,0.0,0.0,0.0,0.0,0.0,0.0,0.0,0.0,0.0,0.0,0.0,0.0,0.0,0.0,0.0,0.0,0.0,0.0,0.0,0.0,0.0,0.0,0.0,0.0,0.0,0.0,0.0,0.0,0.0,0.0,0.0,0.0,-4.0095,-4.1878,-4.3717,-4.5417,-4.1621,-3.9539,0.0,0.0,0.0,0.0,0.0,0.0,0.0,0.0,0.0,0.0,0.0,0.0,0.0,0.0,0.0,0.0,0.0,0.0,0.0,0.0,0.0,0.0,0.0,0.0,0.0,0.0,0.0,0.0,0.0,0.0,0.0,0.0,0.0,0.0,0.0,0.0,0.0,0.0,0.0,0.0,0.0,0.0,0.0,0.0,0.0,0.0,0.0,0.0,0.0,0.0,0.0,0.0,0.0,0.0,0.0,0.0,0.0,0.0,0.0,0.0,0.0,0.0,0.0,0.0,0.0,0.0,0.0,0.0,0.0,0.0,0.0,0.0,0.0,0.0,0.0,0.0,0.0,0.0,0.0,0.0,0.0,0.0,0.0,0.0,0.0,0.0,0.0,0.0,0.0,0.0,0.0,0.0,0.0,0.0,0.0,0.0,0.0,0.0,0.0,0.0,0.0,0.0,0.0,0.0,0.0,0.0,0.0,0.0,0.0,-4.0667,-4.2334,-4.3992,-4.5683,-4.2157,-4.0286,-4.0107,0.0,0.0,0.0,0.0,0.0,0.0,0.0,0.0,0.0,0.0,0.0,0.0,0.0,0.0,0.0,0.0,0.0,0.0,0.0,0.0,0.0,0.0,0.0,0.0,0.0,0.0,0.0,0.0,0.0,0.0,0.0,0.0,0.0,0.0,0.0,0.0,0.0,0.0,0.0,0.0,0.0,0.0,0.0,0.0,0.0,0.0,0.0,0.0,0.0,0.0,0.0,0.0,0.0,0.0,0.0,0.0,0.0,0.0,0.0,0.0,0.0,0.0,0.0,0.0,0.0,0.0,0.0,0.0,0.0,0.0,0.0,0.0,0.0,0.0,0.0,0.0,0.0,0.0,0.0,0.0,0.0,0.0,0.0,0.0,0.0,0.0,0.0,0.0,0.0,0.0,0.0,0.0,0.0,0.0,0.0,0.0,0.0,0.0,0.0,0.0,0.0,0.0,0.0,0.0,0.0,0.0,0.0,0.0,-4.3765,-4.6075,-4.6778,-4.5824,-4.4244,-4.2157,0.0,0.0,0.0,0.0,0.0,0.0,0.0,0.0,0.0,0.0,0.0,0.0,0.0,0.0,0.0,0.0,0.0,0.0,0.0,0.0,0.0,0.0,0.0,0.0,0.0,0.0,0.0,0.0,0.0,0.0,0.0,0.0,0.0,0.0,0.0,0.0,0.0,0.0,0.0,0.0,0.0,0.0,0.0,0.0,0.0,0.0,0.0,0.0,0.0,0.0,0.0,0.0,0.0,0.0,0.0,0.0,0.0,0.0,0.0,0.0,0.0,0.0,0.0,0.0,0.0,0.0,0.0,0.0,0.0,0.0,0.0,0.0,0.0,0.0,0.0,0.0,0.0,0.0,0.0,0.0,0.0,0.0,0.0,0.0,0.0,0.0,0.0,0.0,0.0,0.0,0.0,0.0,0.0,0.0,0.0,0.0,0.0,0.0,0.0,0.0,0.0,0.0,0.0,0.0,0.0,0.0,0.0,0.0,0.0,-4.3865,-4.7179,-4.9012,-4.9038,-4.583,-4.3262,0.0,0.0,0.0,0.0,0.0,0.0,0.0,0.0,0.0,0.0,0.0,0.0,0.0,0.0,0.0,0.0,0.0,0.0,0.0,0.0,0.0,0.0,0.0,0.0,0.0,0.0,0.0,0.0,0.0,0.0,0.0,0.0,0.0,0.0,0.0,0.0,0.0,0.0,0.0,0.0,0.0,0.0,0.0,0.0,0.0,0.0,0.0,0.0,0.0,0.0,0.0,0.0,0.0,0.0,0.0,0.0,0.0,0.0,0.0,0.0,0.0,0.0,0.0,0.0,0.0,0.0,0.0,0.0,0.0,0.0,0.0,0.0,0.0,0.0,0.0,0.0,0.0,0.0,0.0,0.0,0.0,0.0,0.0,0.0,0.0,0.0,0.0,0.0,0.0,0.0,0.0,0.0,0.0,0.0,0.0,0.0,0.0,0.0,0.0,0.0,0.0,0.0,0.0,0.0,0.0,0.0,0.0,0.0,-4.3412,-4.5196,-4.8284,-5.0092,-5.0393,-4.7333,-4.4693,0.0,0.0,0.0,0.0,0.0,0.0,0.0,0.0,0.0,0.0,0.0,0.0,0.0,0.0,0.0,0.0,0.0,0.0,0.0,0.0,0.0,0.0,0.0,0.0,0.0,0.0,0.0,0.0,0.0,0.0,0.0,0.0,0.0,0.0,0.0,0.0,0.0,0.0,0.0,0.0,0.0,0.0,0.0,0.0,0.0,0.0,0.0,0.0,0.0,0.0,0.0,0.0,0.0,0.0,0.0,0.0,0.0,0.0,0.0,0.0,0.0,0.0,0.0,0.0,0.0,0.0,0.0,0.0,0.0,0.0,0.0,0.0,0.0,0.0,0.0,0.0,0.0,0.0,0.0,0.0,0.0,0.0,0.0,0.0,0.0,0.0,0.0,0.0,0.0,0.0,0.0,0.0,0.0,0.0,0.0,0.0,0.0,0.0,0.0,0.0,0.0,0.0,0.0,0.0,0.0,0.0,0.0,0.0,-4.4593,-4.7104,-4.9289,-5.0419,-5.0368,-4.8786,-4.6184,0.0,0.0,0.0,0.0,0.0,0.0,0.0,0.0,0.0,0.0,0.0,0.0,0.0,0.0,0.0,0.0,0.0,0.0,0.0,0.0,0.0,0.0,0.0,0.0,0.0,0.0,0.0,0.0,0.0,0.0,0.0,0.0,0.0,0.0,0.0,0.0,0.0,0.0,0.0,0.0,0.0,0.0,0.0,0.0,0.0,0.0,0.0,0.0,0.0,0.0,0.0,0.0,0.0,0.0,0.0,0.0,0.0,0.0,0.0,0.0,0.0,0.0,0.0,0.0,0.0,0.0,0.0,0.0,0.0,0.0,0.0,0.0,0.0,0.0,0.0,0.0,0.0,0.0,0.0,0.0,0.0,0.0,0.0,0.0,0.0,0.0,0.0,0.0,0.0,0.0,0.0,0.0,0.0,0.0,0.0,0.0,0.0,0.0,0.0,0.0,0.0,0.0,0.0,0.0,0.0,0.0,0.0,0.0,-4.4586,-4.7104,-4.9289,-5.0419,-5.0419,-4.8532,-4.6167,0.0,0.0,0.0,0.0,0.0,0.0,0.0,0.0,0.0,0.0,0.0,0.0,0.0,0.0,0.0,0.0,0.0,0.0,0.0,0.0,0.0,0.0,0.0,0.0,0.0,0.0,0.0,0.0,0.0,0.0,0.0,0.0,0.0,0.0,0.0,0.0,0.0,0.0,0.0,0.0,0.0,0.0,0.0,0.0,0.0,0.0,0.0,0.0,-3.82,0.0,0.0,0.0,0.0,0.0,0.0,0.0,0.0,0.0,0.0,0.0,0.0,0.0,0.0,0.0,0.0,0.0,0.0,0.0,0.0,0.0,0.0,0.0,0.0,0.0,0.0,0.0,0.0,0.0,0.0,0.0,0.0,0.0,0.0,0.0,0.0,0.0,0.0,0.0,0.0,0.0,0.0,0.0,0.0,0.0,0.0,0.0,0.0,0.0,0.0,0.0,0.0,0.0,0.0,0.0,0.0,0.0,0.0,0.0,-4.5597,-4.7857,-4.9289,-5.0042,-4.9967,-4.8534,-4.639,0.0,0.0,0.0,0.0,0.0,0.0,0.0,0.0,0.0,0.0,0.0,0.0,0.0,0.0,0.0,0.0,0.0,0.0,0.0,0.0,0.0,0.0,0.0,0.0,0.0,0.0,0.0,0.0,0.0,0.0,0.0,0.0,0.0,0.0,0.0,0.0,0.0,0.0,0.0,0.0,0.0,0.0,0.0,0.0,0.0,0.0,0.0,0.0,0.0,0.0,0.0,0.0,0.0,0.0,0.0,0.0,0.0,0.0,0.0,0.0,0.0,0.0,0.0,0.0,0.0,0.0,0.0,0.0,0.0,0.0,0.0,0.0,0.0,0.0,0.0,0.0,0.0,0.0,0.0,0.0,0.0,0.0,0.0,0.0,0.0,0.0,0.0,0.0,0.0,0.0,0.0,0.0,0.0,0.0,0.0,0.0,0.0,0.0,0.0,0.0,0.0,0.0,0.0,0.0,0.0,0.0,0.0,-4.3826,-4.6686,-4.8812,-4.9264,-4.9464,-4.9464,-4.836,-4.6636,-4.4037,0.0,0.0,0.0,0.0,0.0,0.0,0.0,0.0,0.0,0.0,0.0,0.0,0.0,0.0,0.0,0.0,0.0,0.0,0.0,0.0,0.0,0.0,0.0,0.0,0.0,0.0,0.0,0.0,0.0,0.0,0.0,0.0,0.0,0.0,0.0,0.0,0.0,0.0,-3.2468,-3.388,0.0,0.0,0.0,0.0,0.0,0.0,0.0,0.0,-4.1257,0.0,0.0,0.0,0.0,0.0,0.0,0.0,0.0,0.0,0.0,0.0,0.0,0.0,0.0,0.0,0.0,0.0,0.0,0.0,0.0,0.0,0.0,0.0,0.0,0.0,0.0,0.0,0.0,0.0,0.0,0.0,0.0,0.0,0.0,0.0,0.0,0.0,0.0,0.0,0.0,0.0,0.0,0.0,0.0,0.0,0.0,0.0,0.0,0.0,0.0,0.0,0.0,0.0,0.0,0.0,0.0,-4.2086,-4.343,-4.5847,-4.9364,-4.9088,-4.8912,-4.8862,-4.7832,-4.5991,-4.35,0.0,0.0,0.0,0.0,0.0,0.0,0.0,0.0,0.0,0.0,0.0,0.0,0.0,0.0,0.0,0.0,0.0,0.0,0.0,0.0,0.0,0.0,0.0,0.0,0.0,0.0,0.0,0.0,0.0,0.0,0.0,0.0,0.0,0.0,0.0,0.0,0.0,0.0,0.0,-3.5672,-3.7233,0.0,0.0,0.0,0.0,0.0,0.0,0.0,0.0,-4.2553,0.0,0.0,0.0,0.0,0.0,0.0,0.0,0.0,0.0,0.0,0.0,0.0,0.0,0.0,0.0,0.0,0.0,0.0,0.0,0.0,0.0,0.0,0.0,0.0,0.0,0.0,0.0,0.0,0.0,0.0,0.0,0.0,0.0,0.0,0.0,0.0,0.0,0.0,0.0,0.0,0.0,0.0,0.0,0.0,0.0,0.0,0.0,0.0,0.0,0.0,0.0,0.0,0.0,0.0,0.0,-4.1874,-4.4497,-4.7034,-4.949,-4.9063,-4.8786,-4.8711,-4.6326,-4.4245,0.0,0.0,0.0,0.0,0.0,0.0,0.0,0.0,0.0,0.0,0.0,0.0,0.0,0.0,0.0,0.0,0.0,0.0,0.0,0.0,0.0,0.0,0.0,0.0,0.0,0.0,0.0,0.0,0.0,0.0,0.0,0.0,0.0,0.0,0.0,0.0,0.0,0.0,0.0,0.0,-3.6535,-3.877,-4.0604,0.0,0.0,0.0,0.0,0.0,0.0,-4.2622,-4.2769,0.0,0.0,0.0,0.0,0.0,0.0,0.0,0.0,0.0,0.0,0.0,0.0,0.0,0.0,0.0,0.0,0.0,0.0,0.0,0.0,0.0,0.0,0.0,0.0,0.0,0.0,0.0,0.0,0.0,0.0,0.0,0.0,0.0,0.0,0.0,0.0,0.0,0.0,0.0,0.0,0.0,0.0,0.0,0.0,0.0,0.0,0.0,0.0,0.0,0.0,0.0,0.0,0.0,0.0,0.0,-4.1444,-4.5275,-4.7858,-4.8948,-4.8501,-4.8178,-4.8004,-4.4774,-4.2584,0.0,0.0,0.0,0.0,0.0,0.0,0.0,0.0,0.0,0.0,0.0,0.0,0.0,0.0,0.0,0.0,0.0,0.0,0.0,0.0,0.0,0.0,0.0,0.0,0.0,0.0,0.0,0.0,0.0,0.0,0.0,0.0,0.0,0.0,0.0,0.0,0.0,0.0,0.0,0.0,0.0,-4.0163,-4.2149,-4.204,0.0,0.0,0.0,0.0,-4.3647,-4.353,0.0,0.0,0.0,0.0,0.0,0.0,0.0,0.0,0.0,0.0,0.0,0.0,0.0,0.0,0.0,0.0,0.0,0.0,0.0,0.0,0.0,0.0,0.0,0.0,0.0,0.0,0.0,0.0,0.0,0.0,0.0,0.0,0.0,0.0,0.0,0.0,0.0,0.0,0.0,0.0,0.0,0.0,0.0,0.0,0.0,0.0,0.0,0.0,0.0,0.0,0.0,0.0,0.0,0.0,0.0,0.0,-4.1257,-4.3713,-4.5722,-4.7053,-4.661,-4.6108,-4.5653,-4.3736,-4.2303,0.0,0.0,0.0,0.0,0.0,0.0,0.0,0.0,0.0,0.0,0.0,0.0,0.0,0.0,0.0,0.0,0.0,0.0,0.0,0.0,0.0,0.0,0.0,0.0,0.0,0.0,0.0,0.0,0.0,0.0,0.0,0.0,0.0,0.0,0.0,0.0,0.0,0.0,0.0,0.0,0.0,-4.1532,-4.3015,-4.3076,-4.3586,0.0,0.0,-4.4646,-4.6117,-4.5164,0.0,0.0,0.0,0.0,0.0,0.0,0.0,0.0,0.0,0.0,0.0,0.0,0.0,0.0,0.0,0.0,0.0,0.0,0.0,0.0,0.0,0.0,0.0,0.0,0.0,0.0,0.0,0.0,0.0,0.0,0.0,0.0,0.0,0.0,0.0,0.0,0.0,0.0,0.0,0.0,0.0,0.0,0.0,0.0,0.0,0.0,0.0,0.0,0.0,0.0,0.0,0.0,0.0,0.0,0.0,-3.6064,-3.9124,-4.1754,-4.3775,-4.5229,-4.4704,-4.4199,-4.3716,-4.0724,-3.8873,0.0,0.0,0.0,0.0,0.0,0.0,0.0,0.0,0.0,0.0,0.0,0.0,0.0,0.0,0.0,0.0,0.0,0.0,0.0,0.0,0.0,0.0,0.0,0.0,0.0,0.0,0.0,0.0,0.0,0.0,0.0,0.0,0.0,0.0,0.0,0.0,0.0,0.0,0.0,0.0,0.0,0.0,-4.4976,-4.5465,0.0,0.0,0.0,-4.4536,-4.5629,0.0,0.0,0.0,0.0,0.0,0.0,0.0,0.0,0.0,0.0,0.0,0.0,0.0,0.0,0.0,0.0,0.0,0.0,0.0,0.0,0.0,0.0,0.0,0.0,0.0,0.0,0.0,0.0,0.0,0.0,0.0,0.0,0.0,0.0,0.0,0.0,0.0,0.0,0.0,0.0,0.0,0.0,0.0,0.0,0.0,0.0,0.0,0.0,0.0,0.0,0.0,0.0,0.0,0.0,0.0,0.0,0.0,-3.7363,-4.03,-4.237,-4.3338,-4.2941,-4.2412,-4.175,-3.824,0.0,0.0,0.0,0.0,0.0,0.0,0.0,0.0,0.0,0.0,0.0,0.0,0.0,0.0,0.0,0.0,0.0,0.0,0.0,0.0,0.0,0.0,0.0,0.0,0.0,0.0,0.0,-2.5141,0.0,0.0,0.0,0.0,0.0,0.0,0.0,0.0,0.0,0.0,0.0,0.0,0.0,0.0,-4.2583,-4.5461,-4.6398,-4.7495,0.0,0.0,-4.4007,-4.4681,-4.2794,-4.058,0.0,0.0,0.0,0.0,0.0,0.0,0.0,0.0,0.0,0.0,0.0,0.0,0.0,0.0,0.0,0.0,0.0,0.0,0.0,0.0,0.0,0.0,0.0,0.0,0.0,0.0,0.0,0.0,0.0,0.0,0.0,0.0,0.0,0.0,0.0,0.0,0.0,0.0,0.0,0.0,0.0,0.0,0.0,0.0,0.0,0.0,0.0,0.0,0.0,0.0,0.0,0.0,0.0,0.0,0.0,-3.7363,-3.9966,-4.122,-4.1503,-4.1025,-4.0372,-3.9467,-3.7422,-3.626,0.0,0.0,0.0,0.0,0.0,0.0,0.0,0.0,0.0,0.0,0.0,0.0,0.0,0.0,0.0,0.0,0.0,0.0,0.0,0.0,0.0,0.0,0.0,0.0,0.0,0.0,0.0,0.0,0.0,0.0,0.0,0.0,0.0,0.0,0.0,0.0,0.0,0.0,0.0,0.0,0.0,-4.1281,-4.2995,-4.396,-4.5135,0.0,0.0,-4.3771,-4.4138,-4.2991,-4.1507,-3.9735,0.0,0.0,0.0,0.0,0.0,0.0,0.0,0.0,0.0,0.0,0.0,0.0,0.0,0.0,0.0,0.0,0.0,0.0,0.0,0.0,0.0,0.0,0.0,0.0,0.0,0.0,0.0,0.0,0.0,0.0,0.0,0.0,0.0,0.0,0.0,0.0,0.0,0.0,0.0,0.0,0.0,0.0,0.0,0.0,0.0,0.0,0.0,0.0,0.0,0.0,0.0,0.0,0.0,-3.2142,-3.4554,-3.6325,-3.7729,-3.8769,-3.8708,-3.8326,-3.7743,-3.6102,-3.4733,0.0,0.0,0.0,0.0,0.0,0.0,0.0,0.0,0.0,0.0,0.0,0.0,0.0,0.0,0.0,0.0,0.0,0.0,0.0,0.0,0.0,0.0,0.0,0.0,0.0,0.0,0.0,0.0,-2.8261,-2.9004,-2.9414,0.0,0.0,0.0,0.0,0.0,0.0,0.0,0.0,0.0,0.0,-4.1593,-4.3959,-4.4408,0.0,0.0,-4.3673,-4.1947,-4.2741,-4.0599,-3.8432,-3.7522,-3.5733,0.0,0.0,0.0,0.0,0.0,0.0,0.0,0.0,0.0,0.0,0.0,0.0,0.0,0.0,0.0,0.0,0.0,0.0,0.0,0.0,0.0,0.0,0.0,0.0,0.0,0.0,0.0,0.0,0.0,0.0,0.0,0.0,0.0,0.0,0.0,0.0,0.0,0.0,0.0,0.0,0.0,0.0,0.0,0.0,0.0,0.0,0.0,0.0,0.0,0.0,0.0,0.0,-3.0505,-3.2578,-3.3984,-3.5488,-3.709,-3.7109,-3.6855,-3.6289,-3.5137,-3.3681,0.0,0.0,0.0,0.0,0.0,0.0,0.0,0.0,0.0,0.0,0.0,0.0,0.0,0.0,0.0,0.0,0.0,0.0,0.0,0.0,0.0,0.0,0.0,0.0,0.0,0.0,0.0,0.0,-2.9172,-2.9687,-2.998,0.0,0.0,0.0,0.0,0.0,0.0,0.0,0.0,0.0,0.0,-4.1126,-4.3088,-4.3297,-4.3443,-4.4327,-4.1856,-4.0205,-4.0946,-3.8808,-3.6719,-3.6043,0.0,0.0,0.0,0.0,0.0,0.0,0.0,0.0,0.0,0.0,0.0,0.0,0.0,0.0,0.0,0.0,0.0,0.0,0.0,0.0,0.0,0.0,0.0,0.0,0.0,0.0,0.0,0.0,0.0,0.0,-2.1032,0.0,0.0,0.0,0.0,0.0,0.0,0.0,0.0,0.0,0.0,0.0,0.0,0.0,0.0,0.0,0.0,0.0,0.0,0.0,0.0,0.0,0.0,-3.0754,-3.2168,-3.3809,-3.5312,-3.6601,-3.668,-3.6269,-3.5449,-3.4551,-3.3387,-3.188,0.0,0.0,0.0,0.0,0.0,0.0,0.0,0.0,0.0,0.0,0.0,0.0,0.0,0.0,0.0,0.0,0.0,0.0,0.0,0.0,0.0,0.0,0.0,0.0,0.0,0.0,-2.9026,-2.9346,-2.959,0.0,0.0,0.0,0.0,0.0,0.0,0.0,0.0,0.0,0.0,-3.8181,-3.9149,-3.9328,-3.9759,-4.0164,-4.0184,-3.9622,-3.9033,-3.87,-3.8196,-3.7445,0.0,0.0,0.0,0.0,0.0,0.0,0.0,0.0,0.0,0.0,0.0,0.0,0.0,0.0,0.0,0.0,0.0,0.0,0.0,0.0,0.0,0.0,0.0,0.0,0.0,0.0,0.0,-2.2333,-2.1877,0.0,0.0,0.0,0.0,0.0,0.0,0.0,0.0,0.0,0.0,0.0,-2.8947,-2.9925,0.0,0.0,0.0,0.0,0.0,0.0,0.0,0.0,0.0,0.0,0.0,0.0,-3.0364,-3.2332,-3.3113,-3.4062,-3.5312,-3.5351,-3.5215,-3.4941,-3.4375,-3.327,-3.127,0.0,0.0,0.0,0.0,0.0,0.0,0.0,0.0,0.0,0.0,0.0,0.0,0.0,0.0,0.0,0.0,0.0,0.0,0.0,0.0,0.0,0.0,0.0,0.0,0.0,-2.9153,0.0,0.0,0.0,0.0,0.0,0.0,0.0,0.0,0.0,0.0,0.0,-3.6484,-3.7773,-3.8955,-3.9641,-3.9648,-3.9531,-3.9434,0.0,0.0,0.0,0.0,0.0,0.0,0.0,0.0,0.0,0.0,0.0,0.0,0.0,0.0,-3.8462,-3.5942,-3.4932,-3.445,-3.4697,0.0,0.0,0.0,0.0,0.0,0.0,0.0,0.0,0.0,0.0,0.0,0.0,0.0,0.0,0.0,0.0,-2.2877,0.0,0.0,0.0,0.0,0.0,0.0,0.0,0.0,-2.8916,-2.9872,-3.0065,-3.1229,-3.1326,0.0,-3.0509,-2.9951,0.0,0.0,0.0,0.0,0.0,0.0,0.0,0.0,-3.0486,-3.2116,-3.276,-3.3496,-3.4434,-3.4629,-3.4629,-3.4473,-3.3926,-3.291,-3.1387,-3.0509,-2.954,0.0,0.0,0.0,0.0,0.0,0.0,0.0,0.0,0.0,0.0,0.0,0.0,0.0,0.0,0.0,0.0,0.0,0.0,0.0,0.0,0.0,0.0,0.0,-2.985,0.0,0.0,0.0,0.0,0.0,0.0,0.0,0.0,0.0,-3.4797,-3.6363,-3.7786,-3.8906,-3.9531,-3.9844,-3.9668,0.0,0.0,0.0,0.0,0.0,0.0,0.0,-3.8062,-3.8319,-3.8283,-3.8363,-3.8787,-3.972,-4.0293,-4.0137,0.0,0.0,-3.8045,-3.7032,-3.6649,-3.6804,-3.6563,-3.6475,-3.6719,-3.6971,-3.7099,0.0,0.0,0.0,0.0,0.0,0.0,0.0,0.0,-2.6591,-2.6461,0.0,-2.5433,0.0,0.0,0.0,0.0,0.0,0.0,0.0,0.0,-3.0897,-3.1777,-3.2148,-3.2207,-3.2187,-3.2207,-3.2169,-3.1725,-3.084,-2.9238,0.0,0.0,0.0,0.0,0.0,0.0,-3.1113,-3.1582,-3.2754,-3.3594,-3.4043,-3.4434,-3.4453,-3.4043,-3.3262,-3.2637,-3.2207,-3.1517,-3.0586,-2.9707,-2.871,0.0,0.0,0.0,0.0,0.0,0.0,0.0,0.0,0.0,0.0,0.0,0.0,0.0,0.0,0.0,0.0,0.0,0.0,0.0,0.0,-3.0003,0.0,0.0,0.0,0.0,0.0,0.0,0.0,0.0,0.0,0.0,-3.6278,-3.7769,-3.8966,-3.9863,0.0,0.0,0.0,0.0,-4.0033,-4.0464,-4.0518,-4.0636,-4.0953,-3.9919,-3.9053,-3.8576,0.0,0.0,-3.9844,-4.0625,-4.1016,-4.0625,-4.0898,-4.1172,-4.1074,-4.0203,-3.9583,-3.9564,-3.8892,-3.8438,-3.8418,-3.8472,-3.8563,-2.4055,0.0,0.0,0.0,0.0,-2.3489,-2.4563,-2.5628,-2.6787,-2.705,-2.6637,-2.6478,0.0,0.0,0.0,0.0,0.0,0.0,-2.9373,-3.0699,-3.1667,-3.2254,-3.2617,-3.293,-3.291,-3.2617,-3.2611,-3.2319,-3.1797,-3.1309,-3.043,-2.9128,0.0,0.0,0.0,0.0,-3.1368,-3.2194,-3.276,-3.3184,-3.3594,-3.373,-3.373,-3.3613,-3.3379,-3.3047,-3.2637,-3.2377,-3.1711,-3.0625,-3.0064,0.0,0.0,0.0,0.0,0.0,0.0,0.0,0.0,0.0,0.0,0.0,0.0,0.0,0.0,0.0,0.0,0.0,0.0,0.0,-2.9595,-3.0219,-3.0839,0.0,0.0,0.0,0.0,0.0,0.0,0.0,0.0,0.0,-3.8317,-3.9348,-4.016,0.0,0.0,-4.0644,-4.0215,-4.0,-3.9902,-4.0053,0.0,0.0,0.0,-3.9641,-3.9238,-3.9465,-3.9785,-4.0293,-4.0723,-4.1016,-4.1133,-4.0996,-4.1074,-4.1172,-4.1133,-4.0625,-4.0308,-4.0269,-4.0073,-3.9818,-3.9563,-3.9668,-3.9844,-2.3459,-2.1554,-2.2067,-2.2468,-2.2886,-2.4547,-2.5863,-2.6627,-2.8174,-2.8695,-2.8436,-2.8196,-2.7734,-2.7123,-2.7179,0.0,0.0,0.0,-3.0515,-3.1808,-3.2312,-3.2642,-3.3047,-3.3301,-3.3281,-3.3066,-3.3097,-3.2863,-3.2422,-3.2474,-3.1754,-3.0391,0.0,0.0,-3.0603,-3.0918,-3.1584,-3.2371,-3.2525,-3.2754,-3.3164,-3.3008,-3.3086,-3.3398,-3.3262,-3.3047,-3.2812,-3.2637,-3.2105,-3.1285,-3.0504,-2.947,0.0,0.0,0.0,0.0,0.0,0.0,0.0,0.0,0.0,0.0,0.0,-2.5392,-2.5489,0.0,0.0,0.0,-2.8984,-3.0215,-3.1133,-3.1968,0.0,0.0,0.0,0.0,0.0,0.0,0.0,-3.7605,-3.8619,-3.9503,-4.0027,-4.0607,-4.1074,-4.1152,-4.1016,-4.082,-4.0547,0.0,-4.0391,-4.0695,-4.07,-4.0644,-4.0951,-4.0151,-3.9512,-3.9609,-3.998,-4.041,-4.082,-4.1055,-4.1172,-4.1172,-4.1172,-4.1172,-4.1172,-4.0957,-4.0781,-4.0781,-4.0781,-4.0684,-4.0449,-4.0605,-4.0664,-2.2979,-2.1849,-2.3436,-2.4219,-2.4715,-2.6546,-2.7904,-2.8985,-3.0329,-3.0898,-3.0898,-3.0332,-2.9906,-2.9583,-2.9356,0.0,-2.9659,-3.0819,-3.1931,-3.2851,-3.2812,-3.3027,-3.3418,-3.3379,-3.3379,-3.3437,-3.3444,-3.3212,-3.2891,-3.2826,-3.2382,-3.1601,-3.1523,-3.1171,-3.0547,-3.1171,-3.1719,-3.2109,-3.2148,-3.2363,-3.2773,-3.2383,-3.2559,-3.334,-3.2969,-3.2734,-3.2734,-3.2383,-3.1973,-3.1543,-3.0543,-2.9623,-2.8584,0.0,0.0,0.0,0.0,0.0,0.0,0.0,0.0,0.0,0.0,0.0,0.0,0.0,0.0,0.0,-3.1151,0.0,-3.2969,-3.4434,0.0,0.0,0.0,-3.6119,-3.5971,-3.7594,-3.8855,-3.9317,0.0,0.0,-4.1172,0.0,-4.1601,-4.123,-4.0859,-4.0625,-4.0625,-4.0937,-4.1327,-4.1559,-4.1778,-4.1876,-4.2013,-4.0932,-3.9726,-3.9336,-3.957,-3.998,-4.041,-4.082,-4.1074,-4.1094,-4.1133,-4.1133,-4.1172,-4.1113,-4.1133,-4.1133,-4.1113,-4.1094,-4.1094,-4.1074,-4.0937,-2.2399,-2.2205,-2.2654,-2.3565,-2.4653,-2.602,-2.7518,-2.9107,-3.0329,-3.0898,-3.0918,-3.0994,-3.1246,-3.1579,-3.1436,-3.1609,-3.1944,-3.2254,-3.2747,-3.3242,-3.293,-3.3008,-3.3398,-3.3086,-3.3105,-3.3418,-3.3389,-3.335,-3.3262,-3.2922,-3.2513,-3.2031,-3.168,-3.1309,-3.0801,-3.1309,-3.1562,-3.168,-3.2012,-3.2363,-3.2754,-3.2383,-3.2402,-3.293,-3.2539,-3.2324,-3.2305,-3.2226,-3.1973,-3.1543,-3.1287,-3.0548,-2.9361,-2.8282,0.0,0.0,0.0,0.0,0.0,0.0,0.0,0.0,0.0,-2.8291,-2.7338,0.0,-3.0354,0.0,-3.2305,-3.3574,-3.4668,-3.5004,0.0,0.0,-3.6874,-3.7421,-3.9154,-3.9217,-3.9565,-4.0627,-4.1055,-4.1172,-4.1172,-4.1269,-4.1289,-4.1191,-4.1367,-4.1484,-4.1504,-4.1289,-4.1172,-4.1327,-4.1425,-4.1328,-4.1406,-4.068,-3.9726,-3.9277,-3.9297,-3.9512,-3.9961,-4.0391,-4.0684,-4.0684,-4.0684,-4.0801,-4.1113,-4.0918,-4.084,-4.1055,-4.0918,-4.0781,-4.1094,-4.0918,-4.0742,-2.2004,-2.2176,-2.2946,-2.4014,-2.5115,-2.6167,-2.7548,-2.9107,-3.0329,-3.0898,-3.0918,-3.1328,-3.1543,-3.1641,-3.2187,-3.2461,-3.2539,-3.2891,-3.3203,-3.3398,-3.3184,-3.3203,-3.3418,-3.3184,-3.3203,-3.3418,-3.3418,-3.3418,-3.3398,-3.3203,-3.2871,-3.2441,-3.2012,-3.1601,-3.1191,-3.1211,-3.1307,-3.1556,-3.1735,-3.1992,-3.2207,-3.1816,-3.1992,-3.2506,-3.2085,-3.1852,-3.1905,-3.1852,-3.168,-3.1013,-3.0876,-3.0547,-2.9947,-2.8878,-2.8195,0.0,0.0,0.0,0.0,0.0,0.0,0.0,0.0,0.0,0.0,0.0,-3.2176,-3.3437,-3.4512,-3.5605,-3.6719,-3.7183,-3.7825,-3.873,-3.8844,-3.9237,-4.0449,-4.0335,-4.0491,-4.1113,-4.1172,-4.1172,-4.1172,-4.1172,-4.1172,-4.1172,-4.1367,-4.1523,-4.1504,-4.1308,-4.1172,-4.1172,-4.1172,-4.1016,-4.0684,-4.0215,-3.9668,-3.9082,-3.9082,-3.9355,-3.9805,-4.0078,-4.0293,-4.0469,-4.0527,-4.0586,-4.082,-4.0879,-4.0898,-4.1035,-4.082,-4.0723,-4.1074,-4.0976,-4.0898,-2.1897,-2.1813,-2.3681,-2.494,-2.5789,-2.6775,-2.777,-2.9026,-3.0125,-3.0683,-3.0839,-3.1249,-3.1367,-3.1211,-3.2226,-3.2539,-3.2305,-3.3008,-3.334,-3.334,-3.334,-3.3379,-3.3418,-3.3359,-3.3379,-3.3418,-3.3418,-3.3418,-3.3418,-3.3359,-3.3125,-3.2715,-3.2285,-3.1894,-3.1404,-3.1094,-3.1132,-3.1488,-3.144,-3.1424,-3.1463,-3.1073,-3.1285,-3.2123,-3.1634,-3.1501,-3.1469,-3.156,-3.1229,-3.0625,-3.0291,-3.0329,-3.0526,-2.9604,-2.9508,0.0,-2.9853,0.0,0.0,0.0,0.0,0.0,0.0,0.0,0.0,-3.3359,-3.4629,-3.5996,-3.709,-3.7949,-3.875,-3.9844,-4.0391,-4.0117,-4.0723,-4.1016,-4.0684,-4.0937,-4.1172,-4.1172,-4.1172,-4.1172,-4.1172,-4.1172,-4.1172,-4.1172,-4.1191,-4.1211,-4.1191,-4.1172,-4.1152,-4.1113,-4.1035,-4.0703,-4.0215,-3.998,-3.9648,-3.8984,-3.9101,-3.9414,-3.9824,-3.9961,-4.0117,-4.043,-4.0527,-4.0547,-4.0586,-4.0879,-4.1074,-4.1152,-4.0879,-4.0762,-4.1055,-4.1074,-4.1113,-2.2311,-2.2364,-2.3724,-2.5165,-2.6352,-2.7919,-2.8711,-2.9077,-2.8959,-2.956,-3.0663,-3.1262,-3.1855,-3.2422,-3.2324,-3.2422,-3.2676,-3.2832,-3.291,-3.291,-3.291,-3.3105,-3.3398,-3.3066,-3.3086,-3.3398,-3.3418,-3.3418,-3.3418,-3.3086,-3.2695,-3.2285,-3.1855,-3.1482,-3.1146,0.0,0.0,0.0,-3.103,-3.1079,-3.1123,-3.1022,-3.1079,-3.1351,-3.1088,0.0,-3.1015,-3.1387,-3.1484,-3.1287,-3.1618,0.0,0.0,0.0,0.0,0.0,0.0,0.0,0.0,0.0,0.0,0.0,-3.4239,-3.4042,-3.3379,-3.5566,-3.7066,-3.7132,-3.8526,-3.9609,-4.0098,-4.0371,-4.0625,-4.0918,-4.1074,-4.1133,-4.1055,-4.1133,-4.1172,-4.1172,-4.1172,-4.1172,-4.1172,-4.1172,-4.1172,-4.1172,-4.1172,-4.1172,-4.1172,-4.1172,-4.1035,-4.0703,-4.0449,-4.0254,-4.0391,-4.0117,-3.9844,-3.9687,-3.9687,-3.9785,-3.9883,-4.0156,-4.0371,-4.0488,-4.0527,-4.0625,-4.0937,-4.084,-4.0801,-4.1113,-4.1094,-4.1074,-4.1152,-4.0898,-4.0742,-2.2164,0.0,-2.4419,-2.5439,0.0,-2.8149,-2.8994,-2.8881,-2.9433,-3.0046,-3.0787,-3.1285,-3.1758,-3.2187,-3.1873,-3.1818,-3.2047,-3.2068,-3.2162,-3.2352,-3.2689,-3.3038,-3.3418,-3.3203,-3.3203,-3.3418,-3.3418,-3.332,-3.3125,-3.3105,-3.2891,-3.2461,-3.2051,-3.1715,-3.1576,-3.1093,-3.0898,-3.0898,-3.0996,-3.0953,-3.1007,-3.0953,-3.093,-3.1073,0.0,0.0,0.0,0.0,0.0,0.0,0.0,0.0,0.0,0.0,0.0,-3.3436,-3.356,-3.3772,-3.4004,-3.4662,-3.5355,-3.5724,-3.6325,-3.6366,-3.541,-3.7129,-3.8273,-3.8573,-3.9557,-4.0371,-4.0801,-4.084,-4.0937,-4.1152,-4.1172,-4.1172,-4.1172,-4.1172,-4.1172,-4.1172,-4.1172,-4.1172,-4.1172,-4.1172,-4.1172,-4.1172,-4.1172,-4.1172,-4.1172,-4.1172,-4.1074,-4.0859,-4.0488,-4.0273,-4.043,-4.0176,-3.9902,-3.9883,-3.9883,-3.9883,-3.9883,-3.9883,-3.9863,-3.9883,-4.0039,-4.0293,-4.0488,-4.0684,-4.0918,-4.1113,-4.1172,-4.1172,-4.1172,-4.0996,-4.0898,-2.1884,-2.1457,-2.4594,-2.5437,-2.4968,-2.794,-2.9112,-2.903,0.0,0.0,0.0,-3.1171,-3.1445,-3.1443,-3.137,-3.1339,-3.1327,-3.1543,-3.182,-3.2053,-3.2725,-3.3239,-3.3418,-3.3418,-3.3418,-3.3418,-3.3418,-3.3242,-3.293,-3.3262,-3.3203,-3.2793,-3.2441,-3.2207,-3.2012,-3.1367,-3.0996,-3.0996,-3.0879,-3.0879,-3.0879,-3.0957,-3.1033,-3.1022,-3.1382,-3.1677,-3.1642,-3.2105,-3.2202,-3.2015,-3.1846,-3.221,-3.3231,-3.3091,-3.3873,-3.5781,-3.6055,-3.6289,-3.666,-3.7129,-3.7305,-3.7031,-3.7637,-3.7891,-3.7539,-3.8242,-3.9023,-3.9844,-4.0273,-4.0703,-4.1133,-4.1172,-4.1172,-4.1172,-4.1172,-4.1172,-4.1172,-4.1172,-4.1172,-4.1172,-4.1172,-4.1172,-4.1172,-4.1172,-4.1172,-4.1172,-4.1172,-4.1133,-4.1074,-4.1016,-4.1055,-4.1074,-4.0664,-4.041,-4.0566,-4.0312,-4.0059,-4.0176,-4.0156,-4.0117,-4.0059,-3.9805,-3.957,-3.9746,-3.9902,-4.0137,-4.0195,-4.0703,-4.1152,-4.1172,-4.1172,-4.1172,-4.1172,-4.1172,-4.1152,-2.183,-2.1727,-2.3363,-2.4734,-2.5928,-2.7779,-2.9287,-3.0485,-3.0238,-3.0092,-3.0212,-3.0741,-3.1172,-3.1523,-3.1521,-3.1653,-3.2041,-3.2382,-3.268,0.0,-3.3175,-3.335,-3.3418,-3.3418,-3.3418,-3.3418,-3.3418,-3.3398,-3.334,-3.3379,-3.3203,-3.2832,-3.2734,-3.2344,-3.166,-3.1484,-3.1426,-3.1426,-3.1069,-3.083,-3.0572,-3.1175,-3.1386,-3.118,-3.1687,-3.2109,-3.2168,-3.2519,-3.2871,-3.3116,-3.3467,-3.3895,-3.4362,-3.4751,-3.5101,-3.5488,-3.6172,-3.6601,-3.668,-3.7402,-3.7969,-3.8281,-3.8418,-3.8457,-3.8418,-3.8848,-3.9336,-3.9863,-4.0273,-4.0703,-4.1113,-4.1172,-4.1172,-4.1172,-4.1172,-4.1172,-4.1172,-4.1172,-4.1172,-4.1172,-4.1172,-4.1172,-4.1172,-4.1172,-4.1172,-4.1172,-4.1133,-4.1035,-4.0703,-4.0605,-4.0781,-4.0976,-4.0488,-4.0351,-4.082,-4.0703,-4.0566,-4.0937,-4.0937,-4.0879,-4.082,-4.0762,-4.0664,-4.082,-4.0781,-4.0879,-4.0898,-4.1074,-4.1172,-4.1172,-4.1172,-4.1172,-4.1172,-4.1172,-4.1172,-2.1871,-2.1592,-2.3073,-2.4704,-2.6227,-2.8664,-3.0157,-3.0898,-3.0603,-3.0462,-3.0562,-3.0742,-3.125,-3.1855,-3.1252,-3.1351,-3.2104,-3.1997,-3.2072,-3.2409,-3.2938,-3.3251,-3.3437,-3.3418,-3.3418,-3.3418,-3.3418,-3.3301,-3.3125,-3.3301,-3.3223,-3.2812,-3.2793,-3.2363,-3.1582,-3.1758,-3.1641,-3.1191,-3.1054,-3.0934,-3.1026,-3.1339,-3.1436,-3.1315,-3.2105,-3.25,-3.2519,-3.291,-3.332,-3.375,-3.3965,-3.4375,-3.5039,-3.5273,-3.5605,-3.6055,-3.666,-3.7109,-3.7344,-3.793,-3.8359,-3.8555,-3.8574,-3.8574,-3.8574,-3.8965,-3.9394,-3.9844,-4.0273,-4.0703,-4.1113,-4.1172,-4.1172,-4.1172,-4.1172,-4.1172,-4.1172,-4.1172,-4.1172,-4.1172,-4.1172,-4.1172,-4.1172,-4.1172,-4.1172,-4.1152,-4.0996,-4.0664,-4.0273,-4.0391,-4.0586,-4.0742,-4.0488,-4.0547,-4.1016,-4.0801,-4.0742,-4.1113,-4.1172,-4.1074,-4.0898,-4.084,-4.0742,-4.0566,-4.0664,-4.0801,-4.084,-4.1035,-4.1133,-4.1172,-4.1172,-4.1172,-4.1172,-4.1172,-4.1172,-2.1897,-2.1356,-2.2751,-2.4393,-2.6227,-2.953,-3.0898,-3.0898,-3.0996,-3.0976,-3.0898,-3.0898,-3.1309,-3.1871,-3.1237,-3.1426,-3.1978,-3.1894,-3.2042,-3.2332,-3.2872,-3.3219,-3.3437,-3.3418,-3.3418,-3.3418,-3.3418,-3.3262,-3.3008,-3.3262,-3.3262,-3.2969,-3.293,-3.2559,-3.1816,-3.2148,-3.1973,-3.1367,-3.123,-3.1289,-3.1504,-3.1699,-3.1816,-3.1855,-3.2637,-3.3086,-3.3105,-3.3476,-3.3906,-3.4336,-3.4375,-3.4766,-3.5586,-3.5586,-3.5879,-3.6601,-3.707,-3.7519,-3.8027,-3.8379,-3.8574,-3.8574,-3.8574,-3.8574,-3.8594,-3.8867,-3.9297,-3.9824,-4.0176,-4.0586,-4.1055,-4.1172,-4.1172,-4.1172,-4.1172,-4.1172,-4.1172,-4.1172,-4.1172,-4.1172,-4.1172,-4.1172,-4.1172,-4.1172,-4.1113,-4.0976,-4.0723,-4.0371,-4.0039,-4.0195,-4.0371,-4.0527,-4.0586,-4.0723,-4.0996,-4.0859,-4.084,-4.1133,-4.1172,-4.1055,-4.082,-4.0703,-4.0586,-4.041,-4.0508,-4.0644,-4.0605,-4.0879,-4.1074,-4.1035,-4.1074,-4.1172,-4.1172,-4.1172,-4.1172,-2.183,-2.1496,-2.1511,-2.3216,-2.6365,-2.9549,-3.0937,-3.0976,-3.1289,-3.123,-3.0957,-3.0898,-3.1172,-3.1601,-3.1891,-3.2319,-3.2786,-3.3049,-3.3204,-3.3165,-3.333,-3.333,-3.3418,-3.3418,-3.3418,-3.3418,-3.3418,-3.3398,-3.334,-3.3379,-3.3398,-3.3359,-3.3359,-3.3125,-3.2715,-3.2715,-3.2676,-3.2598,-3.2246,-3.1875,-3.1582,-3.2285,-3.2676,-3.2695,-3.3496,-3.3945,-3.3906,-3.4355,-3.4785,-3.5215,-3.5254,-3.5644,-3.6387,-3.6172,-3.6172,-3.666,-3.707,-3.7637,-3.8398,-3.8555,-3.8574,-3.8574,-3.8574,-3.8574,-3.8574,-3.8613,-3.8984,-3.9687,-3.9922,-4.0332,-4.1055,-4.1172,-4.1172,-4.1172,-4.1172,-4.1172,-4.1172,-4.1172,-4.1172,-4.1172,-4.1172,-4.1172,-4.1172,-4.1172,-4.1016,-4.0625,-4.0508,-4.0293,-3.9922,-3.9883,-4.0098,-4.0449,-4.082,-4.0898,-4.0781,-4.0918,-4.1055,-4.1152,-4.1172,-4.1113,-4.1055,-4.1055,-4.1074,-4.0879,-4.0976,-4.0918,-4.0781,-4.0859,-4.1035,-4.0879,-4.0976,-4.1172,-4.1172,-4.1172,-4.1172,-2.2607,-2.3049,-2.2921,-2.4704,-2.8061,-3.0648,-3.1641,-3.166,-3.1836,-3.1797,-3.166,-3.1641,-3.1738,-3.1934,-3.2344,-3.2773,-3.3164,-3.334,-3.3418,-3.3418,-3.3418,-3.3418,-3.3418,-3.3418,-3.3418,-3.3418,-3.3418,-3.3418,-3.3418,-3.3418,-3.3418,-3.3418,-3.3418,-3.3223,-3.2832,-3.3047,-3.293,-3.2461,-3.2754,-3.2695,-3.2363,-3.2617,-3.2793,-3.2871,-3.3633,-3.4062,-3.4101,-3.4473,-3.4922,-3.5351,-3.5391,-3.5781,-3.6621,-3.6504,-3.6601,-3.7012,-3.7441,-3.793,-3.8535,-3.8574,-3.8574,-3.8574,-3.8574,-3.8574,-3.8574,-3.8574,-3.8848,-3.9375,-3.9726,-4.0156,-4.0703,-4.1016,-4.1172,-4.1172,-4.1172,-4.1172,-4.1172,-4.1172,-4.1172,-4.1172,-4.1172,-4.1172,-4.1172,-4.1172,-4.0879,-4.0332,-4.0156,-4.0,-3.959,-3.9473,-3.9687,-4.0098,-4.0508,-4.082,-4.0859,-4.1035,-4.1152,-4.1172,-4.1172,-4.1172,-4.1172,-4.1172,-4.1172,-4.1172,-4.1172,-4.1133,-4.0976,-4.0996,-4.1094,-4.0937,-4.0957,-4.1172,-4.1172,-4.1172,-4.1172,-2.3854,-2.4976,-2.5344,-2.6927,-2.9446,-3.1386,-3.2168,-3.2187,-3.2285,-3.2285,-3.2187,-3.2402,-3.2441,-3.2402,-3.2656,-3.3027,-3.3379,-3.3418,-3.3418,-3.3418,-3.3418,-3.3418,-3.3418,-3.3418,-3.3418,-3.3418,-3.3418,-3.3418,-3.3418,-3.3418,-3.3418,-3.3418,-3.3418,-3.3281,-3.3027,-3.3281,-3.3125,-3.2637,-3.3144,-3.3262,-3.3008,-3.3086,-3.3086,-3.3066,-3.3789,-3.4238,-3.4258,-3.4766,-3.5195,-3.5547,-3.5566,-3.5957,-3.6758,-3.6738,-3.6914,-3.7402,-3.7637,-3.7988,-3.8535,-3.8574,-3.8574,-3.8574,-3.8574,-3.8574,-3.8574,-3.8574,-3.8711,-3.9004,-3.9453,-3.9902,-4.0469,-4.0918,-4.1152,-4.1172,-4.1172,-4.1172,-4.1172,-4.1172,-4.1172,-4.1172,-4.1172,-4.1113,-4.1055,-4.1055,-4.084,-3.9941,-3.9824,-3.9805,-3.9434,-3.9258,-3.9258,-3.9902,-4.0176,-4.0293,-4.0742,-4.1055,-4.1094,-4.1055,-4.1035,-4.1172,-4.1172,-4.1172,-4.1172,-4.1172,-4.1172,-4.1074,-4.0898,-4.0957,-4.1172,-4.1172,-4.1172,-4.1172,-4.1172,-4.1172,-4.1094,-2.5928,-2.7648,-2.885,-2.9457,-2.9828,-3.1539,-3.2187,-3.2285,-3.2617,-3.2559,-3.2363,-3.2988,-3.3125,-3.2773,-3.2812,-3.3027,-3.3379,-3.3418,-3.3418,-3.3418,-3.3418,-3.3418,-3.3418,-3.3418,-3.3418,-3.3418,-3.3418,-3.3418,-3.3418,-3.3418,-3.3418,-3.3418,-3.3418,-3.3418,-3.3398,-3.3437,-3.3418,-3.3398,-3.3476,-3.3457,-3.3476,-3.3809,-3.3809,-3.3555,-3.4219,-3.4668,-3.4766,-3.5488,-3.5957,-3.5996,-3.5957,-3.6367,-3.7109,-3.6914,-3.7109,-3.7754,-3.7578,-3.7734,-3.8457,-3.8574,-3.8574,-3.8574,-3.8574,-3.8574,-3.8574,-3.8574,-3.8594,-3.8633,-3.9043,-3.9609,-4.0312,-4.0742,-4.1074,-4.1113,-4.1152,-4.1133,-4.1172,-4.1172,-4.1172,-4.1172,-4.1172,-4.1016,-4.0664,-4.0918,-4.0508,-3.9746,-3.9629,-3.9844,-3.9726,-3.916,-3.9238,-3.9902,-3.9902,-3.9434,-3.9922,-4.0605,-4.0859,-4.0918,-4.1055,-4.1172,-4.1172,-4.1172,-4.1172,-4.1172,-4.1172,-4.1055,-4.0781,-4.082,-4.1074,-4.1172,-4.1172,-4.1172,-4.1172,-4.1172,-4.1035,-2.7963,-2.9415,-3.1071,-3.1656,-3.1818,-3.2603,-3.2969,-3.2988,-3.3125,-3.3105,-3.3027,-3.3301,-3.334,-3.3203,-3.3203,-3.3281,-3.3418,-3.3418,-3.3418,-3.3418,-3.3418,-3.3418,-3.3418,-3.3418,-3.3418,-3.3418,-3.3418,-3.3418,-3.3418,-3.3418,-3.3418,-3.3418,-3.3418,-3.3555,-3.3789,-3.3828,-3.3965,-3.4199,-3.4238,-3.4238,-3.4219,-3.4394,-3.4394,-3.4277,-3.4824,-3.5137,-3.5137,-3.5723,-3.6035,-3.6035,-3.6035,-3.6406,-3.7207,-3.7676,-3.8008,-3.8281,-3.8184,-3.8242,-3.8535,-3.8574,-3.8574,-3.8574,-3.8574,-3.8574,-3.8574,-3.8574,-3.8574,-3.8652,-3.8965,-3.9394,-3.9648,-4.0078,-4.0469,-4.0703,-4.0762,-4.0898,-4.1094,-4.1172,-4.1172,-4.1172,-4.1172,-4.0996,-4.0684,-4.0664,-4.0332,-3.9453,-3.9355,-3.959,-3.9707,-3.9141,-3.9082,-3.998,-3.9805,-3.9355,-3.9824,-4.0351,-4.0742,-4.0957,-4.1094,-4.1133,-4.1152,-4.1113,-4.1113,-4.1172,-4.1172,-4.1133,-4.0918,-4.0957,-4.1172,-4.1172,-4.1172,-4.1172,-4.1172,-4.1035,-4.082,-3.037,-3.1318,-3.2469,-3.3008,-3.3027,-3.3301,-3.3418,-3.3418,-3.3418,-3.3418,-3.3418,-3.3418,-3.3418,-3.3418,-3.3418,-3.3418,-3.3418,-3.3418,-3.3418,-3.3418,-3.3418,-3.3418,-3.3418,-3.3418,-3.3418,-3.3418,-3.3418,-3.3418,-3.3418,-3.3418,-3.3496,-3.3613,-3.3633,-3.3848,-3.4199,-3.4277,-3.4434,-3.4668,-3.4687,-3.4687,-3.4707,-3.4844,-3.4922,-3.498,-3.5351,-3.5527,-3.541,-3.5801,-3.6035,-3.6035,-3.6035,-3.6406,-3.7246,-3.7969,-3.8437,-3.8535,-3.8437,-3.8437,-3.8555,-3.8574,-3.8574,-3.8574,-3.8574,-3.8574,-3.8574,-3.8574,-3.8574,-3.8672,-3.8945,-3.9199,-3.9297,-3.9629,-4.0059,-4.0449,-4.0644,-4.084,-4.1113,-4.1172,-4.1172,-4.1172,-4.1172,-4.0976,-4.0625,-4.0547,-4.0176,-3.9512,-3.9434,-3.959,-3.9726,-3.9473,-3.9141,-3.9902,-3.9746,-3.9512,-3.9746,-4.0137,-4.0371,-4.0586,-4.0859,-4.0957,-4.0996,-4.0996,-4.1035,-4.1113,-4.1152,-4.1172,-4.1172,-4.1172,-4.1172,-4.1172,-4.1172,-4.1172,-4.1035,-4.082,-4.0586,-3.3292,-3.3253,-3.3418,-3.3379,-3.3379,-3.3398,-3.3418,-3.3418,-3.3418,-3.3418,-3.3418,-3.3418,-3.3418,-3.3418,-3.3418,-3.3418,-3.3418,-3.3418,-3.3418,-3.3418,-3.3418,-3.3418,-3.3418,-3.3418,-3.3418,-3.3418,-3.3418,-3.3418,-3.3418,-3.3476,-3.3672,-3.3984,-3.4062,-3.4297,-3.4707,-3.4707,-3.4726,-3.4805,-3.4844,-3.4785,-3.4766,-3.5176,-3.5391,-3.543,-3.5781,-3.5801,-3.5449,-3.5801,-3.6035,-3.6074,-3.6074,-3.6445,-3.7266,-3.7793,-3.8164,-3.8457,-3.8203,-3.8184,-3.8516,-3.8574,-3.8574,-3.8574,-3.8574,-3.8574,-3.8574,-3.8574,-3.8574,-3.8633,-3.8945,-3.9199,-3.9277,-3.9668,-4.0117,-4.0469,-4.0801,-4.1035,-4.1152,-4.1172,-4.1172,-4.1172,-4.1172,-4.0996,-4.0664,-4.0449,-4.0215,-3.9922,-3.9766,-3.9805,-3.9941,-3.9805,-3.9648,-3.9512,-3.959,-3.9726,-3.9766,-3.9863,-3.998,-4.0117,-4.0449,-4.0644,-4.0664,-4.0664,-4.0742,-4.084,-4.0957,-4.0976,-4.1172,-4.1172,-4.1172,-4.1172,-4.1172,-4.1172,-4.1035,-4.084,-4.041,-3.3418,-3.3418,-3.3418,-3.3418,-3.3418,-3.3418,-3.3418,-3.3418,-3.3418,-3.3418,-3.3418,-3.3418,-3.3418,-3.3418,-3.3418,-3.3418,-3.3418,-3.3418,-3.3418,-3.3418,-3.3418,-3.3418,-3.3418,-3.3418,-3.3418,-3.3418,-3.3418,-3.3418,-3.3476,-3.373,-3.3945,-3.4101,-3.4375,-3.4746,-3.5156,-3.5176,-3.5293,-3.5586,-3.5605,-3.5605,-3.5605,-3.5742,-3.582,-3.584,-3.5957,-3.5937,-3.584,-3.5957,-3.6152,-3.6445,-3.6465,-3.6855,-3.7617,-3.8125,-3.8418,-3.8535,-3.8457,-3.8398,-3.8535,-3.8574,-3.8574,-3.8574,-3.8574,-3.8574,-3.8574,-3.8574,-3.8574,-3.8613,-3.8945,-3.9199,-3.9316,-3.9902,-4.0351,-4.0508,-4.0644,-4.0898,-4.1133,-4.1172,-4.1172,-4.1172,-4.1172,-4.0976,-4.0586,-4.0351,-4.0117,-3.998,-3.9707,-3.9648,-4.0117,-4.0059,-3.9883,-3.9726,-3.9863,-3.9824,-3.9766,-3.9766,-3.9844,-3.9844,-4.0039,-4.0234,-4.0254,-4.0254,-4.0371,-4.0625,-4.0742,-4.0918,-4.1094,-4.1172,-4.1172,-4.1172,-4.1172,-4.1152,-4.1133,-4.0801,-4.0293,-3.3418,-3.3418,-3.3418,-3.3418,-3.3418,-3.3418,-3.3418,-3.3418,-3.3418,-3.3418,-3.3418,-3.3418,-3.3418,-3.3418,-3.3418,-3.3418,-3.3418,-3.3418,-3.3418,-3.3418,-3.3418,-3.3418,-3.3418,-3.3418,-3.3418,-3.3457,-3.3594,-3.3672,-3.3691,-3.4082,-3.4394,-3.459,-3.4824,-3.5176,-3.5586,-3.5625,-3.5781,-3.5996,-3.6016,-3.6035,-3.6035,-3.6035,-3.6035,-3.6016,-3.6035,-3.6094,-3.623,-3.6269,-3.6387,-3.668,-3.6953,-3.7402,-3.791,-3.832,-3.8574,-3.8574,-3.8574,-3.8574,-3.8574,-3.8574,-3.8574,-3.8574,-3.8574,-3.8574,-3.8574,-3.8574,-3.8574,-3.8633,-3.8945,-3.9258,-3.9531,-4.0078,-4.0547,-4.0762,-4.0801,-4.0879,-4.1133,-4.1172,-4.1172,-4.1172,-4.1172,-4.1035,-4.0781,-4.041,-4.0234,-4.0254,-3.998,-3.9668,-4.0195,-4.0195,-4.0039,-3.9883,-3.9805,-3.9726,-3.9648,-3.9668,-3.9707,-3.9668,-3.9629,-3.9746,-3.9805,-3.9746,-3.9785,-4.0449,-4.0742,-4.0976,-4.1152,-4.1172,-4.1172,-4.1172,-4.1152,-4.1055,-4.0937,-4.0527,-4.0059,-3.3418,-3.3418,-3.3418,-3.3418,-3.3418,-3.3418,-3.3418,-3.3418,-3.3418,-3.3418,-3.3418,-3.3418,-3.3418,-3.3418,-3.3418,-3.3418,-3.3418,-3.3418,-3.3418,-3.3418,-3.3418,-3.3418,-3.3418,-3.3496,-3.3535,-3.3574,-3.3926,-3.4082,-3.4121,-3.4531,-3.4941,-3.5254,-3.5371,-3.5605,-3.5918,-3.6016,-3.6055,-3.6016,-3.6074,-3.6094,-3.6035,-3.6035,-3.6035,-3.6035,-3.6035,-3.6211,-3.6543,-3.6719,-3.6777,-3.6855,-3.7519,-3.793,-3.8047,-3.8359,-3.8574,-3.8574,-3.8574,-3.8574,-3.8574,-3.8574,-3.8574,-3.8574,-3.8574,-3.8574,-3.8574,-3.8574,-3.8574,-3.8594,-3.8965,-3.9375,-3.9805,-4.0254,-4.0684,-4.1074,-4.1035,-4.1055,-4.1152,-4.1133,-4.1094,-4.1152,-4.1172,-4.1152,-4.1094,-4.0742,-4.0723,-4.0879,-4.0664,-4.0332,-4.0215,-4.0234,-4.0059,-3.9941,-3.9844,-3.9805,-3.9766,-3.9512,-3.9531,-3.9414,-3.9336,-3.9316,-3.9434,-3.9414,-3.9512,-4.0156,-4.0664,-4.0937,-4.1113,-4.1094,-4.1133,-4.1172,-4.1074,-4.0918,-4.0644,-4.0293,-3.9883,-3.3418,-3.3418,-3.3418,-3.3418,-3.3418,-3.3418,-3.3418,-3.3418,-3.3418,-3.3418,-3.3418,-3.3418,-3.3437,-3.3418,-3.3418,-3.3418,-3.3418,-3.3418,-3.3418,-3.3418,-3.3418,-3.3418,-3.3496,-3.375,-3.3887,-3.3965,-3.4316,-3.4531,-3.457,-3.5,-3.5273,-3.541,-3.5703,-3.5879,-3.6035,-3.6328,-3.6309,-3.6113,-3.6367,-3.6328,-3.6074,-3.6035,-3.6035,-3.6035,-3.6035,-3.6269,-3.6699,-3.7285,-3.7598,-3.7637,-3.8086,-3.8398,-3.8398,-3.8516,-3.8574,-3.8574,-3.8574,-3.8574,-3.8574,-3.8574,-3.8574,-3.8574,-3.8574,-3.8574,-3.8574,-3.8574,-3.8574,-3.8652,-3.8965,-3.9375,-3.9844,-4.0293,-4.0703,-4.1035,-4.0918,-4.0859,-4.1055,-4.0898,-4.0801,-4.1094,-4.1172,-4.1172,-4.1094,-4.0879,-4.0723,-4.0976,-4.084,-4.0469,-4.0351,-4.0527,-4.0469,-4.0156,-4.0019,-3.998,-3.9863,-3.9531,-3.9316,-3.918,-3.9062,-3.8945,-3.9121,-3.9258,-3.9492,-3.9941,-4.0293,-4.0566,-4.0801,-4.0918,-4.1016,-4.1016,-4.0664,-4.0371,-4.041,-4.0195,-3.9746,-3.3418,-3.3418,-3.3418,-3.3418,-3.3418,-3.3418,-3.3418,-3.3418,-3.3418,-3.3418,-3.3457,-3.3633,-3.3594,-3.3457,-3.3613,-3.3574,-3.3437,-3.3418,-3.3418,-3.3418,-3.3418,-3.3516,-3.3711,-3.3984,-3.416,-3.4394,-3.4785,-3.4961,-3.5059,-3.5449,-3.5625,-3.5703,-3.5898,-3.6016,-3.6055,-3.6426,-3.6562,-3.6406,-3.6699,-3.6719,-3.6328,-3.6289,-3.6172,-3.6133,-3.6191,-3.6562,-3.7187,-3.7851,-3.8125,-3.8047,-3.832,-3.8574,-3.8574,-3.8574,-3.8574,-3.8574,-3.8574,-3.8574,-3.8574,-3.8574,-3.8574,-3.8574,-3.8574,-3.8574,-3.8574,-3.8574,-3.8574,-3.8613,-3.8828,-3.9238,-3.9844,-4.043,-4.0859,-4.1074,-4.0781,-4.0723,-4.1133,-4.0976,-4.0937,-4.1094,-4.1172,-4.1172,-4.1172,-4.0918,-4.0957,-4.1074,-4.0996,-4.0625,-4.0351,-4.0684,-4.0762,-4.0332,-3.998,-3.9863,-3.9726,-3.9434,-3.9082,-3.8926,-3.8887,-3.875,-3.8926,-3.9141,-3.9336,-3.9629,-3.9922,-4.0195,-4.041,-4.0586,-4.0586,-4.0449,-4.0078,-3.9902,-3.9922,-3.9902,-3.9473,-3.3476,-3.3496,-3.3437,-3.3418,-3.3418,-3.3418,-3.3418,-3.3418,-3.3496,-3.3516,-3.3613,-3.3965,-3.3945,-3.3574,-3.4004,-3.3926,-3.3594,-3.3594,-3.3476,-3.3437,-3.3457,-3.3633,-3.4121,-3.418,-3.4434,-3.4805,-3.5234,-3.543,-3.5527,-3.584,-3.5996,-3.5976,-3.5996,-3.6074,-3.623,-3.6562,-3.6719,-3.6816,-3.7148,-3.7129,-3.6816,-3.6719,-3.6582,-3.6426,-3.6699,-3.7148,-3.7754,-3.8262,-3.8398,-3.8008,-3.8379,-3.8555,-3.8574,-3.8574,-3.8574,-3.8574,-3.8574,-3.8574,-3.8574,-3.8574,-3.8633,-3.8672,-3.8633,-3.8613,-3.8672,-3.8711,-3.8711,-3.8711,-3.8691,-3.9258,-3.9922,-4.0703,-4.1074,-4.1133,-4.082,-4.082,-4.1035,-4.1133,-4.1113,-4.1172,-4.1172,-4.1172,-4.1172,-4.1172,-4.1172,-4.1133,-4.1035,-4.0781,-4.0547,-4.0684,-4.0605,-4.0234,-3.9922,-3.9668,-3.9492,-3.9297,-3.8945,-3.8691,-3.8691,-3.8672,-3.8887,-3.9043,-3.916,-3.9375,-3.9766,-3.9941,-4.0019,-4.0117,-4.0117,-4.0019,-3.9726,-3.9512,-3.9355,-3.9297,-3.9023,-3.3926,-3.3906,-3.3555,-3.3418,-3.3418,-3.3418,-3.3437,-3.3476,-3.3809,-3.3926,-3.4023,-3.4375,-3.4492,-3.4394,-3.4492,-3.4492,-3.4316,-3.4043,-3.3769,-3.3418,-3.3418,-3.3887,-3.4414,-3.457,-3.4824,-3.5254,-3.5684,-3.5859,-3.5918,-3.5937,-3.6035,-3.6035,-3.6055,-3.6191,-3.6523,-3.6875,-3.7168,-3.7226,-3.7578,-3.7559,-3.7246,-3.7168,-3.7109,-3.7031,-3.7383,-3.7676,-3.793,-3.834,-3.8516,-3.8476,-3.8516,-3.8574,-3.8574,-3.8574,-3.8574,-3.8574,-3.8574,-3.8574,-3.8574,-3.8594,-3.8711,-3.8926,-3.873,-3.873,-3.9043,-3.9023,-3.9043,-3.9121,-3.9394,-3.9726,-4.0293,-4.084,-4.1113,-4.1133,-4.1074,-4.1035,-4.1094,-4.0898,-4.0898,-4.1074,-4.1172,-4.1172,-4.1172,-4.1172,-4.1172,-4.1172,-4.1074,-4.0898,-4.082,-4.0742,-4.0566,-4.0312,-4.0176,-3.998,-3.9824,-3.9551,-3.9043,-3.8711,-3.8633,-3.8613,-3.8809,-3.9043,-3.916,-3.9375,-3.9648,-3.9726,-3.9707,-3.959,-3.959,-3.9492,-3.9394,-3.9199,-3.9004,-3.8848,-3.8789,-3.418,-3.4336,-3.4121,-3.4023,-3.4023,-3.4023,-3.4023,-3.4062,-3.4258,-3.4375,-3.4453,-3.4824,-3.4902,-3.4726,-3.4902,-3.4922,-3.4629,-3.4277,-3.4082,-3.3965,-3.3906,-3.4219,-3.4883,-3.5059,-3.5254,-3.5664,-3.5898,-3.6016,-3.6035,-3.6035,-3.6035,-3.6035,-3.6035,-3.625,-3.668,-3.709,-3.7383,-3.7637,-3.8008,-3.8027,-3.7656,-3.7598,-3.7598,-3.7598,-3.7812,-3.7988,-3.8262,-3.8437,-3.8555,-3.8574,-3.8574,-3.8574,-3.8574,-3.8574,-3.8574,-3.8574,-3.8574,-3.8574,-3.8574,-3.8594,-3.8672,-3.8887,-3.8691,-3.873,-3.8848,-3.8906,-3.8906,-3.9004,-3.9316,-3.9805,-4.0449,-4.0918,-4.1133,-4.1172,-4.1172,-4.1172,-4.1133,-4.0957,-4.0898,-4.1113,-4.1172,-4.1172,-4.1172,-4.1172,-4.1172,-4.1172,-4.1152,-4.0996,-4.0801,-4.0742,-4.0742,-4.0586,-4.0508,-4.0391,-4.0234,-3.9844,-3.9219,-3.8906,-3.873,-3.8672,-3.8711,-3.8945,-3.9199,-3.9355,-3.9473,-3.9375,-3.9316,-3.9199,-3.9101,-3.9004,-3.8926,-3.8809,-3.875,-3.8711,-3.8672,-3.4473,-3.4805,-3.4726,-3.4687,-3.4687,-3.4668,-3.4648,-3.4668,-3.4785,-3.4805,-3.4883,-3.5293,-3.5293,-3.5078,-3.5332,-3.5215,-3.4844,-3.4551,-3.4492,-3.4512,-3.4297,-3.4629,-3.5176,-3.5371,-3.5547,-3.5976,-3.6016,-3.6035,-3.6035,-3.6035,-3.6035,-3.6035,-3.6035,-3.6328,-3.6758,-3.7109,-3.7539,-3.8008,-3.832,-3.8379,-3.8086,-3.8027,-3.8027,-3.8047,-3.8066,-3.8223,-3.8457,-3.8555,-3.8574,-3.8574,-3.8574,-3.8574,-3.8574,-3.8574,-3.8574,-3.8574,-3.8574,-3.8574,-3.8574,-3.8594,-3.8613,-3.8633,-3.8594,-3.8633,-3.8691,-3.8789,-3.8809,-3.8945,-3.9277,-3.9902,-4.0527,-4.0937,-4.1152,-4.1172,-4.1172,-4.1172,-4.1172,-4.1172,-4.1152,-4.1152,-4.1172,-4.1172,-4.1172,-4.1172,-4.1172,-4.1172,-4.1152,-4.1094,-4.0898,-4.0762,-4.0801,-4.0801,-4.0723,-4.0391,-4.0215,-4.0019,-3.9394,-3.8984,-3.8789,-3.8809,-3.8769,-3.9004,-3.9219,-3.918,-3.9199,-3.9141,-3.9043,-3.8945,-3.8809,-3.8613,-3.8594,-3.8652,-3.8633,-3.8594,-3.8574,-3.5215,-3.5254,-3.4863,-3.4707,-3.4707,-3.4707,-3.4746,-3.4766,-3.5137,-3.5273,-3.5332,-3.5703,-3.584,-3.5801,-3.584,-3.5664,-3.5293,-3.5078,-3.4961,-3.4824,-3.4668,-3.4941,-3.5351,-3.5488,-3.5664,-3.5918,-3.6035,-3.6035,-3.6035,-3.6035,-3.6035,-3.6035,-3.6035,-3.6387,-3.6973,-3.7324,-3.7695,-3.8281,-3.8516,-3.8476,-3.8437,-3.8398,-3.8398,-3.8398,-3.8398,-3.8496,-3.8555,-3.8594,-3.8574,-3.8574,-3.8574,-3.8574,-3.8574,-3.8574,-3.8574,-3.8594,-3.8633,-3.8652,-3.8594,-3.8594,-3.8769,-3.8926,-3.8809,-3.8789,-3.8945,-3.9101,-3.9141,-3.9336,-3.9805,-4.0469,-4.0996,-4.1113,-4.1152,-4.1172,-4.1172,-4.1172,-4.1172,-4.1172,-4.1172,-4.1172,-4.1172,-4.1172,-4.1172,-4.1172,-4.1172,-4.1172,-4.1172,-4.1152,-4.1055,-4.0957,-4.0918,-4.0918,-4.0879,-4.0488,-4.0098,-3.9922,-3.9551,-3.9023,-3.8848,-3.9043,-3.9043,-3.916,-3.9238,-3.916,-3.9082,-3.9043,-3.8926,-3.875,-3.8672,-3.8594,-3.8574,-3.8574,-3.8574,-3.8574,-3.8574,-3.5293,-3.5684,-3.5469,-3.5391,-3.5391,-3.5371,-3.5391,-3.541,-3.5625,-3.5723,-3.5781,-3.5937,-3.6035,-3.6035,-3.6035,-3.5898,-3.5723,-3.5469,-3.5391,-3.5293,-3.5195,-3.5293,-3.5664,-3.5703,-3.582,-3.5976,-3.6035,-3.6035,-3.6035,-3.6035,-3.6035,-3.6035,-3.6035,-3.6465,-3.7109,-3.7305,-3.7793,-3.8379,-3.8574,-3.8574,-3.8574,-3.8574,-3.8574,-3.8574,-3.8613,-3.8691,-3.8848,-3.8633,-3.8691,-3.8809,-3.8691,-3.8613,-3.8594,-3.8613,-3.8594,-3.8633,-3.8769,-3.8789,-3.8691,-3.873,-3.8926,-3.8848,-3.8848,-3.8848,-3.9023,-3.9238,-3.959,-3.9922,-4.0117,-4.0703,-4.1113,-4.1172,-4.1172,-4.1172,-4.1172,-4.1172,-4.1172,-4.1172,-4.1172,-4.1172,-4.1172,-4.1172,-4.1172,-4.1172,-4.1172,-4.1172,-4.1172,-4.1172,-4.1172,-4.1113,-4.1016,-4.0723,-4.0625,-4.0254,-3.9863,-3.9707,-3.9551,-3.9101,-3.8828,-3.9023,-3.9101,-3.9101,-3.9121,-3.9082,-3.9023,-3.9043,-3.8828,-3.8672,-3.8613,-3.8594,-3.8574,-3.8594,-3.8574,-3.8574,-3.8574,-3.5254,-3.5898,-3.5976,-3.6035,-3.6035,-3.6016,-3.5996,-3.6035,-3.5996,-3.5996,-3.6035,-3.6035,-3.6035,-3.6035,-3.6035,-3.6016,-3.5996,-3.5644,-3.5723,-3.582,-3.5664,-3.5723,-3.5918,-3.6035,-3.6016,-3.5996,-3.6035,-3.6035,-3.6035,-3.6035,-3.6035,-3.6035,-3.6035,-3.6445,-3.7129,-3.7305,-3.7851,-3.832,-3.8574,-3.8574,-3.8574,-3.8574,-3.8633,-3.8691,-3.8691,-3.8906,-3.9258,-3.9101,-3.9004,-3.9082,-3.9004,-3.8848,-3.875,-3.8789,-3.8828,-3.8867,-3.9082,-3.9004,-3.9043,-3.9121,-3.9199,-3.8906,-3.9141,-3.9062,-3.9023,-3.9434,-4.0,-4.041,-4.0527,-4.0703,-4.1074,-4.1172,-4.1172,-4.1172,-4.1172,-4.1172,-4.1172,-4.1172,-4.1172,-4.1172,-4.1172,-4.1172,-4.1172,-4.1172,-4.1172,-4.1172,-4.1172,-4.1172,-4.1172,-4.1172,-4.0996,-4.0527,-4.0234,-3.9902,-3.9609,-3.9434,-3.9316,-3.9082,-3.8828,-3.8828,-3.8887,-3.8906,-3.8984,-3.9141,-3.9121,-3.9101,-3.8848,-3.873,-3.8809,-3.8809,-3.8672,-3.8594,-3.8574,-3.8574,-3.8574,-3.5371,-3.5508,-3.5879,-3.6035,-3.6035,-3.6035,-3.6035,-3.6035,-3.6035,-3.6035,-3.6035,-3.6035,-3.6035,-3.6035,-3.6035,-3.6035,-3.5996,-3.5957,-3.5918,-3.5996,-3.5937,-3.5918,-3.6016,-3.6035,-3.6035,-3.6035,-3.6035,-3.6035,-3.6035,-3.6035,-3.6035,-3.6035,-3.6133,-3.6445,-3.7207,-3.7363,-3.7734,-3.8418,-3.8574,-3.8574,-3.8574,-3.8574,-3.875,-3.8965,-3.9101,-3.9277,-3.9648,-3.959,-3.957,-3.9316,-3.959,-3.9492,-3.9277,-3.9531,-3.9687,-3.9629,-3.9492,-3.9355,-3.959,-3.9746,-3.9609,-3.9316,-3.9551,-3.9512,-3.9531,-3.9629,-4.0137,-4.0469,-4.0547,-4.0742,-4.1074,-4.1172,-4.1172,-4.1172,-4.1172,-4.1172,-4.1172,-4.1172,-4.1172,-4.1172,-4.1172,-4.1172,-4.1172,-4.1172,-4.1172,-4.1172,-4.1172,-4.1172,-4.1074,-4.1016,-4.0879,-4.0391,-3.9766,-3.9414,-3.9297,-3.9141,-3.9141,-3.9004,-3.8848,-3.8711,-3.8848,-3.8984,-3.918,-3.9297,-3.9297,-3.9434,-3.9492,-3.9414,-3.9219,-3.8945,-3.8711,-3.8613,-3.8574,-3.8574,-3.8574,-3.5527,-3.5762,-3.5937,-3.6035,-3.6035,-3.6035,-3.6035,-3.6035,-3.6035,-3.6035,-3.6035,-3.6035,-3.6035,-3.6035,-3.6035,-3.6035,-3.6035,-3.6035,-3.6035,-3.6035,-3.6035,-3.6035,-3.6035,-3.6035,-3.6035,-3.6035,-3.6035,-3.6035,-3.6035,-3.6035,-3.6035,-3.6055,-3.6269,-3.668,-3.7285,-3.7539,-3.7988,-3.8418,-3.8574,-3.8574,-3.8574,-3.8594,-3.8672,-3.8867,-3.9082,-3.9453,-3.9785,-3.9883,-3.9961,-3.9844,-4.0,-3.9805,-3.9668,-3.9805,-3.9961,-4.0234,-4.0078,-3.9961,-3.9922,-4.0117,-3.9961,-3.9824,-3.998,-4.0254,-4.0254,-4.0254,-4.043,-4.0859,-4.0898,-4.0996,-4.1113,-4.1172,-4.1172,-4.1172,-4.1172,-4.1172,-4.1172,-4.1172,-4.1172,-4.1172,-4.1172,-4.1172,-4.1172,-4.1172,-4.1172,-4.1172,-4.1172,-4.1172,-4.0918,-4.0586,-4.043,-4.0176,-3.9512,-3.8887,-3.8848,-3.8809,-3.9004,-3.8945,-3.8809,-3.875,-3.8945,-3.9121,-3.9336,-3.9531,-3.9629,-3.9824,-4.0078,-3.9746,-3.9258,-3.8965,-3.8711,-3.8633,-3.8574,-3.8574,-3.8574,-3.5723,-3.6016,-3.6035,-3.6035,-3.6035,-3.6035,-3.6035,-3.6035,-3.6035,-3.6035,-3.6035,-3.6035,-3.6035,-3.6035,-3.6035,-3.6035,-3.6035,-3.6035,-3.6035,-3.6035,-3.6035,-3.6035,-3.6035,-3.6035,-3.6035,-3.6035,-3.6035,-3.6035,-3.6035,-3.6035,-3.6035,-3.6055,-3.6426,-3.6855,-3.7285,-3.7676,-3.8125,-3.8516,-3.8574,-3.8574,-3.8574,-3.8574,-3.8652,-3.8848,-3.916,-3.959,-3.998,-4.0215,-4.043,-4.0332,-4.0391,-4.0254,-4.0098,-4.0234,-4.043,-4.0644,-4.0625,-4.0527,-4.0469,-4.0508,-4.041,-4.0312,-4.0312,-4.0605,-4.0976,-4.084,-4.0762,-4.1094,-4.1113,-4.1133,-4.1172,-4.1172,-4.1172,-4.1172,-4.1172,-4.1172,-4.1172,-4.1172,-4.1172,-4.1172,-4.1172,-4.1172,-4.1172,-4.1172,-4.1172,-4.1172,-4.1172,-4.1172,-4.0879,-4.0488,-4.0215,-4.0059,-3.9531,-3.8887,-3.8652,-3.8672,-3.8848,-3.8906,-3.8769,-3.873,-3.8887,-3.918,-3.9453,-3.9668,-3.9863,-3.9941,-4.0019,-3.9629,-3.9258,-3.9043,-3.8828,-3.8652,-3.8574,-3.8574,-3.8574,-3.5996,-3.6035,-3.6035,-3.6035,-3.6035,-3.6035,-3.6035,-3.6035,-3.6035,-3.6035,-3.6035,-3.6035,-3.6035,-3.6035,-3.6035,-3.6035,-3.6035,-3.6035,-3.6035,-3.6035,-3.6035,-3.6035,-3.6035,-3.6035,-3.6035,-3.6035,-3.6035,-3.6035,-3.6035,-3.6035,-3.6035,-3.6094,-3.6582,-3.6914,-3.7324,-3.7773,-3.8184,-3.8516,-3.8574,-3.8574,-3.8574,-3.8613,-3.875,-3.9141,-3.957,-4.0039,-4.0449,-4.0742,-4.084,-4.0625,-4.0781,-4.0781,-4.0586,-4.0742,-4.0937,-4.0976,-4.1016,-4.0957,-4.0937,-4.0918,-4.084,-4.0625,-4.0586,-4.0781,-4.1113,-4.1152,-4.1152,-4.1152,-4.1172,-4.1172,-4.1172,-4.1172,-4.1172,-4.1172,-4.1172,-4.1172,-4.1172,-4.1172,-4.1172,-4.1172,-4.1172,-4.1172,-4.1172,-4.1172,-4.1172,-4.1172,-4.1172,-4.1172,-4.1035,-4.0684,-4.0293,-3.998,-3.957,-3.9082,-3.8652,-3.8691,-3.8828,-3.8906,-3.8867,-3.8769,-3.8769,-3.9101,-3.9609,-3.9726,-3.9902,-3.9922,-3.9902,-3.957,-3.9316,-3.9141,-3.8945,-3.8691,-3.8574,-3.8574,-3.8574,-3.6035,-3.6035,-3.6035,-3.6035,-3.6035,-3.6035,-3.6035,-3.6035,-3.6035,-3.6035,-3.6035,-3.6035,-3.6035,-3.6035,-3.6035,-3.6035,-3.6035,-3.6035,-3.6035,-3.6035,-3.6035,-3.6035,-3.6035,-3.6035,-3.6035,-3.6035,-3.6035,-3.6035,-3.6035,-3.6055,-3.625,-3.6465,-3.6836,-3.707,-3.7441,-3.793,-3.8359,-3.8496,-3.8574,-3.8574,-3.8574,-3.8594,-3.8769,-3.9199,-3.9648,-4.0098,-4.0508,-4.0937,-4.0996,-4.0996,-4.1094,-4.1016,-4.0918,-4.1094,-4.1152,-4.1172,-4.1172,-4.1172,-4.1016,-4.1172,-4.1074,-4.1016,-4.0937,-4.0996,-4.1172,-4.1172,-4.1172,-4.1172,-4.1172,-4.1172,-4.1172,-4.1172,-4.1172,-4.1172,-4.1172,-4.1172,-4.1172,-4.1172,-4.1172,-4.1172,-4.1172,-4.1172,-4.1172,-4.1172,-4.1172,-4.1172,-4.1172,-4.1152,-4.1035,-4.0801,-4.0371,-4.0,-3.959,-3.9141,-3.8711,-3.873,-3.8828,-3.8867,-3.8906,-3.8867,-3.8867,-3.9394,-3.9805,-3.9883,-3.9805,-3.9746,-3.9648,-3.9512,-3.9277,-3.8965,-3.8789,-3.8633,-3.8574,-3.8574,-3.8574,-3.6035,-3.6035,-3.6035,-3.6035,-3.6035,-3.6035,-3.6035,-3.6035,-3.6035,-3.6035,-3.6035,-3.6035,-3.6035,-3.6035,-3.6035,-3.6035,-3.6035,-3.6035,-3.6035,-3.6035,-3.6035,-3.6035,-3.6035,-3.6035,-3.6035,-3.6035,-3.6035,-3.6035,-3.6035,-3.6152,-3.6367,-3.6719,-3.7187,-3.7441,-3.7676,-3.8144,-3.8574,-3.8574,-3.8574,-3.8574,-3.8574,-3.8594,-3.8769,-3.9199,-3.9648,-4.0098,-4.0508,-4.0918,-4.1133,-4.1133,-4.1152,-4.1172,-4.1152,-4.1172,-4.1172,-4.1172,-4.1172,-4.0997,-4.0509,-4.0841,-4.1172,-4.1113,-4.1133,-4.1133,-4.1172,-4.1172,-4.1172,-4.1172,-4.1172,-4.1172,-4.1172,-4.1172,-4.1172,-4.1172,-4.1172,-4.1172,-4.1172,-4.1172,-4.1172,-4.1172,-4.1172,-4.1172,-4.1172,-4.1172,-4.1172,-4.1172,-4.1172,-4.1152,-4.1094,-4.0801,-4.0371,-4.0019,-3.9668,-3.918,-3.873,-3.875,-3.875,-3.8789,-3.8848,-3.8945,-3.9101,-3.959,-3.9726,-3.959,-3.9512,-3.9492,-3.9355,-3.9199,-3.8945,-3.8672,-3.8594,-3.8574,-3.8574,-3.8574,-3.8574,-3.6035,-3.6035,-3.6035,-3.6035,-3.6035,-3.6035,-3.6035,-3.6035,-3.6035,-3.6035,-3.6035,-3.6035,-3.6035,-3.6035,-3.6035,-3.6035,-3.6035,-3.6035,-3.6035,-3.6035,-3.6035,-3.6035,-3.6035,-3.6035,-3.6035,-3.6035,-3.6035,-3.6035,-3.6035,-3.6759,-3.6996,-3.6953,-3.75,-3.791,-3.7969,-3.834,-3.8574,-3.8574,-3.8574,-3.8574,-3.8574,-3.8574,-3.8809,-3.9199,-3.9551,-3.9961,-4.0508,-4.084,-4.1055,-4.1152,-4.1172,-4.1172,-4.1172,-4.1172,-4.1016,-4.0841,-4.0841,-4.0021,-3.8548,-4.0197,-4.0841,-4.1172,-4.1172,-4.1172,-4.1172,-4.1172,-4.1172,-4.1172,-4.1172,-4.1172,-4.1172,-4.1172,-4.1172,-4.1172,-4.1172,-4.1172,-4.1172,-4.1172,-4.1172,-4.1172,-4.1172,-4.1172,-4.1172,-4.1172,-4.1172,-4.1172,-4.1172,-4.1152,-4.1113,-4.0918,-4.0527,-4.0215,-3.9902,-3.9414,-3.9004,-3.875,-3.8672,-3.8711,-3.8809,-3.8965,-3.918,-3.9531,-3.9531,-3.9336,-3.9258,-3.9277,-3.9062,-3.8848,-3.8555,-3.832,-3.8535,-3.8574,-3.8574,-3.8574,-3.8574,-3.6035,-3.6035,-3.6035,-3.6035,-3.6035,-3.6035,-3.6035,-3.6035,-3.6035,-3.6035,-3.6035,-3.6035,-3.6035,-3.6035,-3.6035,-3.6035,-3.6035,-3.6035,-3.6035,-3.6035,-3.6035,-3.6035,-3.6035,-3.6035,-3.6035,-3.6035,-3.6035,-3.6035,-3.6035,-3.7425,-3.7648,-3.7608,-3.7994,-3.8301,-3.8379,-3.8535,-3.8574,-3.8574,-3.8574,-3.8574,-3.8574,-3.8594,-3.8769,-3.918,-3.9394,-3.9805,-4.0449,-4.0742,-4.0898,-4.1113,-4.1172,-4.1172,-4.1172,-4.1172,-4.0353,-3.9531,-3.904,-3.8724,-3.8073,-3.8882,-3.9707,-4.0509,-4.1172,-4.1172,-4.1172,-4.1172,-4.1172,-4.1172,-4.1172,-4.1172,-4.1172,-4.1172,-4.1172,-4.1172,-4.1172,-4.1172,-4.1172,-4.1172,-4.1172,-4.1172,-4.1172,-4.1172,-4.1172,-4.1172,-4.1172,-4.1172,-4.1172,-4.1172,-4.1152,-4.1094,-4.084,-4.0547,-4.0215,-3.9707,-3.9297,-3.8887,-3.8652,-3.8633,-3.8848,-3.9101,-3.9336,-3.9434,-3.9394,-3.9219,-3.9141,-3.9043,-3.8652,-3.832,-3.8105,-3.8008,-3.8203,-3.8476,-3.8574,-3.8574,-3.8574,-3.6035,-3.6035,-3.6035,-3.6035,-3.6035,-3.6035,-3.6035,-3.6035,-3.6035,-3.6035,-3.6035,-3.6035,-3.6035,-3.6035,-3.6035,-3.6035,-3.6035,-3.6035,-3.6035,-3.6035,-3.6035,-3.6035,-3.6035,-3.6035,-3.6035,-3.6035,-3.6035,-3.6035,-3.6191,-3.8459,-3.9213,-3.901,-3.855,-3.8622,-3.8555,-3.8574,-3.8574,-3.8574,-3.8574,-3.8574,-3.8574,-3.8633,-3.8789,-3.9082,-3.9336,-3.9609,-4.0254,-4.0586,-4.0703,-4.1016,-4.1172,-4.1172,-4.1172,-4.0353,-3.9531,-3.8231,-3.6264,-3.6602,-3.7419,-3.6922,-3.8231,-4.0841,-4.1172,-4.1172,-4.1172,-4.1172,-4.1172,-4.1172,-4.1172,-4.1172,-4.1172,-4.1172,-4.1172,-4.1172,-4.1172,-4.1172,-4.1172,-4.1172,-4.1172,-4.1172,-4.1172,-4.1172,-4.1172,-4.1172,-4.1172,-4.1172,-4.1172,-4.1172,-4.1113,-4.0957,-4.084,-4.0547,-4.0059,-3.9414,-3.9062,-3.8906,-3.8691,-3.8594,-3.8789,-3.9023,-3.9004,-3.9023,-3.9062,-3.9082,-3.8906,-3.8633,-3.8125,-3.7773,-3.7617,-3.7637,-3.7812,-3.8125,-3.8476,-3.8555,-3.8516,-3.6035,-3.6035,-3.6035,-3.6035,-3.6035,-3.6035,-3.6035,-3.6035,-3.6035,-3.6035,-3.6035,-3.6035,-3.6035,-3.6035,-3.6035,-3.6035,-3.6035,-3.6035,-3.6035,-3.6035,-3.6035,-3.6035,-3.6035,-3.6035,-3.6035,-3.6035,-3.6035,-3.6035,-3.623,-3.8118,-3.9626,-4.0327,-3.9181,-3.8865,-3.8574,-3.8574,-3.8574,-3.8574,-3.8574,-3.8574,-3.8574,-3.8594,-3.875,-3.8965,-3.9141,-3.9512,-4.0019,-4.0371,-4.0664,-4.0937,-4.1152,-4.1172,-4.0509,-3.904,-3.8213,-3.6585,-3.3512,-3.4813,-3.6442,-3.5782,-3.7737,-4.0509,-4.1172,-4.1172,-4.1172,-4.1172,-4.1172,-4.1172,-4.1172,-4.1172,-4.1172,-4.1172,-4.1172,-4.1172,-4.1172,-4.1172,-4.1172,-4.1172,-4.1172,-4.1172,-4.1172,-4.1172,-4.1172,-4.1172,-4.1172,-4.1172,-4.1172,-4.1172,-4.1035,-4.0547,-4.041,-4.0234,-3.9687,-3.8945,-3.8711,-3.8789,-3.8691,-3.8574,-3.8574,-3.875,-3.8691,-3.8691,-3.8769,-3.8769,-3.8594,-3.8223,-3.7637,-3.7324,-3.7207,-3.7285,-3.7383,-3.7793,-3.8164,-3.8359,-3.8398,-3.6035,-3.6035,-3.6035,-3.6035,-3.6035,-3.6035,-3.6035,-3.6035,-3.6035,-3.6035,-3.6035,-3.6035,-3.6035,-3.6035,-3.6035,-3.6035,-3.6035,-3.6035,-3.6035,-3.6035,-3.6035,-3.6035,-3.6035,-3.6035,-3.6035,-3.6035,-3.6035,-3.6035,-3.6191,-3.7806,-3.947,-4.0634,-3.9326,-3.8806,-3.8535,-3.8574,-3.8574,-3.8574,-3.8574,-3.8574,-3.8574,-3.8574,-3.8711,-3.8769,-3.8809,-3.9199,-3.957,-3.9961,-4.0273,-4.0664,-4.1016,-4.1152,-4.1016,-3.904,-3.7241,-3.3512,-3.2217,-3.2694,-3.5137,-3.6442,-3.8231,-4.0353,-4.1172,-4.1172,-4.1172,-4.1172,-4.1172,-4.1172,-4.1172,-4.1172,-4.1172,-4.1172,-4.1172,-4.1172,-4.1172,-4.1172,-4.1172,-4.1172,-4.1172,-4.1172,-4.1172,-4.1172,-4.1172,-4.1172,-4.1172,-4.1172,-4.1152,-4.1152,-4.0937,-4.0449,-4.0176,-4.0019,-3.9492,-3.8828,-3.8769,-3.8848,-3.8691,-3.8574,-3.8574,-3.8574,-3.8613,-3.8613,-3.8594,-3.8437,-3.8203,-3.7695,-3.707,-3.6855,-3.6719,-3.6797,-3.6934,-3.7383,-3.7793,-3.7969,-3.8223,-3.6035,-3.6035,-3.6035,-3.6035,-3.6035,-3.6035,-3.6035,-3.6035,-3.6035,-3.6035,-3.6035,-3.6035,-3.6035,-3.6035,-3.6035,-3.6035,-3.6035,-3.6035,-3.6035,-3.6035,-3.6035,-3.6035,-3.6035,-3.6035,-3.6035,-3.6035,-3.6035,-3.6035,-3.623,-3.6799,-3.8387,-4.0417,-3.9149,-3.859,-3.834,-3.8457,-3.8574,-3.8574,-3.8574,-3.8574,-3.8574,-3.8574,-3.8574,-3.8428,-3.8428,-3.8809,-3.9141,-3.9531,-3.9902,-4.041,-4.084,-4.1016,-4.0432,-3.839,-3.546,-3.2217,-3.1557,-3.3349,-3.5782,-3.7241,-3.904,-4.0509,-4.1172,-4.1172,-4.1172,-4.1172,-4.1172,-4.1172,-4.1172,-4.1172,-4.1172,-4.1172,-4.1172,-4.1172,-4.1172,-4.1172,-4.1172,-4.1172,-4.1172,-4.1172,-4.1172,-4.1172,-4.1172,-4.1172,-4.1172,-4.1172,-4.1094,-4.1016,-4.0781,-4.0351,-4.0137,-4.0,-3.9434,-3.8809,-3.8828,-3.8789,-3.8652,-3.8555,-3.8574,-3.8574,-3.8574,-3.8516,-3.8457,-3.8144,-3.7773,-3.7285,-3.6836,-3.6406,-3.623,-3.6387,-3.6562,-3.6855,-3.7226,-3.75,-3.7793,-3.6035,-3.6035,-3.6035,-3.6035,-3.6035,-3.6035,-3.6035,-3.6035,-3.6035,-3.6035,-3.6035,-3.6035,-3.6035,-3.6035,-3.6035,-3.6035,-3.6035,-3.6035,-3.6035,-3.6035,-3.6035,-3.6035,-3.6035,-3.6035,-3.6035,-3.6035,-3.6055,-3.6094,-3.6211,-3.674,-3.7828,-3.975,-3.8728,-3.8066,-3.8223,-3.8437,-3.8409,-3.7805,-3.7805,-3.7805,-3.797,-3.8263,-3.8263,-3.7824,-3.8009,-3.829,-3.8728,-3.9148,-3.957,-4.0117,-4.0508,-4.0664,-3.8642,-3.7241,-3.4002,-3.3022,-3.2366,-3.4489,-3.6762,-3.8231,-3.9374,-4.0509,-4.1172,-4.1172,-4.1172,-4.1172,-4.1172,-4.1172,-4.1172,-4.1172,-4.1172,-4.1172,-4.1172,-4.1172,-4.1172,-4.1172,-4.1172,-4.1172,-4.1172,-4.1172,-4.1172,-4.1152,-4.0996,-4.0976,-4.0918,-4.1035,-4.0996,-4.0859,-4.0508,-4.0117,-3.9941,-3.9824,-3.9277,-3.875,-3.8691,-3.8652,-3.8574,-3.8516,-3.8516,-3.8437,-3.834,-3.832,-3.832,-3.7832,-3.7285,-3.709,-3.6719,-3.6406,-3.623,-3.6289,-3.6406,-3.6387,-3.6641,-3.707,-3.7383,-3.6035,-3.6035,-3.6035,-3.6035,-3.6035,-3.6035,-3.6035,-3.6035,-3.6035,-3.6035,-3.6016,-3.6016,-3.6035,-3.6035,-3.5976,-3.5976,-3.6016,-3.6035,-3.6035,-3.6035,-3.6035,-3.6035,-3.6035,-3.6035,-3.6035,-3.6035,-3.6074,-3.6016,-3.6092,-3.6502,-3.7031,-3.8043,-3.746,-3.7413,-3.7682,-3.7913,-3.7492,-3.6423,-3.6275,-3.6127,-3.5979,-3.5812,-3.5812,-3.5217,-3.5103,-3.646,-3.7147,-3.8451,-3.8922,-3.9531,-3.9902,-3.8494,-3.5815,-3.5147,-3.366,-3.2366,-3.431,-3.6424,-3.7896,-3.9374,-4.0353,-4.0841,-4.1172,-4.1172,-4.1172,-4.1172,-4.1172,-4.1172,-4.1172,-4.1172,-4.1172,-4.1172,-4.1172,-4.1172,-4.1172,-4.1172,-4.1172,-4.1172,-4.1172,-4.1172,-4.1172,-4.1035,-4.0859,-4.0742,-4.0703,-4.0664,-4.0644,-4.0488,-4.0078,-3.9707,-3.9512,-3.9336,-3.9004,-3.8633,-3.8594,-3.8555,-3.8516,-3.8359,-3.8281,-3.8203,-3.8125,-3.8105,-3.8066,-3.7344,-3.6816,-3.6836,-3.6855,-3.6699,-3.6543,-3.6523,-3.6504,-3.6601,-3.6582,-3.6894,-3.7109,-3.6035,-3.6035,-3.6035,-3.6035,-3.6035,-3.6035,-3.6035,-3.6035,-3.6035,-3.6035,-3.5976,-3.5859,-3.584,-3.5918,-3.584,-3.5918,-3.5976,-3.6016,-3.6035,-3.6035,-3.6035,-3.6035,-3.6035,-3.6035,-3.6035,-3.6035,-3.5899,-3.5879,-3.5401,-3.5172,-3.5369,-3.5207,-3.5121,-3.5486,-3.576,-3.5721,-3.5533,-3.4301,-3.4151,-3.37,-3.3398,-3.3398,-3.37,-3.3247,-3.4151,-3.5199,-3.6164,-3.7611,-3.8689,-3.8889,-3.8918,-3.8168,-3.6114,-3.5274,-3.4797,-3.5137,-3.6424,-3.839,-3.9374,-4.0353,-4.1172,-4.1172,-4.1172,-4.1172,-4.1172,-4.1172,-4.1172,-4.1172,-4.1172,-4.1172,-4.1172,-4.1172,-4.1172,-4.1172,-4.1172,-4.1172,-4.1172,-4.1172,-4.1172,-4.1172,-4.1055,-4.0781,-4.0586,-4.0351,-4.0312,-4.0254,-4.0234,-4.0039,-3.9648,-3.9394,-3.918,-3.8984,-3.8711,-3.8594,-3.8594,-3.8555,-3.8535,-3.834,-3.8047,-3.8047,-3.7988,-3.7949,-3.7734,-3.7148,-3.6855,-3.7012,-3.6992,-3.6875,-3.6934,-3.6953,-3.6914,-3.6894,-3.6836,-3.6738,-3.6855,-3.5587,-3.5606,-3.5879,-3.6035,-3.6035,-3.6035,-3.6035,-3.6035,-3.6035,-3.6035,-3.5957,-3.5586,-3.5664,-3.5762,-3.5625,-3.5781,-3.5859,-3.584,-3.5898,-3.6016,-3.6035,-3.6035,-3.6035,-3.6035,-3.5743,-3.5158,-3.4727,-3.3882,-3.2963,-3.3037,-3.2541,-3.1165,-3.1285,-3.1927,-3.1942,-3.2291,-3.2641,-3.2184,-3.1879,-3.0823,-3.0823,-3.0977,-3.1437,-3.2489,-3.385,-3.49,-3.5664,-3.7107,-3.8515,-3.8475,-3.8083,-3.7304,-3.6849,-3.5988,-3.6532,-3.6922,-3.8054,-3.9531,-4.0509,-4.0997,-4.1172,-4.1172,-4.1172,-4.1152,-4.1133,-4.1074,-4.1074,-4.1055,-4.1055,-4.1055,-4.1055,-4.0976,-4.0976,-4.1055,-4.1055,-4.1113,-4.1113,-4.1094,-4.1094,-4.1094,-4.0879,-4.0586,-4.0293,-4.0059,-3.9902,-3.9844,-3.9707,-3.9473,-3.9277,-3.9101,-3.8926,-3.8809,-3.8652,-3.8574,-3.8574,-3.8418,-3.834,-3.8027,-3.7754,-3.7832,-3.7812,-3.7519,-3.7305,-3.7109,-3.6953,-3.6992,-3.7109,-3.707,-3.7168,-3.7187,-3.7012,-3.6836,-3.6816,-3.6719,-3.666,-3.3743,-3.3882,-3.5314,-3.6035,-3.6035,-3.6035,-3.6035,-3.6035,-3.6035,-3.6035,-3.5918,-3.5644,-3.5625,-3.5996,-3.5566,-3.5625,-3.5918,-3.5801,-3.584,-3.5976,-3.6016,-3.6035,-3.5606,-3.5021,-3.4865,-3.3882,-3.2595,-3.1316,-3.0926,-3.0868,-3.1043,-3.0828,-3.104,-3.1514,-3.207,-3.2048,-3.1284,-3.0515,-2.9898,-2.9138,-2.853,-2.853,-2.853,-2.9759,-3.113,-3.2337,-3.4018,-3.6756,-3.8155,-3.8297,-3.7595,-3.7049,-3.7102,-3.7149,-3.7435,-3.839,-3.9374,-4.0197,-4.1016,-4.1094,-4.1074,-4.1055,-4.1035,-4.0996,-4.0898,-4.0723,-4.0703,-4.0625,-4.0625,-4.0605,-4.0566,-4.0351,-4.0293,-4.0547,-4.0644,-4.082,-4.0937,-4.084,-4.0781,-4.0781,-4.0703,-4.0351,-3.998,-3.9726,-3.9453,-3.9375,-3.9297,-3.9082,-3.8887,-3.8769,-3.8672,-3.8574,-3.8496,-3.8574,-3.8555,-3.8184,-3.7845,-3.7676,-3.7402,-3.7344,-3.7187,-3.6875,-3.668,-3.6738,-3.6777,-3.6797,-3.6934,-3.7187,-3.7109,-3.7051,-3.6855,-3.6719,-3.6699,-3.668,-3.6601]},{"header":{"parameterUnit":"m.s-1","parameterCategory":1,"la1":31.0,"la2":29.5877,"lo1":-88.7671,"lo2":-86.6584,"dy":0.0162,"dx":0.0185,"nx":115,"ny":88,"refTime":"2024-09-27T12:00:00:Z","depth":0,"parameterNumber":3,"parameterNumberName":"V-component_of_WINDS"},"data":[0.0,0.0,0.0,0.0,0.0,0.0,0.0,0.0,0.0,0.0,0.0,0.0,0.0,0.0,0.0,0.0,0.0,0.0,0.0,0.0,0.0,0.0,0.0,0.0,0.0,0.0,0.0,0.0,0.0,0.0,0.0,0.0,0.0,0.0,0.0,0.0,0.0,0.0,0.0,0.0,0.0,0.0,0.0,0.0,0.0,0.0,0.0,0.0,0.0,0.0,0.0,0.0,0.0,0.0,0.0,0.0,0.0,0.0,0.0,0.0,0.0,0.0,0.0,0.0,0.0,0.0,0.0,0.0,0.0,0.0,0.0,0.0,0.0,0.0,0.0,0.0,0.0,0.0,0.0,0.0,0.0,0.0,0.0,0.0,0.0,0.0,0.0,0.0,0.0,0.0,0.0,0.0,0.0,0.0,0.0,0.0,0.0,0.0,0.0,0.0,0.0,0.0,0.0,0.0,0.0,0.0,0.0,0.0,0.0,0.0,0.0,0.0,0.0,0.0,0.0,0.0,0.0,0.0,0.0,0.0,0.0,0.0,0.0,0.0,0.0,0.0,0.0,0.0,0.0,0.0,0.0,0.0,0.0,0.0,0.0,0.0,0.0,0.0,0.0,0.0,0.0,0.0,0.0,0.0,0.0,0.0,0.0,0.0,0.0,0.0,0.0,0.0,0.0,0.0,0.0,0.0,0.0,0.0,0.0,0.0,0.0,0.0,0.0,0.0,0.0,0.0,0.0,0.0,0.0,0.0,0.0,0.0,0.0,0.0,0.0,0.0,0.0,0.0,0.0,0.0,0.0,0.0,0.0,0.0,0.0,0.0,0.0,0.0,0.0,0.0,0.0,0.0,0.0,0.0,0.0,0.0,0.0,0.0,0.0,0.0,0.0,0.0,0.0,0.0,0.0,0.0,0.0,0.0,0.0,0.0,0.0,0.0,0.0,0.0,0.0,0.0,0.0,0.0,0.0,0.0,0.0,0.0,0.0,0.0,0.0,0.0,0.0,0.0,0.0,0.0,0.0,0.0,0.0,0.0,0.0,0.0,0.0,0.0,0.0,0.0,0.0,0.0,0.0,0.0,0.0,0.0,0.0,0.0,0.0,0.0,0.0,0.0,0.0,0.0,0.0,0.0,0.0,0.0,0.0,0.0,0.0,0.0,0.0,0.0,0.0,0.0,0.0,0.0,0.0,0.0,0.0,0.0,0.0,0.0,0.0,0.0,0.0,0.0,0.0,0.0,0.0,0.0,0.0,0.0,0.0,0.0,0.0,0.0,0.0,0.0,0.0,0.0,0.0,0.0,0.0,0.0,0.0,0.0,0.0,0.0,0.0,0.0,0.0,0.0,0.0,0.0,0.0,0.0,0.0,0.0,0.0,0.0,0.0,0.0,0.0,0.0,0.0,0.0,0.0,0.0,0.0,0.0,0.0,0.0,0.0,0.0,0.0,0.0,0.0,0.0,0.0,0.0,0.0,0.0,0.0,0.0,0.0,0.0,0.0,0.0,0.0,0.0,0.0,0.0,0.0,0.0,0.0,0.0,0.0,0.0,0.0,0.0,0.0,0.0,0.0,0.0,0.0,0.0,0.0,0.0,0.0,0.0,0.0,0.0,0.0,0.0,0.0,0.0,0.0,0.0,0.0,0.0,0.0,0.0,0.0,0.0,0.0,0.0,0.0,0.0,0.0,0.0,0.0,0.0,0.0,0.0,0.0,0.0,0.0,0.0,0.0,0.0,0.0,0.0,0.0,0.0,0.0,0.0,0.0,0.0,0.0,0.0,0.0,0.0,0.0,0.0,0.0,0.0,0.0,0.0,0.0,0.0,0.0,0.0,0.0,0.0,0.0,0.0,0.0,0.0,0.0,0.0,0.0,0.0,0.0,0.0,0.0,0.0,0.0,0.0,0.0,0.0,0.0,0.0,0.0,0.0,0.0,0.0,0.0,0.0,0.0,0.0,0.0,0.0,0.0,0.0,0.0,0.0,0.0,0.0,0.0,0.0,0.0,0.0,0.0,0.0,0.0,0.0,0.0,0.0,0.0,0.0,0.0,0.0,0.0,0.0,0.0,0.0,0.0,0.0,0.0,0.0,0.0,0.0,0.0,0.0,0.0,0.0,0.0,0.0,0.0,0.0,0.0,0.0,0.0,0.0,0.0,0.0,0.0,0.0,0.0,0.0,0.0,0.0,0.0,0.0,0.0,0.0,0.0,0.0,0.0,0.0,0.0,0.0,0.0,0.0,0.0,0.0,0.0,0.0,0.0,0.0,0.0,0.0,0.0,0.0,0.0,0.0,0.0,0.0,0.0,0.0,0.0,0.0,0.0,0.0,0.0,0.0,0.0,0.0,0.0,0.0,0.0,0.0,0.0,0.0,0.0,0.0,0.0,0.0,0.0,0.0,0.0,0.0,0.0,0.0,0.0,0.0,0.0,0.0,0.0,0.0,0.0,0.0,0.0,0.0,0.0,0.0,0.0,0.0,0.0,0.0,0.0,0.0,0.0,0.0,0.0,0.0,0.0,0.0,0.0,0.0,0.0,0.0,0.0,0.0,0.0,0.0,0.0,0.0,0.0,0.0,0.0,0.0,0.0,0.0,0.0,0.0,0.0,0.0,0.0,0.0,0.0,0.0,0.0,0.0,0.0,0.0,0.0,0.0,0.0,0.0,0.0,0.0,0.0,0.0,0.0,0.0,0.0,0.0,0.0,0.0,0.0,0.0,0.0,0.0,0.0,0.0,0.0,0.0,0.0,0.0,0.0,0.0,0.0,0.0,0.0,0.0,0.0,0.0,0.0,0.0,0.0,0.0,0.0,0.0,0.0,0.0,0.0,0.0,0.0,0.0,0.0,0.0,0.0,0.0,0.0,0.0,0.0,0.0,0.0,0.0,0.0,0.0,0.0,0.0,0.0,0.0,0.0,0.0,0.0,0.0,0.0,0.0,0.0,0.0,0.0,0.0,0.0,0.0,0.0,0.0,0.0,0.0,0.0,0.0,0.0,0.0,0.0,0.0,0.0,0.0,0.0,0.0,0.0,0.0,0.0,0.0,0.0,0.0,0.0,0.0,0.0,0.0,0.0,0.0,0.0,0.0,0.0,0.0,0.0,0.0,0.0,0.0,0.0,0.0,0.0,0.0,0.0,0.0,0.0,0.0,0.0,0.0,0.0,0.0,0.0,0.0,0.0,0.0,0.0,0.0,0.0,0.0,0.0,0.0,0.0,0.0,0.0,0.0,0.0,0.0,0.0,0.0,0.0,0.0,0.0,0.0,0.0,0.0,0.0,0.0,0.0,0.0,0.0,0.0,0.0,0.0,0.0,0.0,0.0,0.0,0.0,0.0,0.0,0.0,0.0,0.0,0.0,0.0,0.0,0.0,0.0,0.0,0.0,0.0,0.0,0.0,0.0,0.0,0.0,0.0,0.0,0.0,0.0,0.0,0.0,0.0,0.0,0.0,0.0,0.0,0.0,0.0,0.0,0.0,0.0,0.0,0.0,0.0,0.0,0.0,0.0,0.0,0.0,0.0,0.0,0.0,0.0,0.0,0.0,0.0,0.0,0.0,0.0,0.0,0.0,0.0,0.0,0.0,0.0,0.0,0.0,0.0,0.0,0.0,0.0,0.0,0.0,0.0,0.0,0.0,0.0,0.0,0.0,0.0,0.0,0.0,0.0,0.0,0.0,0.0,0.0,0.0,0.0,0.0,0.0,0.0,0.0,0.0,0.0,0.0,0.0,0.0,0.0,0.0,0.0,0.0,0.0,0.0,0.0,0.0,0.0,0.0,0.0,0.0,0.0,0.0,0.0,0.0,0.0,0.0,0.0,0.0,0.0,0.0,0.0,0.0,0.0,0.0,0.0,0.0,0.0,0.0,0.0,0.0,0.0,0.0,0.0,0.0,0.0,0.0,0.0,0.0,0.0,0.0,0.0,0.0,0.0,0.0,0.0,0.0,0.0,0.0,0.0,0.0,0.0,0.0,0.0,0.0,0.0,0.0,0.0,0.0,0.0,0.0,0.0,0.0,0.0,0.0,0.0,0.0,0.0,0.0,0.0,0.0,0.0,0.0,0.0,0.0,0.0,0.0,0.0,0.0,0.0,0.0,0.0,0.0,0.0,0.0,0.0,0.0,0.0,0.0,0.0,0.0,0.0,0.0,0.0,0.0,0.0,0.0,0.0,0.0,0.0,0.0,0.0,0.0,0.0,0.0,0.0,0.0,0.0,0.0,0.0,0.0,0.0,0.0,0.0,0.0,0.0,0.0,0.0,0.0,0.0,0.0,-3.5312,0.0,0.0,0.0,0.0,0.0,0.0,0.0,0.0,0.0,0.0,0.0,0.0,0.0,0.0,0.0,0.0,0.0,0.0,0.0,0.0,0.0,0.0,0.0,0.0,0.0,0.0,0.0,0.0,0.0,0.0,0.0,0.0,0.0,0.0,0.0,0.0,0.0,0.0,0.0,0.0,0.0,0.0,0.0,0.0,0.0,0.0,0.0,0.0,0.0,0.0,0.0,0.0,0.0,0.0,0.0,0.0,0.0,0.0,0.0,0.0,0.0,0.0,0.0,0.0,0.0,0.0,0.0,0.0,0.0,0.0,0.0,0.0,0.0,0.0,0.0,0.0,0.0,0.0,0.0,0.0,0.0,0.0,0.0,0.0,0.0,0.0,0.0,0.0,0.0,0.0,0.0,0.0,0.0,0.0,0.0,0.0,0.0,0.0,0.0,0.0,0.0,0.0,0.0,0.0,0.0,0.0,0.0,0.0,0.0,0.0,-3.6762,-3.7395,-3.7358,-3.676,-3.5757,0.0,0.0,0.0,0.0,0.0,0.0,0.0,0.0,0.0,0.0,0.0,0.0,0.0,0.0,0.0,0.0,0.0,0.0,0.0,0.0,0.0,0.0,0.0,0.0,0.0,0.0,0.0,0.0,0.0,0.0,0.0,0.0,0.0,0.0,0.0,0.0,0.0,0.0,0.0,0.0,0.0,0.0,0.0,0.0,0.0,0.0,0.0,0.0,0.0,0.0,0.0,0.0,0.0,0.0,0.0,0.0,0.0,0.0,0.0,0.0,0.0,0.0,0.0,0.0,0.0,0.0,0.0,0.0,0.0,0.0,0.0,0.0,0.0,0.0,0.0,0.0,0.0,0.0,0.0,0.0,0.0,0.0,0.0,0.0,0.0,0.0,0.0,0.0,0.0,0.0,0.0,0.0,0.0,0.0,0.0,0.0,0.0,0.0,0.0,0.0,0.0,0.0,0.0,0.0,0.0,0.0,0.0,0.0,0.0,0.0,0.0,0.0,-3.8358,-3.7665,-3.6332,0.0,0.0,0.0,0.0,0.0,0.0,0.0,0.0,0.0,0.0,0.0,0.0,0.0,0.0,0.0,0.0,0.0,0.0,0.0,0.0,0.0,0.0,0.0,0.0,0.0,0.0,0.0,0.0,0.0,0.0,0.0,0.0,0.0,0.0,0.0,0.0,0.0,0.0,0.0,0.0,0.0,0.0,0.0,0.0,0.0,0.0,0.0,0.0,0.0,0.0,0.0,0.0,0.0,0.0,0.0,0.0,0.0,0.0,0.0,0.0,0.0,0.0,0.0,0.0,0.0,0.0,0.0,0.0,0.0,0.0,0.0,0.0,0.0,0.0,0.0,0.0,0.0,0.0,0.0,0.0,0.0,0.0,0.0,0.0,0.0,0.0,0.0,0.0,0.0,0.0,0.0,0.0,0.0,0.0,0.0,0.0,0.0,0.0,0.0,0.0,0.0,0.0,0.0,0.0,0.0,0.0,0.0,0.0,0.0,0.0,-3.7717,-3.939,-3.9442,0.0,-3.7011,0.0,0.0,0.0,0.0,0.0,0.0,0.0,0.0,0.0,0.0,0.0,0.0,0.0,0.0,0.0,0.0,0.0,0.0,0.0,0.0,0.0,0.0,0.0,0.0,0.0,0.0,0.0,0.0,0.0,0.0,0.0,0.0,0.0,0.0,0.0,0.0,0.0,0.0,0.0,0.0,0.0,0.0,0.0,0.0,0.0,0.0,0.0,0.0,0.0,0.0,0.0,0.0,0.0,0.0,0.0,0.0,0.0,0.0,0.0,0.0,0.0,0.0,0.0,0.0,0.0,0.0,0.0,0.0,0.0,0.0,0.0,0.0,0.0,0.0,0.0,0.0,0.0,0.0,0.0,0.0,0.0,0.0,0.0,0.0,0.0,0.0,0.0,0.0,0.0,0.0,0.0,0.0,0.0,0.0,0.0,0.0,0.0,0.0,0.0,0.0,0.0,0.0,0.0,0.0,0.0,0.0,0.0,0.0,0.0,0.0,-3.7912,-3.9751,-3.9058,-3.8143,0.0,0.0,0.0,0.0,0.0,0.0,0.0,0.0,0.0,0.0,0.0,0.0,0.0,0.0,0.0,0.0,0.0,0.0,0.0,0.0,0.0,0.0,0.0,0.0,0.0,0.0,0.0,0.0,0.0,0.0,0.0,0.0,0.0,0.0,0.0,0.0,0.0,0.0,0.0,0.0,0.0,0.0,0.0,0.0,0.0,0.0,0.0,0.0,0.0,0.0,0.0,0.0,0.0,0.0,0.0,0.0,0.0,0.0,0.0,0.0,0.0,0.0,0.0,0.0,0.0,0.0,0.0,0.0,0.0,0.0,0.0,0.0,0.0,0.0,0.0,0.0,0.0,0.0,0.0,0.0,0.0,0.0,0.0,0.0,0.0,0.0,0.0,0.0,0.0,0.0,0.0,0.0,0.0,0.0,0.0,0.0,0.0,0.0,0.0,0.0,0.0,0.0,0.0,0.0,0.0,0.0,0.0,0.0,0.0,0.0,-3.7674,-3.8486,-4.0499,-3.9336,-3.837,-3.7695,0.0,0.0,0.0,0.0,0.0,0.0,0.0,0.0,0.0,0.0,0.0,0.0,0.0,0.0,0.0,0.0,0.0,0.0,0.0,0.0,0.0,0.0,0.0,0.0,0.0,0.0,0.0,0.0,0.0,0.0,0.0,0.0,0.0,0.0,0.0,0.0,0.0,0.0,0.0,0.0,0.0,0.0,0.0,0.0,0.0,0.0,0.0,0.0,0.0,0.0,0.0,0.0,0.0,0.0,0.0,0.0,0.0,0.0,0.0,0.0,0.0,0.0,0.0,0.0,0.0,0.0,0.0,0.0,0.0,0.0,0.0,0.0,0.0,0.0,0.0,0.0,0.0,0.0,0.0,0.0,0.0,0.0,0.0,0.0,0.0,0.0,0.0,0.0,0.0,0.0,0.0,0.0,0.0,0.0,0.0,0.0,0.0,0.0,0.0,0.0,0.0,0.0,0.0,0.0,0.0,0.0,0.0,0.0,0.0,-3.9223,-3.973,-4.2154,-4.116,-4.0248,0.0,0.0,0.0,0.0,0.0,0.0,0.0,0.0,0.0,0.0,0.0,0.0,0.0,0.0,0.0,0.0,0.0,0.0,0.0,0.0,0.0,0.0,0.0,0.0,0.0,0.0,0.0,0.0,0.0,0.0,0.0,0.0,0.0,0.0,0.0,0.0,0.0,0.0,0.0,0.0,0.0,0.0,0.0,0.0,0.0,0.0,0.0,0.0,0.0,0.0,0.0,0.0,0.0,0.0,0.0,0.0,0.0,0.0,0.0,0.0,0.0,0.0,0.0,0.0,0.0,0.0,0.0,0.0,0.0,0.0,0.0,0.0,0.0,0.0,0.0,0.0,0.0,0.0,0.0,0.0,0.0,0.0,0.0,0.0,0.0,0.0,0.0,0.0,0.0,0.0,0.0,0.0,0.0,0.0,0.0,0.0,0.0,0.0,0.0,0.0,0.0,0.0,0.0,0.0,0.0,0.0,0.0,0.0,0.0,-3.9026,-3.9888,-4.1721,-4.4338,-4.1855,-4.065,0.0,0.0,0.0,0.0,0.0,0.0,0.0,0.0,0.0,0.0,0.0,0.0,0.0,0.0,0.0,0.0,0.0,0.0,0.0,0.0,0.0,0.0,0.0,0.0,0.0,0.0,0.0,0.0,0.0,0.0,0.0,0.0,0.0,0.0,0.0,0.0,0.0,0.0,0.0,0.0,0.0,0.0,0.0,0.0,0.0,0.0,0.0,0.0,0.0,0.0,0.0,0.0,0.0,0.0,0.0,0.0,0.0,0.0,0.0,0.0,0.0,0.0,0.0,0.0,0.0,0.0,0.0,0.0,0.0,0.0,0.0,0.0,0.0,0.0,0.0,0.0,0.0,0.0,0.0,0.0,0.0,0.0,0.0,0.0,0.0,0.0,0.0,0.0,0.0,0.0,0.0,0.0,0.0,0.0,0.0,0.0,0.0,0.0,0.0,0.0,0.0,0.0,0.0,0.0,0.0,0.0,0.0,0.0,0.0,-3.9929,0.0,-4.4553,0.0,-4.3436,-4.1881,0.0,0.0,0.0,0.0,0.0,0.0,0.0,0.0,0.0,0.0,0.0,0.0,0.0,0.0,0.0,0.0,0.0,0.0,0.0,0.0,0.0,0.0,0.0,0.0,0.0,0.0,0.0,0.0,0.0,0.0,0.0,0.0,0.0,0.0,0.0,0.0,0.0,0.0,0.0,0.0,0.0,0.0,0.0,0.0,0.0,0.0,0.0,0.0,0.0,0.0,0.0,0.0,0.0,0.0,0.0,0.0,0.0,0.0,0.0,0.0,0.0,0.0,0.0,0.0,0.0,0.0,0.0,0.0,0.0,0.0,0.0,0.0,0.0,0.0,0.0,0.0,0.0,0.0,0.0,0.0,0.0,0.0,0.0,0.0,0.0,0.0,0.0,0.0,0.0,0.0,0.0,0.0,0.0,0.0,0.0,0.0,0.0,0.0,0.0,0.0,0.0,0.0,0.0,0.0,0.0,0.0,0.0,0.0,-4.0,-4.378,-4.6867,-4.8021,-4.7518,-4.5873,-4.3861,0.0,0.0,0.0,0.0,0.0,0.0,0.0,0.0,0.0,0.0,0.0,0.0,0.0,0.0,0.0,0.0,0.0,0.0,0.0,0.0,0.0,0.0,0.0,0.0,0.0,0.0,0.0,0.0,0.0,0.0,0.0,0.0,0.0,0.0,0.0,0.0,0.0,0.0,0.0,0.0,0.0,0.0,0.0,0.0,0.0,0.0,0.0,0.0,0.0,0.0,0.0,0.0,0.0,0.0,0.0,0.0,0.0,0.0,0.0,0.0,0.0,0.0,0.0,0.0,0.0,0.0,0.0,0.0,0.0,0.0,0.0,0.0,0.0,0.0,0.0,0.0,0.0,0.0,0.0,0.0,0.0,0.0,0.0,0.0,0.0,0.0,0.0,0.0,0.0,0.0,0.0,0.0,0.0,0.0,0.0,0.0,0.0,0.0,0.0,0.0,0.0,0.0,0.0,0.0,0.0,0.0,0.0,0.0,0.0,-4.4531,-4.692,-4.9413,-5.1561,-4.746,-4.5285,0.0,0.0,0.0,0.0,0.0,0.0,0.0,0.0,0.0,0.0,0.0,0.0,0.0,0.0,0.0,0.0,0.0,0.0,0.0,0.0,0.0,0.0,0.0,0.0,0.0,0.0,0.0,0.0,0.0,0.0,0.0,0.0,0.0,0.0,0.0,0.0,0.0,0.0,0.0,0.0,0.0,0.0,0.0,0.0,0.0,0.0,0.0,0.0,0.0,0.0,0.0,0.0,0.0,0.0,0.0,0.0,0.0,0.0,0.0,0.0,0.0,0.0,0.0,0.0,0.0,0.0,0.0,0.0,0.0,0.0,0.0,0.0,0.0,0.0,0.0,0.0,0.0,0.0,0.0,0.0,0.0,0.0,0.0,0.0,0.0,0.0,0.0,0.0,0.0,0.0,0.0,0.0,0.0,0.0,0.0,0.0,0.0,0.0,0.0,0.0,0.0,0.0,0.0,0.0,0.0,0.0,0.0,0.0,0.0,-4.7614,-4.9786,-5.1965,-5.3963,-4.9578,-4.7169,-4.7167,0.0,0.0,0.0,0.0,0.0,0.0,0.0,0.0,0.0,0.0,0.0,0.0,0.0,0.0,0.0,0.0,0.0,0.0,0.0,0.0,0.0,0.0,0.0,0.0,0.0,0.0,0.0,0.0,0.0,0.0,0.0,0.0,0.0,0.0,0.0,0.0,0.0,0.0,0.0,0.0,0.0,0.0,0.0,0.0,0.0,0.0,0.0,0.0,0.0,0.0,0.0,0.0,0.0,0.0,0.0,0.0,0.0,0.0,0.0,0.0,0.0,0.0,0.0,0.0,0.0,0.0,0.0,0.0,0.0,0.0,0.0,0.0,0.0,0.0,0.0,0.0,0.0,0.0,0.0,0.0,0.0,0.0,0.0,0.0,0.0,0.0,0.0,0.0,0.0,0.0,0.0,0.0,0.0,0.0,0.0,0.0,0.0,0.0,0.0,0.0,0.0,0.0,0.0,0.0,0.0,0.0,0.0,0.0,-5.2157,-5.491,-5.5748,-5.461,-5.2263,-4.9578,0.0,0.0,0.0,0.0,0.0,0.0,0.0,0.0,0.0,0.0,0.0,0.0,0.0,0.0,0.0,0.0,0.0,0.0,0.0,0.0,0.0,0.0,0.0,0.0,0.0,0.0,0.0,0.0,0.0,0.0,0.0,0.0,0.0,0.0,0.0,0.0,0.0,0.0,0.0,0.0,0.0,0.0,0.0,0.0,0.0,0.0,0.0,0.0,0.0,0.0,0.0,0.0,0.0,0.0,0.0,0.0,0.0,0.0,0.0,0.0,0.0,0.0,0.0,0.0,0.0,0.0,0.0,0.0,0.0,0.0,0.0,0.0,0.0,0.0,0.0,0.0,0.0,0.0,0.0,0.0,0.0,0.0,0.0,0.0,0.0,0.0,0.0,0.0,0.0,0.0,0.0,0.0,0.0,0.0,0.0,0.0,0.0,0.0,0.0,0.0,0.0,0.0,0.0,0.0,0.0,0.0,0.0,0.0,0.0,-5.2276,-5.6226,-5.8411,-5.8441,-5.486,-5.2017,0.0,0.0,0.0,0.0,0.0,0.0,0.0,0.0,0.0,0.0,0.0,0.0,0.0,0.0,0.0,0.0,0.0,0.0,0.0,0.0,0.0,0.0,0.0,0.0,0.0,0.0,0.0,0.0,0.0,0.0,0.0,0.0,0.0,0.0,0.0,0.0,0.0,0.0,0.0,0.0,0.0,0.0,0.0,0.0,0.0,0.0,0.0,0.0,0.0,0.0,0.0,0.0,0.0,0.0,0.0,0.0,0.0,0.0,0.0,0.0,0.0,0.0,0.0,0.0,0.0,0.0,0.0,0.0,0.0,0.0,0.0,0.0,0.0,0.0,0.0,0.0,0.0,0.0,0.0,0.0,0.0,0.0,0.0,0.0,0.0,0.0,0.0,0.0,0.0,0.0,0.0,0.0,0.0,0.0,0.0,0.0,0.0,0.0,0.0,0.0,0.0,0.0,0.0,0.0,0.0,0.0,0.0,0.0,-5.2197,-5.3862,-5.7543,-5.9697,-6.0057,-5.6912,-5.3977,0.0,0.0,0.0,0.0,0.0,0.0,0.0,0.0,0.0,0.0,0.0,0.0,0.0,0.0,0.0,0.0,0.0,0.0,0.0,0.0,0.0,0.0,0.0,0.0,0.0,0.0,0.0,0.0,0.0,0.0,0.0,0.0,0.0,0.0,0.0,0.0,0.0,0.0,0.0,0.0,0.0,0.0,0.0,0.0,0.0,0.0,0.0,0.0,0.0,0.0,0.0,0.0,0.0,0.0,0.0,0.0,0.0,0.0,0.0,0.0,0.0,0.0,0.0,0.0,0.0,0.0,0.0,0.0,0.0,0.0,0.0,0.0,0.0,0.0,0.0,0.0,0.0,0.0,0.0,0.0,0.0,0.0,0.0,0.0,0.0,0.0,0.0,0.0,0.0,0.0,0.0,0.0,0.0,0.0,0.0,0.0,0.0,0.0,0.0,0.0,0.0,0.0,0.0,0.0,0.0,0.0,0.0,0.0,-5.3856,-5.6137,-5.874,-6.0086,-6.0027,-5.8141,-5.5531,0.0,0.0,0.0,0.0,0.0,0.0,0.0,0.0,0.0,0.0,0.0,0.0,0.0,0.0,0.0,0.0,0.0,0.0,0.0,0.0,0.0,0.0,0.0,0.0,0.0,0.0,0.0,0.0,0.0,0.0,0.0,0.0,0.0,0.0,0.0,0.0,0.0,0.0,0.0,0.0,0.0,0.0,0.0,0.0,0.0,0.0,0.0,0.0,0.0,0.0,0.0,0.0,0.0,0.0,0.0,0.0,0.0,0.0,0.0,0.0,0.0,0.0,0.0,0.0,0.0,0.0,0.0,0.0,0.0,0.0,0.0,0.0,0.0,0.0,0.0,0.0,0.0,0.0,0.0,0.0,0.0,0.0,0.0,0.0,0.0,0.0,0.0,0.0,0.0,0.0,0.0,0.0,0.0,0.0,0.0,0.0,0.0,0.0,0.0,0.0,0.0,0.0,0.0,0.0,0.0,0.0,0.0,0.0,-5.457,-5.6137,-5.874,-6.0086,-6.0086,-5.8354,-5.6254,0.0,0.0,0.0,0.0,0.0,0.0,0.0,0.0,0.0,0.0,0.0,0.0,0.0,0.0,0.0,0.0,0.0,0.0,0.0,0.0,0.0,0.0,0.0,0.0,0.0,0.0,0.0,0.0,0.0,0.0,0.0,0.0,0.0,0.0,0.0,0.0,0.0,0.0,0.0,0.0,0.0,0.0,0.0,0.0,0.0,0.0,0.0,0.0,-4.8675,0.0,0.0,0.0,0.0,0.0,0.0,0.0,0.0,0.0,0.0,0.0,0.0,0.0,0.0,0.0,0.0,0.0,0.0,0.0,0.0,0.0,0.0,0.0,0.0,0.0,0.0,0.0,0.0,0.0,0.0,0.0,0.0,0.0,0.0,0.0,0.0,0.0,0.0,0.0,0.0,0.0,0.0,0.0,0.0,0.0,0.0,0.0,0.0,0.0,0.0,0.0,0.0,0.0,0.0,0.0,0.0,0.0,0.0,0.0,-5.556,-5.7034,-5.874,-5.9638,-5.9548,-5.8098,-5.6526,0.0,0.0,0.0,0.0,0.0,0.0,0.0,0.0,0.0,0.0,0.0,0.0,0.0,0.0,0.0,0.0,0.0,0.0,0.0,0.0,0.0,0.0,0.0,0.0,0.0,0.0,0.0,0.0,0.0,0.0,0.0,0.0,0.0,0.0,0.0,0.0,0.0,0.0,0.0,0.0,0.0,0.0,0.0,0.0,0.0,0.0,0.0,0.0,0.0,0.0,0.0,0.0,0.0,0.0,0.0,0.0,0.0,0.0,0.0,0.0,0.0,0.0,0.0,0.0,0.0,0.0,0.0,0.0,0.0,0.0,0.0,0.0,0.0,0.0,0.0,0.0,0.0,0.0,0.0,0.0,0.0,0.0,0.0,0.0,0.0,0.0,0.0,0.0,0.0,0.0,0.0,0.0,0.0,0.0,0.0,0.0,0.0,0.0,0.0,0.0,0.0,0.0,0.0,0.0,0.0,0.0,0.0,-5.388,-5.6383,-5.8171,-5.871,-5.8949,-5.8949,-5.7633,-5.6323,-5.5114,0.0,0.0,0.0,0.0,0.0,0.0,0.0,0.0,0.0,0.0,0.0,0.0,0.0,0.0,0.0,0.0,0.0,0.0,0.0,0.0,0.0,0.0,0.0,0.0,0.0,0.0,0.0,0.0,0.0,0.0,0.0,0.0,0.0,0.0,0.0,0.0,0.0,0.0,-5.377,-5.6385,0.0,0.0,0.0,0.0,0.0,0.0,0.0,0.0,-5.1635,0.0,0.0,0.0,0.0,0.0,0.0,0.0,0.0,0.0,0.0,0.0,0.0,0.0,0.0,0.0,0.0,0.0,0.0,0.0,0.0,0.0,0.0,0.0,0.0,0.0,0.0,0.0,0.0,0.0,0.0,0.0,0.0,0.0,0.0,0.0,0.0,0.0,0.0,0.0,0.0,0.0,0.0,0.0,0.0,0.0,0.0,0.0,0.0,0.0,0.0,0.0,0.0,0.0,0.0,0.0,0.0,-5.2673,-5.4599,-5.6616,-5.883,-5.8501,-5.8291,-5.8231,-5.7004,-5.5792,-5.4443,0.0,0.0,0.0,0.0,0.0,0.0,0.0,0.0,0.0,0.0,0.0,0.0,0.0,0.0,0.0,0.0,0.0,0.0,0.0,0.0,0.0,0.0,0.0,0.0,0.0,0.0,0.0,0.0,0.0,0.0,0.0,0.0,0.0,0.0,0.0,0.0,0.0,0.0,0.0,-6.0863,-6.1662,0.0,0.0,0.0,0.0,0.0,0.0,0.0,0.0,-5.2548,0.0,0.0,0.0,0.0,0.0,0.0,0.0,0.0,0.0,0.0,0.0,0.0,0.0,0.0,0.0,0.0,0.0,0.0,0.0,0.0,0.0,0.0,0.0,0.0,0.0,0.0,0.0,0.0,0.0,0.0,0.0,0.0,0.0,0.0,0.0,0.0,0.0,0.0,0.0,0.0,0.0,0.0,0.0,0.0,0.0,0.0,0.0,0.0,0.0,0.0,0.0,0.0,0.0,0.0,0.0,-5.2643,-5.5196,-5.7311,-5.8979,-5.8471,-5.8141,-5.8052,-5.5209,-5.3435,0.0,0.0,0.0,0.0,0.0,0.0,0.0,0.0,0.0,0.0,0.0,0.0,0.0,0.0,0.0,0.0,0.0,0.0,0.0,0.0,0.0,0.0,0.0,0.0,0.0,0.0,0.0,0.0,0.0,0.0,0.0,0.0,0.0,0.0,0.0,0.0,0.0,0.0,0.0,0.0,-6.0805,-6.1447,-6.0769,0.0,0.0,0.0,0.0,0.0,0.0,-5.3344,-5.3528,0.0,0.0,0.0,0.0,0.0,0.0,0.0,0.0,0.0,0.0,0.0,0.0,0.0,0.0,0.0,0.0,0.0,0.0,0.0,0.0,0.0,0.0,0.0,0.0,0.0,0.0,0.0,0.0,0.0,0.0,0.0,0.0,0.0,0.0,0.0,0.0,0.0,0.0,0.0,0.0,0.0,0.0,0.0,0.0,0.0,0.0,0.0,0.0,0.0,0.0,0.0,0.0,0.0,0.0,0.0,-5.2336,-5.5167,-5.7543,-5.9379,-5.8836,-5.8444,-5.8233,-5.4315,-5.212,0.0,0.0,0.0,0.0,0.0,0.0,0.0,0.0,0.0,0.0,0.0,0.0,0.0,0.0,0.0,0.0,0.0,0.0,0.0,0.0,0.0,0.0,0.0,0.0,0.0,0.0,0.0,0.0,0.0,0.0,0.0,0.0,0.0,0.0,0.0,0.0,0.0,0.0,0.0,0.0,0.0,-6.0968,-6.1041,-5.9211,0.0,0.0,0.0,0.0,-5.4626,-5.5217,0.0,0.0,0.0,0.0,0.0,0.0,0.0,0.0,0.0,0.0,0.0,0.0,0.0,0.0,0.0,0.0,0.0,0.0,0.0,0.0,0.0,0.0,0.0,0.0,0.0,0.0,0.0,0.0,0.0,0.0,0.0,0.0,0.0,0.0,0.0,0.0,0.0,0.0,0.0,0.0,0.0,0.0,0.0,0.0,0.0,0.0,0.0,0.0,0.0,0.0,0.0,0.0,0.0,0.0,0.0,0.0,-5.2334,-5.4222,-5.6968,-6.0496,-6.0197,-5.9549,-5.8962,-5.6741,-5.4145,0.0,0.0,0.0,0.0,0.0,0.0,0.0,0.0,0.0,0.0,0.0,0.0,0.0,0.0,0.0,0.0,0.0,0.0,0.0,0.0,0.0,0.0,0.0,0.0,0.0,0.0,0.0,0.0,0.0,0.0,0.0,0.0,0.0,0.0,0.0,0.0,0.0,0.0,0.0,0.0,0.0,-6.2451,-6.0865,-6.0391,-5.9444,0.0,0.0,-5.6128,-5.6194,-5.7808,0.0,0.0,0.0,0.0,0.0,0.0,0.0,0.0,0.0,0.0,0.0,0.0,0.0,0.0,0.0,0.0,0.0,0.0,0.0,0.0,0.0,0.0,0.0,0.0,0.0,0.0,0.0,0.0,0.0,0.0,0.0,0.0,0.0,0.0,0.0,0.0,0.0,0.0,0.0,0.0,0.0,0.0,0.0,0.0,0.0,0.0,0.0,0.0,0.0,0.0,0.0,0.0,0.0,0.0,0.0,-4.941,-5.385,-5.6427,-5.9159,-6.1968,-6.1529,-6.0834,-6.017,-5.6309,-5.326,0.0,0.0,0.0,0.0,0.0,0.0,0.0,0.0,0.0,0.0,0.0,0.0,0.0,0.0,0.0,0.0,0.0,0.0,0.0,0.0,0.0,0.0,0.0,0.0,0.0,0.0,0.0,0.0,0.0,0.0,0.0,0.0,0.0,0.0,0.0,0.0,0.0,0.0,0.0,0.0,0.0,0.0,-6.1621,-6.1163,0.0,0.0,0.0,-5.9371,-5.8931,0.0,0.0,0.0,0.0,0.0,0.0,0.0,0.0,0.0,0.0,0.0,0.0,0.0,0.0,0.0,0.0,0.0,0.0,0.0,0.0,0.0,0.0,0.0,0.0,0.0,0.0,0.0,0.0,0.0,0.0,0.0,0.0,0.0,0.0,0.0,0.0,0.0,0.0,0.0,0.0,0.0,0.0,0.0,0.0,0.0,0.0,0.0,0.0,0.0,0.0,0.0,0.0,0.0,0.0,0.0,0.0,0.0,-5.5134,-5.8093,-6.0793,-6.3353,-6.2772,-6.1999,-6.1031,-5.6427,0.0,0.0,0.0,0.0,0.0,0.0,0.0,0.0,0.0,0.0,0.0,0.0,0.0,0.0,0.0,0.0,0.0,0.0,0.0,0.0,0.0,0.0,0.0,0.0,0.0,0.0,0.0,-4.4211,0.0,0.0,0.0,0.0,0.0,0.0,0.0,0.0,0.0,0.0,0.0,0.0,0.0,0.0,-5.9975,-6.2572,-6.2417,-6.2177,0.0,0.0,-6.2269,-6.1498,-6.1688,-6.102,0.0,0.0,0.0,0.0,0.0,0.0,0.0,0.0,0.0,0.0,0.0,0.0,0.0,0.0,0.0,0.0,0.0,0.0,0.0,0.0,0.0,0.0,0.0,0.0,0.0,0.0,0.0,0.0,0.0,0.0,0.0,0.0,0.0,0.0,0.0,0.0,0.0,0.0,0.0,0.0,0.0,0.0,0.0,0.0,0.0,0.0,0.0,0.0,0.0,0.0,0.0,0.0,0.0,0.0,0.0,-5.5134,-5.7611,-6.0825,-6.4523,-6.4087,-6.3067,-6.1653,-5.8741,-5.5306,0.0,0.0,0.0,0.0,0.0,0.0,0.0,0.0,0.0,0.0,0.0,0.0,0.0,0.0,0.0,0.0,0.0,0.0,0.0,0.0,0.0,0.0,0.0,0.0,0.0,0.0,0.0,0.0,0.0,0.0,0.0,0.0,0.0,0.0,0.0,0.0,0.0,0.0,0.0,0.0,0.0,-6.1491,-6.3444,-6.4867,-6.5672,0.0,0.0,-6.4287,-6.3036,-6.4341,-6.3916,-5.9188,0.0,0.0,0.0,0.0,0.0,0.0,0.0,0.0,0.0,0.0,0.0,0.0,0.0,0.0,0.0,0.0,0.0,0.0,0.0,0.0,0.0,0.0,0.0,0.0,0.0,0.0,0.0,0.0,0.0,0.0,0.0,0.0,0.0,0.0,0.0,0.0,0.0,0.0,0.0,0.0,0.0,0.0,0.0,0.0,0.0,0.0,0.0,0.0,0.0,0.0,0.0,0.0,0.0,-5.0942,-5.6112,-5.8416,-6.1268,-6.4522,-6.4421,-6.3785,-6.2814,-6.0382,-5.7239,0.0,0.0,0.0,0.0,0.0,0.0,0.0,0.0,0.0,0.0,0.0,0.0,0.0,0.0,0.0,0.0,0.0,0.0,0.0,0.0,0.0,0.0,0.0,0.0,0.0,0.0,0.0,0.0,-4.9447,-5.0236,-5.0947,0.0,0.0,0.0,0.0,0.0,0.0,0.0,0.0,0.0,0.0,-6.344,-6.548,-6.5837,0.0,0.0,-6.5671,-6.5213,-6.4882,-6.4035,-6.2716,-6.034,-5.8597,0.0,0.0,0.0,0.0,0.0,0.0,0.0,0.0,0.0,0.0,0.0,0.0,0.0,0.0,0.0,0.0,0.0,0.0,0.0,0.0,0.0,0.0,0.0,0.0,0.0,0.0,0.0,0.0,0.0,0.0,0.0,0.0,0.0,0.0,0.0,0.0,0.0,0.0,0.0,0.0,0.0,0.0,0.0,0.0,0.0,0.0,0.0,0.0,0.0,0.0,0.0,0.0,-5.153,-5.6427,-5.8863,-6.1467,-6.4241,-6.4275,-6.3835,-6.2854,-6.0858,-5.8045,0.0,0.0,0.0,0.0,0.0,0.0,0.0,0.0,0.0,0.0,0.0,0.0,0.0,0.0,0.0,0.0,0.0,0.0,0.0,0.0,0.0,0.0,0.0,0.0,0.0,0.0,0.0,0.0,-5.104,-5.142,-5.1928,0.0,0.0,0.0,0.0,0.0,0.0,0.0,0.0,0.0,0.0,-6.518,-6.6987,-6.6992,-6.6897,-6.6971,-6.6659,-6.6256,-6.5846,-6.427,-6.2649,-6.1189,0.0,0.0,0.0,0.0,0.0,0.0,0.0,0.0,0.0,0.0,0.0,0.0,0.0,0.0,0.0,0.0,0.0,0.0,0.0,0.0,0.0,0.0,0.0,0.0,0.0,0.0,0.0,0.0,0.0,0.0,-4.1279,0.0,0.0,0.0,0.0,0.0,0.0,0.0,0.0,0.0,0.0,0.0,0.0,0.0,0.0,0.0,0.0,0.0,0.0,0.0,0.0,0.0,0.0,-5.2472,-5.5716,-5.8558,-6.1163,-6.3396,-6.3531,-6.2821,-6.14,-5.9844,-5.7538,-5.4393,0.0,0.0,0.0,0.0,0.0,0.0,0.0,0.0,0.0,0.0,0.0,0.0,0.0,0.0,0.0,0.0,0.0,0.0,0.0,0.0,0.0,0.0,0.0,0.0,0.0,0.0,-5.1303,-5.1346,-5.1251,0.0,0.0,0.0,0.0,0.0,0.0,0.0,0.0,0.0,0.0,-6.5143,-6.6794,-6.7775,-6.8519,-6.887,-6.8904,-6.8282,-6.7269,-6.5699,-6.5496,-6.4532,0.0,0.0,0.0,0.0,0.0,0.0,0.0,0.0,0.0,0.0,0.0,0.0,0.0,0.0,0.0,0.0,0.0,0.0,0.0,0.0,0.0,0.0,0.0,0.0,0.0,0.0,0.0,-4.6561,-4.561,0.0,0.0,0.0,0.0,0.0,0.0,0.0,0.0,0.0,0.0,0.0,-4.9637,-5.1056,0.0,0.0,0.0,0.0,0.0,0.0,0.0,0.0,0.0,0.0,0.0,0.0,-5.2066,-5.5441,-5.7065,-5.8998,-6.1163,-6.1231,-6.0994,-6.052,-5.9539,-5.7335,-5.3889,0.0,0.0,0.0,0.0,0.0,0.0,0.0,0.0,0.0,0.0,0.0,0.0,0.0,0.0,0.0,0.0,0.0,0.0,0.0,0.0,0.0,0.0,0.0,0.0,0.0,-5.1007,0.0,0.0,0.0,0.0,0.0,0.0,0.0,0.0,0.0,0.0,0.0,-6.3193,-6.5425,-6.7133,-6.8316,-6.8673,-6.847,-6.8301,0.0,0.0,0.0,0.0,0.0,0.0,0.0,0.0,0.0,0.0,0.0,0.0,0.0,0.0,-6.5295,-6.0114,-5.785,-5.6771,-5.6621,0.0,0.0,0.0,0.0,0.0,0.0,0.0,0.0,0.0,0.0,0.0,0.0,0.0,0.0,0.0,0.0,-4.6906,0.0,0.0,0.0,0.0,0.0,0.0,0.0,0.0,-5.1634,-5.2799,-5.3139,-5.4364,-5.4533,0.0,-5.3381,-5.1358,0.0,0.0,0.0,0.0,0.0,0.0,0.0,0.0,-5.2538,-5.5069,-5.6457,-5.8017,-5.9641,-5.9979,-5.9979,-5.9708,-5.8761,-5.7002,-5.4363,-5.3111,-5.1685,0.0,0.0,0.0,0.0,0.0,0.0,0.0,0.0,0.0,0.0,0.0,0.0,0.0,0.0,0.0,0.0,0.0,0.0,0.0,0.0,0.0,0.0,0.0,-5.2227,0.0,0.0,0.0,0.0,0.0,0.0,0.0,0.0,0.0,-6.1503,-6.3623,-6.5779,-6.7387,-6.847,-6.9011,-6.8707,0.0,0.0,0.0,0.0,0.0,0.0,0.0,-6.4941,-6.5379,-6.4992,-6.5127,-6.6508,-6.8451,-6.9789,-6.9519,0.0,0.0,-6.4588,-6.2556,-6.1602,-6.1555,-6.1153,-6.0705,-6.0512,-6.1227,-6.1743,0.0,0.0,0.0,0.0,0.0,0.0,0.0,0.0,-5.0011,-4.9505,0.0,-4.9118,0.0,0.0,0.0,0.0,0.0,0.0,0.0,0.0,-5.4059,-5.504,-5.5683,-5.5784,-5.575,-5.5784,-5.6571,-5.579,-5.3416,-5.0642,0.0,0.0,0.0,0.0,0.0,0.0,-5.389,-5.4702,-5.6731,-5.8186,-5.8964,-5.9641,-5.9674,-5.8964,-5.7611,-5.6528,-5.5784,-5.5144,-5.3787,-5.1454,-5.1794,0.0,0.0,0.0,0.0,0.0,0.0,0.0,0.0,0.0,0.0,0.0,0.0,0.0,0.0,0.0,0.0,0.0,0.0,0.0,0.0,-5.223,0.0,0.0,0.0,0.0,0.0,0.0,0.0,0.0,0.0,0.0,-6.4121,-6.6418,-6.8524,-6.9045,0.0,0.0,0.0,0.0,-6.8992,-6.8695,-6.9478,-6.968,-6.8495,-6.8109,-6.7302,-6.5817,0.0,0.0,-6.9011,-7.0364,-7.1041,-7.0364,-7.0838,-7.1312,-7.1142,-6.8938,-6.7536,-6.7502,-6.6356,-6.5581,-6.5547,-6.5969,-6.6458,-5.2785,0.0,0.0,0.0,0.0,-5.1841,-5.2378,-5.3429,-5.2858,-5.224,-5.1442,-5.0864,0.0,0.0,0.0,0.0,0.0,0.0,-5.299,-5.4261,-5.5688,-5.6433,-5.6494,-5.7036,-5.7002,-5.6494,-5.6769,-5.6261,-5.5074,-5.4228,-5.2706,-5.0706,0.0,0.0,0.0,0.0,-5.4058,-5.5204,-5.6457,-5.7476,-5.8186,-5.8423,-5.8423,-5.822,-5.7814,-5.7239,-5.6528,-5.6362,-5.5483,-5.3854,-5.3409,0.0,0.0,0.0,0.0,0.0,0.0,0.0,0.0,0.0,0.0,0.0,0.0,0.0,0.0,0.0,0.0,0.0,0.0,0.0,-5.1519,-5.2872,-5.3957,0.0,0.0,0.0,0.0,0.0,0.0,0.0,0.0,0.0,-6.7724,-6.8845,-6.9911,0.0,0.0,-7.0398,-6.9654,-6.9282,-6.9113,-6.9026,0.0,0.0,0.0,-6.8316,-6.7963,-6.8012,-6.891,-6.9789,-7.0534,-7.1041,-7.1244,-7.1007,-7.1142,-7.1312,-7.1244,-7.0364,-6.9465,-6.9397,-6.9059,-6.862,-6.8181,-6.8707,-6.9011,-5.5944,-5.5785,-5.4617,-5.458,-5.5252,-5.4492,-5.4529,-5.5203,-5.4121,-5.3404,-5.2922,-5.2475,-5.1615,-5.0479,-5.0848,0.0,0.0,0.0,-5.4768,-5.5653,-5.6535,-5.7111,-5.7239,-5.7679,-5.7645,-5.7273,-5.7616,-5.7209,-5.6156,-5.6532,-5.5278,-5.2638,0.0,0.0,-5.274,-5.3551,-5.443,-5.5508,-5.6052,-5.6731,-5.7442,-5.7171,-5.7306,-5.7848,-5.7611,-5.7239,-5.6833,-5.6528,-5.5888,-5.4737,-5.4192,-5.2622,0.0,0.0,0.0,0.0,0.0,0.0,0.0,0.0,0.0,0.0,0.0,-4.4427,-4.4372,0.0,0.0,0.0,-5.0202,-5.2334,-5.3923,-5.5651,0.0,0.0,0.0,0.0,0.0,0.0,0.0,-6.6466,-6.7912,-6.9117,-7.0032,-7.069,-7.1142,-7.1278,-7.1041,-7.0703,-7.0229,0.0,-6.9958,-6.9782,-7.014,-7.0398,-7.022,-6.9194,-6.8436,-6.8605,-6.9248,-6.9992,-7.0703,-7.1109,-7.1312,-7.1312,-7.1312,-7.1312,-7.1312,-7.0939,-7.0635,-7.0635,-7.0635,-7.0466,-7.006,-7.0331,-7.0432,-5.871,-5.9223,-5.7644,-5.7405,-5.7873,-5.6927,-5.6274,-5.5681,-5.4156,-5.3518,-5.3518,-5.3885,-5.3676,-5.3096,-5.4068,0.0,-5.3232,-5.5314,-5.6437,-5.69,-5.6833,-5.7205,-5.7881,-5.7814,-5.7814,-5.7915,-5.8812,-5.8405,-5.6968,-5.7725,-5.6944,-5.4735,-5.46,-5.4262,-5.3719,-5.4262,-5.4938,-5.5615,-5.5683,-5.6055,-5.6765,-5.6089,-5.6393,-5.7746,-5.7103,-5.6697,-5.6697,-5.6089,-5.5378,-5.4634,-5.426,-5.2895,-5.0521,0.0,0.0,0.0,0.0,0.0,0.0,0.0,0.0,0.0,0.0,0.0,0.0,0.0,0.0,0.0,-5.4228,0.0,-5.7103,-5.9641,0.0,0.0,0.0,-6.4166,-6.4561,-6.6787,-6.8676,-6.9492,0.0,0.0,-7.1312,0.0,-7.2056,-7.1413,-7.077,-7.0364,-7.0364,-7.0906,-7.1222,-7.0906,-7.1637,-7.2168,-7.1681,-7.0186,-6.8808,-6.8132,-6.8538,-6.9248,-6.9992,-7.0703,-7.1142,-7.1176,-7.1244,-7.1244,-7.1312,-7.121,-7.1244,-7.1244,-7.121,-7.1176,-7.1176,-7.1142,-7.0906,-6.0311,-6.1006,-6.0591,-5.9823,-5.879,-5.7427,-5.642,-5.5617,-5.4156,-5.3518,-5.3551,-5.4228,-5.4669,-5.4974,-5.5281,-5.5586,-5.589,-5.6433,-5.7006,-5.7577,-5.7036,-5.7171,-5.7848,-5.7306,-5.734,-5.7881,-5.8124,-5.8056,-5.7611,-5.7311,-5.6599,-5.548,-5.4871,-5.4228,-5.3619,-5.4228,-5.4668,-5.4871,-5.5446,-5.6055,-5.6731,-5.6089,-5.6122,-5.7036,-5.6359,-5.5987,-5.5953,-5.5818,-5.5378,-5.4634,-5.4465,-5.3448,-5.1112,-5.0243,0.0,0.0,0.0,0.0,0.0,0.0,0.0,0.0,0.0,-4.9249,-4.759,0.0,-5.3109,0.0,-5.5953,-5.8152,-6.0047,-6.0935,0.0,0.0,-6.5175,-6.648,-6.8506,-6.8965,-6.9576,-7.0724,-7.1109,-7.1312,-7.1312,-7.1481,-7.1515,-7.1345,-7.165,-7.1853,-7.1887,-7.1515,-7.1312,-7.1222,-7.1391,-7.1582,-7.1357,-7.0107,-6.8808,-6.803,-6.8064,-6.8436,-6.9214,-6.9958,-7.0466,-7.0466,-7.0466,-7.0669,-7.121,-7.0872,-7.0737,-7.1109,-7.0872,-7.0635,-7.1176,-7.0872,-7.0567,-6.0456,-6.0518,-6.0564,-6.0191,-5.9528,-5.8089,-5.6796,-5.5617,-5.4156,-5.3518,-5.3551,-5.4262,-5.4634,-5.4803,-5.575,-5.6224,-5.6359,-5.6968,-5.7509,-5.7848,-5.7476,-5.7509,-5.7881,-5.7476,-5.7509,-5.7881,-5.7881,-5.7881,-5.7848,-5.7509,-5.6934,-5.619,-5.5446,-5.4735,-5.4025,-5.4059,-5.4499,-5.5212,-5.5245,-5.5412,-5.5784,-5.5108,-5.5412,-5.6874,-5.5854,-5.5448,-5.5822,-5.5448,-5.4871,-5.4262,-5.4296,-5.3719,-5.2397,-5.1566,-5.0605,0.0,0.0,0.0,0.0,0.0,0.0,0.0,0.0,0.0,0.0,0.0,-5.6297,-5.7915,-5.9776,-6.167,-6.3599,-6.4729,-6.5846,-6.7083,-6.7964,-6.8999,-7.006,-7.0216,-7.0487,-7.121,-7.1312,-7.1312,-7.1312,-7.1312,-7.1312,-7.1312,-7.165,-7.1921,-7.1887,-7.1548,-7.1312,-7.1312,-7.1312,-7.1041,-7.0466,-6.9654,-6.8707,-6.7692,-6.7692,-6.8166,-6.8944,-6.9417,-6.9789,-7.0094,-7.0195,-7.0297,-7.0703,-7.0804,-7.0838,-7.1075,-7.0703,-7.0534,-7.1142,-7.0973,-7.0838,-6.0162,-5.9527,-5.9357,-5.9475,-5.9665,-5.8414,-5.7253,-5.6056,-5.4627,-5.3956,-5.3957,-5.4398,-5.4329,-5.4059,-5.5818,-5.6359,-5.5953,-5.7171,-5.7746,-5.7746,-5.7746,-5.7814,-5.7881,-5.778,-5.7814,-5.7881,-5.7881,-5.7881,-5.7881,-5.778,-5.7374,-5.6664,-5.5919,-5.5243,-5.4669,-5.3856,-5.4195,-5.5655,-5.5008,-5.4703,-5.477,-5.4093,-5.4737,-5.6777,-5.5348,-5.4838,-5.5621,-5.494,-5.4364,-5.3854,-5.4088,-5.4156,-5.3955,-5.2861,-5.269,0.0,-5.2765,0.0,0.0,0.0,0.0,0.0,0.0,0.0,0.0,-5.778,-5.9979,-6.2662,-6.4241,-6.573,-6.7117,-6.9011,-6.9958,-6.9485,-7.0534,-7.1041,-7.0466,-7.0906,-7.1312,-7.1312,-7.1312,-7.1312,-7.1312,-7.1312,-7.1312,-7.1312,-7.1345,-7.1379,-7.1345,-7.1312,-7.1278,-7.121,-7.1075,-7.05,-6.9654,-6.9248,-6.8673,-6.7523,-6.7726,-6.8267,-6.8977,-6.9214,-6.9485,-7.0026,-7.0195,-7.0229,-7.0297,-7.0804,-7.1142,-7.1278,-7.0804,-7.0601,-7.1109,-7.1142,-7.121,-6.13,-6.1031,-5.9844,-5.8573,-5.749,-5.6615,-5.6962,-5.8002,-5.7143,-5.6482,-5.5891,-5.4975,-5.5175,-5.6156,-5.5987,-5.6156,-5.6596,-5.6867,-5.7002,-5.7002,-5.7002,-5.734,-5.7848,-5.7273,-5.7306,-5.7848,-5.7881,-5.7881,-5.7881,-5.7306,-5.663,-5.5919,-5.5175,-5.4804,-5.4771,0.0,0.0,0.0,-5.4568,-5.5213,-5.586,-5.5111,-5.5213,-5.6269,-5.4669,0.0,-5.3991,-5.4363,-5.4532,-5.4465,-5.5041,0.0,0.0,0.0,0.0,0.0,0.0,0.0,0.0,0.0,0.0,0.0,-6.0517,-5.9865,-5.7814,-6.1603,-6.4525,-6.5298,-6.7066,-6.8605,-6.9451,-6.9925,-7.0364,-7.0872,-7.1142,-7.1244,-7.1109,-7.1244,-7.1312,-7.1312,-7.1312,-7.1312,-7.1312,-7.1312,-7.1312,-7.1312,-7.1312,-7.1312,-7.1312,-7.1312,-7.1075,-7.05,-7.006,-6.9722,-6.9958,-6.9485,-6.9011,-6.8741,-6.8741,-6.891,-6.9079,-6.9553,-6.9925,-7.0128,-7.0195,-7.0364,-7.0906,-7.0737,-7.0669,-7.121,-7.1176,-7.1142,-7.1278,-7.0838,-7.0567,-6.0896,0.0,-5.8591,-5.7815,0.0,-5.6152,-5.6599,-5.7926,-5.624,-5.5338,-5.4974,-5.4737,-5.5006,-5.575,-5.6335,-5.6814,-5.7223,-5.815,-5.8321,-5.7769,-5.8072,-5.8099,-5.7881,-5.7509,-5.7509,-5.7881,-5.7881,-5.7712,-5.7374,-5.734,-5.6968,-5.6224,-5.5513,-5.5211,-5.5246,-5.4127,-5.3518,-5.3518,-5.3957,-5.4432,-5.4805,-5.4432,-5.4669,-5.5485,0.0,0.0,0.0,0.0,0.0,0.0,0.0,0.0,0.0,0.0,0.0,-5.8502,-5.9016,-5.9389,-5.9797,-6.1265,-6.2174,-6.2503,-6.3555,-6.3306,-6.1332,-6.4309,-6.6625,-6.7489,-6.8861,-6.9925,-7.0669,-7.0737,-7.0906,-7.1278,-7.1312,-7.1312,-7.1312,-7.1312,-7.1312,-7.1312,-7.1312,-7.1312,-7.1312,-7.1312,-7.1312,-7.1312,-7.1312,-7.1312,-7.1312,-7.1312,-7.1142,-7.077,-7.0128,-6.9755,-7.0026,-6.9586,-6.9113,-6.9079,-6.9079,-6.9079,-6.9079,-6.9079,-6.9045,-6.9079,-6.935,-6.9789,-7.0128,-7.0466,-7.0872,-7.121,-7.1312,-7.1312,-7.1312,-7.1007,-7.0838,-6.0126,-5.816,-5.7245,-5.7132,-5.7424,-5.6038,-5.5923,-5.6669,0.0,0.0,0.0,-5.4262,-5.4465,-5.4736,-5.6304,-5.7124,-5.7398,-5.9013,-5.9219,-5.8425,-5.9037,-5.8749,-5.7881,-5.7881,-5.7881,-5.7881,-5.7881,-5.7577,-5.7036,-5.7611,-5.7509,-5.6799,-5.619,-5.5784,-5.5446,-5.4329,-5.3687,-5.3687,-5.3754,-5.3754,-5.3754,-5.389,-5.4296,-5.5111,-5.4907,-5.5143,-5.5927,-5.5888,-5.6057,-5.6299,-5.6575,-5.7221,-5.8439,-5.8787,-5.9871,-6.1975,-6.2448,-6.2854,-6.3497,-6.4309,-6.4613,-6.414,-6.5189,-6.5628,-6.5019,-6.6237,-6.759,-6.9011,-6.9755,-7.05,-7.1244,-7.1312,-7.1312,-7.1312,-7.1312,-7.1312,-7.1312,-7.1312,-7.1312,-7.1312,-7.1312,-7.1312,-7.1312,-7.1312,-7.1312,-7.1312,-7.1312,-7.1244,-7.1142,-7.1041,-7.1109,-7.1142,-7.0432,-6.9992,-7.0263,-6.9823,-6.9383,-6.9586,-6.9553,-6.9485,-6.9383,-6.8944,-6.8538,-6.8842,-6.9113,-6.9519,-6.962,-7.05,-7.1278,-7.1312,-7.1312,-7.1312,-7.1312,-7.1312,-7.1278,-5.9979,-5.8893,-5.7463,-5.6546,-5.5922,-5.5113,-5.4505,-5.4158,-5.4832,-5.5135,-5.5069,-5.4058,-5.3991,-5.46,-5.4872,-5.5381,-5.606,-5.6944,-5.7179,0.0,-5.7751,-5.8056,-5.7881,-5.7881,-5.7881,-5.7881,-5.7881,-5.7848,-5.7746,-5.7814,-5.7509,-5.6867,-5.6697,-5.6021,-5.4837,-5.4532,-5.4431,-5.4431,-5.4635,-5.477,-5.487,-5.5383,-5.5758,-5.5962,-5.5722,-5.5615,-5.5716,-5.6325,-5.6934,-5.7649,-5.8259,-5.9004,-5.9817,-6.0495,-6.1104,-6.1467,-6.2651,-6.3396,-6.3531,-6.4783,-6.5764,-6.6305,-6.6542,-6.6609,-6.6542,-6.7286,-6.8132,-6.9045,-6.9755,-7.05,-7.121,-7.1312,-7.1312,-7.1312,-7.1312,-7.1312,-7.1312,-7.1312,-7.1312,-7.1312,-7.1312,-7.1312,-7.1312,-7.1312,-7.1312,-7.1312,-7.1244,-7.1075,-7.05,-7.0331,-7.0635,-7.0973,-7.0128,-6.9891,-7.0703,-7.05,-7.0263,-7.0906,-7.0906,-7.0804,-7.0703,-7.0601,-7.0432,-7.0703,-7.0635,-7.0804,-7.0838,-7.1142,-7.1312,-7.1312,-7.1312,-7.1312,-7.1312,-7.1312,-7.1312,-6.0089,-5.8527,-5.7833,-5.6815,-5.561,-5.4482,-5.3849,-5.3518,-5.4091,-5.4395,-5.4294,-5.3788,-5.4126,-5.5175,-5.5519,-5.6269,-5.7326,-5.8323,-5.846,-5.7871,-5.8515,-5.8472,-5.7915,-5.7881,-5.7881,-5.7881,-5.7881,-5.7679,-5.7374,-5.7679,-5.7543,-5.6833,-5.6799,-5.6055,-5.4702,-5.5006,-5.4803,-5.4025,-5.4059,-5.4398,-5.4839,-5.5111,-5.5281,-5.5349,-5.5888,-5.6292,-5.6325,-5.7002,-5.7712,-5.8457,-5.8829,-5.9539,-6.0689,-6.1095,-6.167,-6.2448,-6.3497,-6.4275,-6.4681,-6.5696,-6.644,-6.6779,-6.6812,-6.6812,-6.6812,-6.7489,-6.8233,-6.9011,-6.9755,-7.05,-7.121,-7.1312,-7.1312,-7.1312,-7.1312,-7.1312,-7.1312,-7.1312,-7.1312,-7.1312,-7.1312,-7.1312,-7.1312,-7.1312,-7.1312,-7.1278,-7.1007,-7.0432,-6.9755,-6.9958,-7.0297,-7.0567,-7.0128,-7.0229,-7.1041,-7.0669,-7.0567,-7.121,-7.1312,-7.1142,-7.0838,-7.0737,-7.0567,-7.0263,-7.0432,-7.0669,-7.0737,-7.1075,-7.1244,-7.1312,-7.1312,-7.1312,-7.1312,-7.1312,-7.1312,-6.0162,-5.828,-5.8128,-5.7119,-5.561,-5.4106,-5.3518,-5.3518,-5.3687,-5.3653,-5.3518,-5.3518,-5.4228,-5.5482,-5.6065,-5.6987,-5.8288,-5.9357,-5.9321,-5.8629,-5.8999,-5.8715,-5.7915,-5.7881,-5.7881,-5.7881,-5.7881,-5.7611,-5.7171,-5.7611,-5.7611,-5.7103,-5.7036,-5.6393,-5.5108,-5.5683,-5.5378,-5.4329,-5.4093,-5.4194,-5.4566,-5.4905,-5.5108,-5.5175,-5.6528,-5.7306,-5.734,-5.7983,-5.8727,-5.9471,-5.9539,-6.0216,-6.1637,-6.1637,-6.2144,-6.3396,-6.4208,-6.4986,-6.5865,-6.6474,-6.6812,-6.6812,-6.6812,-6.6812,-6.6846,-6.732,-6.8064,-6.8977,-6.9586,-7.0297,-7.1109,-7.1312,-7.1312,-7.1312,-7.1312,-7.1312,-7.1312,-7.1312,-7.1312,-7.1312,-7.1312,-7.1312,-7.1312,-7.1312,-7.121,-7.0973,-7.0534,-6.9925,-6.935,-6.962,-6.9925,-7.0195,-7.0297,-7.0534,-7.1007,-7.077,-7.0737,-7.1244,-7.1312,-7.1109,-7.0703,-7.05,-7.0297,-6.9992,-7.0161,-7.0398,-7.0331,-7.0804,-7.1142,-7.1075,-7.1142,-7.1312,-7.1312,-7.1312,-7.1312,-5.9979,-5.9061,-5.8307,-5.7102,-5.5588,-5.4141,-5.3585,-5.3653,-5.4194,-5.4093,-5.3619,-5.3518,-5.3991,-5.4735,-5.5516,-5.6261,-5.7074,-5.7823,-5.8095,-5.8027,-5.8022,-5.8022,-5.7881,-5.7881,-5.7881,-5.7881,-5.7881,-5.7848,-5.7746,-5.7814,-5.7848,-5.778,-5.778,-5.7374,-5.6664,-5.6664,-5.6596,-5.6461,-5.5852,-5.5209,-5.4702,-5.5919,-5.6596,-5.663,-5.8017,-5.8795,-5.8727,-5.9505,-6.025,-6.0994,-6.1061,-6.1738,-6.3024,-6.2651,-6.2651,-6.3497,-6.4208,-6.5189,-6.6508,-6.6779,-6.6812,-6.6812,-6.6812,-6.6812,-6.6812,-6.688,-6.7523,-6.8741,-6.9147,-6.9857,-7.1109,-7.1312,-7.1312,-7.1312,-7.1312,-7.1312,-7.1312,-7.1312,-7.1312,-7.1312,-7.1312,-7.1312,-7.1312,-7.1312,-7.1041,-7.0364,-7.0161,-6.9789,-6.9147,-6.9079,-6.9451,-7.006,-7.0703,-7.0838,-7.0635,-7.0872,-7.1109,-7.1278,-7.1312,-7.121,-7.1109,-7.1109,-7.1142,-7.0804,-7.0973,-7.0872,-7.0635,-7.077,-7.1075,-7.0804,-7.0973,-7.1312,-7.1312,-7.1312,-7.1312,-6.0066,-5.8514,-5.8187,-5.7155,-5.5672,-5.5007,-5.4803,-5.4837,-5.5141,-5.5074,-5.4837,-5.4803,-5.4972,-5.531,-5.6021,-5.6765,-5.7442,-5.7746,-5.7881,-5.7881,-5.7881,-5.7881,-5.7881,-5.7881,-5.7881,-5.7881,-5.7881,-5.7881,-5.7881,-5.7881,-5.7881,-5.7881,-5.7881,-5.7543,-5.6867,-5.7239,-5.7036,-5.6224,-5.6731,-5.663,-5.6055,-5.6494,-5.6799,-5.6934,-5.8254,-5.8998,-5.9066,-5.9708,-6.0486,-6.1231,-6.1298,-6.1975,-6.3429,-6.3226,-6.3396,-6.4106,-6.485,-6.5696,-6.6745,-6.6812,-6.6812,-6.6812,-6.6812,-6.6812,-6.6812,-6.6812,-6.7286,-6.8199,-6.8808,-6.9553,-7.05,-7.1041,-7.1312,-7.1312,-7.1312,-7.1312,-7.1312,-7.1312,-7.1312,-7.1312,-7.1312,-7.1312,-7.1312,-7.1312,-7.0804,-6.9857,-6.9553,-6.9282,-6.8571,-6.8368,-6.8741,-6.9451,-7.0161,-7.0703,-7.077,-7.1075,-7.1278,-7.1312,-7.1312,-7.1312,-7.1312,-7.1312,-7.1312,-7.1312,-7.1312,-7.1244,-7.0973,-7.1007,-7.1176,-7.0906,-7.0939,-7.1312,-7.1312,-7.1312,-7.1312,-6.0171,-5.8484,-5.7942,-5.7094,-5.5968,-5.5758,-5.5716,-5.575,-5.5919,-5.5919,-5.575,-5.6122,-5.619,-5.6122,-5.6562,-5.7205,-5.7814,-5.7881,-5.7881,-5.7881,-5.7881,-5.7881,-5.7881,-5.7881,-5.7881,-5.7881,-5.7881,-5.7881,-5.7881,-5.7881,-5.7881,-5.7881,-5.7881,-5.7645,-5.7205,-5.7645,-5.7374,-5.6528,-5.7408,-5.7611,-5.7171,-5.7306,-5.7306,-5.7273,-5.8524,-5.9302,-5.9336,-6.0216,-6.096,-6.1569,-6.1603,-6.2279,-6.3666,-6.3632,-6.3937,-6.4783,-6.5189,-6.5797,-6.6745,-6.6812,-6.6812,-6.6812,-6.6812,-6.6812,-6.6812,-6.6812,-6.7049,-6.7557,-6.8335,-6.9113,-7.0094,-7.0872,-7.1278,-7.1312,-7.1312,-7.1312,-7.1312,-7.1312,-7.1312,-7.1312,-7.1312,-7.121,-7.1109,-7.1109,-7.0737,-6.918,-6.8977,-6.8944,-6.8301,-6.7996,-6.7996,-6.9113,-6.9586,-6.9789,-7.0567,-7.1109,-7.1176,-7.1109,-7.1075,-7.1312,-7.1312,-7.1312,-7.1312,-7.1312,-7.1312,-7.1142,-7.0838,-7.0939,-7.1312,-7.1312,-7.1312,-7.1312,-7.1312,-7.1312,-7.1176,-5.9988,-5.8956,-5.7548,-5.6888,-5.6694,-5.603,-5.575,-5.5919,-5.6494,-5.6393,-5.6055,-5.7137,-5.7374,-5.6765,-5.6833,-5.7205,-5.7814,-5.7881,-5.7881,-5.7881,-5.7881,-5.7881,-5.7881,-5.7881,-5.7881,-5.7881,-5.7881,-5.7881,-5.7881,-5.7881,-5.7881,-5.7881,-5.7881,-5.7881,-5.7848,-5.7915,-5.7881,-5.7848,-5.7983,-5.7949,-5.7983,-5.8558,-5.8558,-5.8118,-5.9268,-6.0047,-6.0216,-6.1467,-6.2279,-6.2347,-6.2279,-6.299,-6.4275,-6.3937,-6.4275,-6.5392,-6.5087,-6.5358,-6.6609,-6.6812,-6.6812,-6.6812,-6.6812,-6.6812,-6.6812,-6.6812,-6.6846,-6.6914,-6.7624,-6.8605,-6.9823,-7.0567,-7.1142,-7.121,-7.1278,-7.1244,-7.1312,-7.1312,-7.1312,-7.1312,-7.1312,-7.1041,-7.0432,-7.0872,-7.0161,-6.8842,-6.8639,-6.9011,-6.8808,-6.7827,-6.7963,-6.9113,-6.9113,-6.8301,-6.9147,-7.0331,-7.077,-7.0872,-7.1109,-7.1312,-7.1312,-7.1312,-7.1312,-7.1312,-7.1312,-7.1109,-7.0635,-7.0703,-7.1142,-7.1312,-7.1312,-7.1312,-7.1312,-7.1312,-7.1075,-5.9628,-5.8357,-5.7226,-5.6815,-5.6814,-5.7043,-5.7103,-5.7137,-5.7374,-5.734,-5.7205,-5.7679,-5.7746,-5.7509,-5.7509,-5.7645,-5.7881,-5.7881,-5.7881,-5.7881,-5.7881,-5.7881,-5.7881,-5.7881,-5.7881,-5.7881,-5.7881,-5.7881,-5.7881,-5.7881,-5.7881,-5.7881,-5.7881,-5.8118,-5.8524,-5.8592,-5.8829,-5.9235,-5.9302,-5.9302,-5.9268,-5.9573,-5.9573,-5.937,-6.0317,-6.0858,-6.0858,-6.1873,-6.2415,-6.2415,-6.2415,-6.3057,-6.4444,-6.5256,-6.5831,-6.6305,-6.6136,-6.6237,-6.6745,-6.6812,-6.6812,-6.6812,-6.6812,-6.6812,-6.6812,-6.6812,-6.6812,-6.6948,-6.7489,-6.8233,-6.8673,-6.9417,-7.0094,-7.05,-7.0601,-7.0838,-7.1176,-7.1312,-7.1312,-7.1312,-7.1312,-7.1007,-7.0466,-7.0432,-6.9857,-6.8335,-6.8166,-6.8571,-6.8774,-6.7793,-6.7692,-6.9248,-6.8944,-6.8166,-6.8977,-6.9891,-7.0567,-7.0939,-7.1176,-7.1244,-7.1278,-7.121,-7.121,-7.1312,-7.1312,-7.1244,-7.0872,-7.0939,-7.1312,-7.1312,-7.1312,-7.1312,-7.1312,-7.1075,-7.0703,-5.8967,-5.7981,-5.7389,-5.7171,-5.7205,-5.7679,-5.7881,-5.7881,-5.7881,-5.7881,-5.7881,-5.7881,-5.7881,-5.7881,-5.7881,-5.7881,-5.7881,-5.7881,-5.7881,-5.7881,-5.7881,-5.7881,-5.7881,-5.7881,-5.7881,-5.7881,-5.7881,-5.7881,-5.7881,-5.7881,-5.8017,-5.822,-5.8254,-5.8626,-5.9235,-5.937,-5.9641,-6.0047,-6.008,-6.008,-6.0114,-6.0351,-6.0486,-6.0588,-6.1231,-6.1535,-6.1332,-6.2009,-6.2415,-6.2415,-6.2415,-6.3057,-6.4512,-6.5764,-6.6576,-6.6745,-6.6576,-6.6576,-6.6779,-6.6812,-6.6812,-6.6812,-6.6812,-6.6812,-6.6812,-6.6812,-6.6812,-6.6981,-6.7455,-6.7895,-6.8064,-6.8639,-6.9383,-7.006,-7.0398,-7.0737,-7.121,-7.1312,-7.1312,-7.1312,-7.1312,-7.0973,-7.0364,-7.0229,-6.9586,-6.8436,-6.8301,-6.8571,-6.8808,-6.8368,-6.7793,-6.9113,-6.8842,-6.8436,-6.8842,-6.9519,-6.9925,-7.0297,-7.077,-7.0939,-7.1007,-7.1007,-7.1075,-7.121,-7.1278,-7.1312,-7.1312,-7.1312,-7.1312,-7.1312,-7.1312,-7.1312,-7.1075,-7.0703,-7.0297,-5.7954,-5.7887,-5.7881,-5.7814,-5.7814,-5.7848,-5.7881,-5.7881,-5.7881,-5.7881,-5.7881,-5.7881,-5.7881,-5.7881,-5.7881,-5.7881,-5.7881,-5.7881,-5.7881,-5.7881,-5.7881,-5.7881,-5.7881,-5.7881,-5.7881,-5.7881,-5.7881,-5.7881,-5.7881,-5.7983,-5.8321,-5.8863,-5.8998,-5.9404,-6.0114,-6.0114,-6.0148,-6.0283,-6.0351,-6.025,-6.0216,-6.0926,-6.1298,-6.1366,-6.1975,-6.2009,-6.14,-6.2009,-6.2415,-6.2482,-6.2482,-6.3125,-6.4546,-6.5459,-6.6102,-6.6609,-6.617,-6.6136,-6.6711,-6.6812,-6.6812,-6.6812,-6.6812,-6.6812,-6.6812,-6.6812,-6.6812,-6.6914,-6.7455,-6.7895,-6.803,-6.8707,-6.9485,-7.0094,-7.0669,-7.1075,-7.1278,-7.1312,-7.1312,-7.1312,-7.1312,-7.1007,-7.0432,-7.006,-6.9654,-6.9147,-6.8876,-6.8944,-6.918,-6.8944,-6.8673,-6.8436,-6.8571,-6.8808,-6.8876,-6.9045,-6.9248,-6.9485,-7.006,-7.0398,-7.0432,-7.0432,-7.0567,-7.0737,-7.0939,-7.0973,-7.1312,-7.1312,-7.1312,-7.1312,-7.1312,-7.1312,-7.1075,-7.0737,-6.9992,-5.7881,-5.7881,-5.7881,-5.7881,-5.7881,-5.7881,-5.7881,-5.7881,-5.7881,-5.7881,-5.7881,-5.7881,-5.7881,-5.7881,-5.7881,-5.7881,-5.7881,-5.7881,-5.7881,-5.7881,-5.7881,-5.7881,-5.7881,-5.7881,-5.7881,-5.7881,-5.7881,-5.7881,-5.7983,-5.8423,-5.8795,-5.9066,-5.9539,-6.0182,-6.0892,-6.0926,-6.1129,-6.1637,-6.167,-6.167,-6.167,-6.1907,-6.2042,-6.2076,-6.2279,-6.2245,-6.2076,-6.2279,-6.2618,-6.3125,-6.3159,-6.3835,-6.5155,-6.6034,-6.6542,-6.6745,-6.6609,-6.6508,-6.6745,-6.6812,-6.6812,-6.6812,-6.6812,-6.6812,-6.6812,-6.6812,-6.6812,-6.688,-6.7455,-6.7895,-6.8098,-6.9113,-6.9891,-7.0161,-7.0398,-7.0838,-7.1244,-7.1312,-7.1312,-7.1312,-7.1312,-7.0973,-7.0297,-6.9891,-6.9485,-6.9248,-6.8774,-6.8673,-6.9485,-6.9383,-6.9079,-6.8808,-6.9045,-6.8977,-6.8876,-6.8876,-6.9011,-6.9011,-6.935,-6.9688,-6.9722,-6.9722,-6.9925,-7.0364,-7.0567,-7.0872,-7.1176,-7.1312,-7.1312,-7.1312,-7.1312,-7.1278,-7.1244,-7.0669,-6.9789,-5.7881,-5.7881,-5.7881,-5.7881,-5.7881,-5.7881,-5.7881,-5.7881,-5.7881,-5.7881,-5.7881,-5.7881,-5.7881,-5.7881,-5.7881,-5.7881,-5.7881,-5.7881,-5.7881,-5.7881,-5.7881,-5.7881,-5.7881,-5.7881,-5.7881,-5.7949,-5.8186,-5.8321,-5.8355,-5.9032,-5.9573,-5.9911,-6.0317,-6.0926,-6.1637,-6.1704,-6.1975,-6.2347,-6.2381,-6.2415,-6.2415,-6.2415,-6.2415,-6.2381,-6.2415,-6.2516,-6.2753,-6.2821,-6.3024,-6.3531,-6.4005,-6.4783,-6.5662,-6.6373,-6.6812,-6.6812,-6.6812,-6.6812,-6.6812,-6.6812,-6.6812,-6.6812,-6.6812,-6.6812,-6.6812,-6.6812,-6.6812,-6.6914,-6.7455,-6.7996,-6.847,-6.9417,-7.0229,-7.0601,-7.0669,-7.0804,-7.1244,-7.1312,-7.1312,-7.1312,-7.1312,-7.1075,-7.0635,-6.9992,-6.9688,-6.9722,-6.9248,-6.8707,-6.962,-6.962,-6.935,-6.9079,-6.8944,-6.8808,-6.8673,-6.8707,-6.8774,-6.8707,-6.8639,-6.8842,-6.8944,-6.8842,-6.891,-7.006,-7.0567,-7.0973,-7.1278,-7.1312,-7.1312,-7.1312,-7.1278,-7.1109,-7.0906,-7.0195,-6.9383,-5.7881,-5.7881,-5.7881,-5.7881,-5.7881,-5.7881,-5.7881,-5.7881,-5.7881,-5.7881,-5.7881,-5.7881,-5.7881,-5.7881,-5.7881,-5.7881,-5.7881,-5.7881,-5.7881,-5.7881,-5.7881,-5.7881,-5.7881,-5.8017,-5.8084,-5.8152,-5.8761,-5.9032,-5.9099,-5.981,-6.052,-6.1061,-6.1264,-6.167,-6.2212,-6.2381,-6.2448,-6.2381,-6.2482,-6.2516,-6.2415,-6.2415,-6.2415,-6.2415,-6.2415,-6.2719,-6.3294,-6.3599,-6.37,-6.3835,-6.4986,-6.5696,-6.5899,-6.644,-6.6812,-6.6812,-6.6812,-6.6812,-6.6812,-6.6812,-6.6812,-6.6812,-6.6812,-6.6812,-6.6812,-6.6812,-6.6812,-6.6846,-6.7489,-6.8199,-6.8944,-6.9722,-7.0466,-7.1142,-7.1075,-7.1109,-7.1278,-7.1244,-7.1176,-7.1278,-7.1312,-7.1278,-7.1176,-7.0567,-7.0534,-7.0804,-7.0432,-6.9857,-6.9654,-6.9688,-6.9383,-6.918,-6.9011,-6.8944,-6.8876,-6.8436,-6.847,-6.8267,-6.8132,-6.8098,-6.8301,-6.8267,-6.8436,-6.9553,-7.0432,-7.0906,-7.121,-7.1176,-7.1244,-7.1312,-7.1142,-7.0872,-7.0398,-6.9789,-6.9079,-5.7881,-5.7881,-5.7881,-5.7881,-5.7881,-5.7881,-5.7881,-5.7881,-5.7881,-5.7881,-5.7881,-5.7881,-5.7915,-5.7881,-5.7881,-5.7881,-5.7881,-5.7881,-5.7881,-5.7881,-5.7881,-5.7881,-5.8017,-5.8457,-5.8693,-5.8829,-5.9438,-5.981,-5.9877,-6.0622,-6.1095,-6.1332,-6.1839,-6.2144,-6.2415,-6.2922,-6.2888,-6.255,-6.299,-6.2922,-6.2482,-6.2415,-6.2415,-6.2415,-6.2415,-6.2821,-6.3565,-6.458,-6.5121,-6.5189,-6.5967,-6.6508,-6.6508,-6.6711,-6.6812,-6.6812,-6.6812,-6.6812,-6.6812,-6.6812,-6.6812,-6.6812,-6.6812,-6.6812,-6.6812,-6.6812,-6.6812,-6.6948,-6.7489,-6.8199,-6.9011,-6.9789,-7.05,-7.1075,-7.0872,-7.077,-7.1109,-7.0838,-7.0669,-7.1176,-7.1312,-7.1312,-7.1176,-7.0804,-7.0534,-7.0973,-7.0737,-7.0094,-6.9891,-7.0195,-7.0094,-6.9553,-6.9316,-6.9248,-6.9045,-6.847,-6.8098,-6.7861,-6.7658,-6.7455,-6.776,-6.7996,-6.8402,-6.918,-6.9789,-7.0263,-7.0669,-7.0872,-7.1041,-7.1041,-7.0432,-6.9925,-6.9992,-6.962,-6.8842,-5.7881,-5.7881,-5.7881,-5.7881,-5.7881,-5.7881,-5.7881,-5.7881,-5.7881,-5.7881,-5.7949,-5.8254,-5.8186,-5.7949,-5.822,-5.8152,-5.7915,-5.7881,-5.7881,-5.7881,-5.7881,-5.8051,-5.8389,-5.8863,-5.9167,-5.9573,-6.025,-6.0554,-6.0723,-6.14,-6.1704,-6.1839,-6.2178,-6.2381,-6.2448,-6.3091,-6.3328,-6.3057,-6.3565,-6.3599,-6.2922,-6.2854,-6.2651,-6.2584,-6.2685,-6.3328,-6.441,-6.5561,-6.6034,-6.5899,-6.6373,-6.6812,-6.6812,-6.6812,-6.6812,-6.6812,-6.6812,-6.6812,-6.6812,-6.6812,-6.6812,-6.6812,-6.6812,-6.6812,-6.6812,-6.6812,-6.6812,-6.688,-6.7252,-6.7963,-6.9011,-7.0026,-7.077,-7.1142,-7.0635,-7.0534,-7.1244,-7.0973,-7.0906,-7.1176,-7.1312,-7.1312,-7.1312,-7.0872,-7.0939,-7.1142,-7.1007,-7.0364,-6.9891,-7.0466,-7.0601,-6.9857,-6.9248,-6.9045,-6.8808,-6.8301,-6.7692,-6.7421,-6.7354,-6.7117,-6.7421,-6.7793,-6.8132,-6.8639,-6.9147,-6.962,-6.9992,-7.0297,-7.0297,-7.006,-6.9417,-6.9113,-6.9147,-6.9113,-6.8368,-5.7983,-5.8017,-5.7915,-5.7881,-5.7881,-5.7881,-5.7881,-5.7881,-5.8017,-5.8051,-5.822,-5.8829,-5.8795,-5.8152,-5.8896,-5.8761,-5.8186,-5.8186,-5.7983,-5.7915,-5.7949,-5.8254,-5.9099,-5.9201,-5.9641,-6.0283,-6.1028,-6.1366,-6.1535,-6.2076,-6.2347,-6.2313,-6.2347,-6.2482,-6.2753,-6.3328,-6.3599,-6.3768,-6.4343,-6.4309,-6.3768,-6.3599,-6.3362,-6.3091,-6.3565,-6.4343,-6.5392,-6.6271,-6.6508,-6.5831,-6.6474,-6.6779,-6.6812,-6.6812,-6.6812,-6.6812,-6.6812,-6.6812,-6.6812,-6.6812,-6.6914,-6.6981,-6.6914,-6.688,-6.6981,-6.7049,-6.7049,-6.7049,-6.7015,-6.7996,-6.9147,-7.05,-7.1142,-7.1244,-7.0703,-7.0703,-7.1075,-7.1244,-7.121,-7.1312,-7.1312,-7.1312,-7.1312,-7.1312,-7.1312,-7.1244,-7.1075,-7.0635,-7.0229,-7.0466,-7.0331,-6.9688,-6.9147,-6.8707,-6.8402,-6.8064,-6.7455,-6.7015,-6.7015,-6.6981,-6.7354,-6.7624,-6.7827,-6.8199,-6.8876,-6.918,-6.9316,-6.9485,-6.9485,-6.9316,-6.8808,-6.8436,-6.8166,-6.8064,-6.759,-5.8761,-5.8727,-5.8118,-5.7881,-5.7881,-5.7881,-5.7915,-5.7983,-5.8558,-5.8761,-5.893,-5.9539,-5.9742,-5.9573,-5.9742,-5.9742,-5.9438,-5.8964,-5.849,-5.7881,-5.7881,-5.8693,-5.9607,-5.9877,-6.0317,-6.1061,-6.1806,-6.211,-6.2212,-6.2245,-6.2415,-6.2415,-6.2448,-6.2685,-6.326,-6.3869,-6.4377,-6.4478,-6.5087,-6.5053,-6.4512,-6.4377,-6.4275,-6.414,-6.4749,-6.5256,-6.5696,-6.6406,-6.6711,-6.6643,-6.6711,-6.6812,-6.6812,-6.6812,-6.6812,-6.6812,-6.6812,-6.6812,-6.6812,-6.6846,-6.7049,-6.7421,-6.7083,-6.7083,-6.7624,-6.759,-6.7624,-6.776,-6.8233,-6.8808,-6.9789,-7.0737,-7.121,-7.1244,-7.1142,-7.1075,-7.1176,-7.0838,-7.0838,-7.1142,-7.1312,-7.1312,-7.1312,-7.1312,-7.1312,-7.1312,-7.1142,-7.0838,-7.0703,-7.0567,-7.0263,-6.9823,-6.9586,-6.9248,-6.8977,-6.8504,-6.7624,-6.7049,-6.6914,-6.688,-6.7218,-6.7624,-6.7827,-6.8199,-6.8673,-6.8808,-6.8774,-6.8571,-6.8571,-6.8402,-6.8233,-6.7895,-6.7557,-6.7286,-6.7184,-5.9201,-5.9471,-5.9099,-5.893,-5.893,-5.893,-5.893,-5.8998,-5.9336,-5.9539,-5.9674,-6.0317,-6.0452,-6.0148,-6.0452,-6.0486,-5.9979,-5.937,-5.9032,-5.8829,-5.8727,-5.9268,-6.0419,-6.0723,-6.1061,-6.1772,-6.2178,-6.2381,-6.2415,-6.2415,-6.2415,-6.2415,-6.2415,-6.2787,-6.3531,-6.4241,-6.4749,-6.5189,-6.5831,-6.5865,-6.5222,-6.5121,-6.5121,-6.5121,-6.5493,-6.5797,-6.6271,-6.6576,-6.6779,-6.6812,-6.6812,-6.6812,-6.6812,-6.6812,-6.6812,-6.6812,-6.6812,-6.6812,-6.6812,-6.6846,-6.6981,-6.7354,-6.7015,-6.7083,-6.7286,-6.7387,-6.7387,-6.7557,-6.8098,-6.8944,-7.006,-7.0872,-7.1244,-7.1312,-7.1312,-7.1312,-7.1244,-7.0939,-7.0838,-7.121,-7.1312,-7.1312,-7.1312,-7.1312,-7.1312,-7.1312,-7.1278,-7.1007,-7.0669,-7.0567,-7.0567,-7.0297,-7.0161,-6.9958,-6.9688,-6.9011,-6.7929,-6.7387,-6.7083,-6.6981,-6.7049,-6.7455,-6.7895,-6.8166,-6.8368,-6.8199,-6.8098,-6.7895,-6.7726,-6.7557,-6.7421,-6.7218,-6.7117,-6.7049,-6.6981,-5.9708,-6.0283,-6.0148,-6.008,-6.008,-6.0047,-6.0013,-6.0047,-6.025,-6.0283,-6.0419,-6.1129,-6.1129,-6.0757,-6.1197,-6.0994,-6.0351,-5.9844,-5.9742,-5.9776,-5.9404,-5.9979,-6.0926,-6.1264,-6.1569,-6.2313,-6.2381,-6.2415,-6.2415,-6.2415,-6.2415,-6.2415,-6.2415,-6.2922,-6.3666,-6.4275,-6.5019,-6.5831,-6.6373,-6.6474,-6.5967,-6.5865,-6.5865,-6.5899,-6.5933,-6.6203,-6.6609,-6.6779,-6.6812,-6.6812,-6.6812,-6.6812,-6.6812,-6.6812,-6.6812,-6.6812,-6.6812,-6.6812,-6.6812,-6.6846,-6.688,-6.6914,-6.6846,-6.6914,-6.7015,-6.7184,-6.7218,-6.7455,-6.803,-6.9113,-7.0195,-7.0906,-7.1278,-7.1312,-7.1312,-7.1312,-7.1312,-7.1312,-7.1278,-7.1278,-7.1312,-7.1312,-7.1312,-7.1312,-7.1312,-7.1312,-7.1278,-7.1176,-7.0838,-7.0601,-7.0669,-7.0669,-7.0534,-6.9958,-6.9654,-6.9316,-6.8233,-6.7523,-6.7184,-6.7218,-6.7151,-6.7557,-6.7929,-6.7861,-6.7895,-6.7793,-6.7624,-6.7455,-6.7218,-6.688,-6.6846,-6.6948,-6.6914,-6.6846,-6.6812,-6.0994,-6.1061,-6.0385,-6.0114,-6.0114,-6.0114,-6.0182,-6.0216,-6.0858,-6.1095,-6.1197,-6.1839,-6.2076,-6.2009,-6.2076,-6.1772,-6.1129,-6.0757,-6.0554,-6.0317,-6.0047,-6.052,-6.1231,-6.1467,-6.1772,-6.2212,-6.2415,-6.2415,-6.2415,-6.2415,-6.2415,-6.2415,-6.2415,-6.3024,-6.4038,-6.4647,-6.529,-6.6305,-6.6711,-6.6643,-6.6576,-6.6508,-6.6508,-6.6508,-6.6508,-6.6677,-6.6779,-6.6846,-6.6812,-6.6812,-6.6812,-6.6812,-6.6812,-6.6812,-6.6812,-6.6846,-6.6914,-6.6948,-6.6846,-6.6846,-6.7151,-6.7421,-6.7218,-6.7184,-6.7455,-6.7726,-6.7793,-6.8132,-6.8944,-7.0094,-7.1007,-7.121,-7.1278,-7.1312,-7.1312,-7.1312,-7.1312,-7.1312,-7.1312,-7.1312,-7.1312,-7.1312,-7.1312,-7.1312,-7.1312,-7.1312,-7.1312,-7.1278,-7.1109,-7.0939,-7.0872,-7.0872,-7.0804,-7.0128,-6.9451,-6.9147,-6.8504,-6.759,-6.7286,-6.7624,-6.7624,-6.7827,-6.7963,-6.7827,-6.7692,-6.7624,-6.7421,-6.7117,-6.6981,-6.6846,-6.6812,-6.6812,-6.6812,-6.6812,-6.6812,-6.1129,-6.1806,-6.1434,-6.1298,-6.1298,-6.1264,-6.1298,-6.1332,-6.1704,-6.1873,-6.1975,-6.2245,-6.2415,-6.2415,-6.2415,-6.2178,-6.1873,-6.1434,-6.1298,-6.1129,-6.096,-6.1129,-6.1772,-6.1839,-6.2042,-6.2313,-6.2415,-6.2415,-6.2415,-6.2415,-6.2415,-6.2415,-6.2415,-6.3159,-6.4275,-6.4613,-6.5459,-6.6474,-6.6812,-6.6812,-6.6812,-6.6812,-6.6812,-6.6812,-6.688,-6.7015,-6.7286,-6.6914,-6.7015,-6.7218,-6.7015,-6.688,-6.6846,-6.688,-6.6846,-6.6914,-6.7151,-6.7184,-6.7015,-6.7083,-6.7421,-6.7286,-6.7286,-6.7286,-6.759,-6.7963,-6.8571,-6.9147,-6.9485,-7.05,-7.121,-7.1312,-7.1312,-7.1312,-7.1312,-7.1312,-7.1312,-7.1312,-7.1312,-7.1312,-7.1312,-7.1312,-7.1312,-7.1312,-7.1312,-7.1312,-7.1312,-7.1312,-7.1312,-7.121,-7.1041,-7.0534,-7.0364,-6.9722,-6.9045,-6.8774,-6.8504,-6.7726,-6.7252,-6.759,-6.7726,-6.7726,-6.776,-6.7692,-6.759,-6.7624,-6.7252,-6.6981,-6.688,-6.6846,-6.6812,-6.6846,-6.6812,-6.6812,-6.6812,-6.1061,-6.2178,-6.2313,-6.2415,-6.2415,-6.2381,-6.2347,-6.2415,-6.2347,-6.2347,-6.2415,-6.2415,-6.2415,-6.2415,-6.2415,-6.2381,-6.2347,-6.1738,-6.1873,-6.2042,-6.1772,-6.1873,-6.2212,-6.2415,-6.2381,-6.2347,-6.2415,-6.2415,-6.2415,-6.2415,-6.2415,-6.2415,-6.2415,-6.3125,-6.4309,-6.4613,-6.5561,-6.6373,-6.6812,-6.6812,-6.6812,-6.6812,-6.6914,-6.7015,-6.7015,-6.7387,-6.7996,-6.7726,-6.7557,-6.7692,-6.7557,-6.7286,-6.7117,-6.7184,-6.7252,-6.732,-6.7692,-6.7557,-6.7624,-6.776,-6.7895,-6.7387,-6.7793,-6.7658,-6.759,-6.8301,-6.9282,-6.9992,-7.0195,-7.05,-7.1142,-7.1312,-7.1312,-7.1312,-7.1312,-7.1312,-7.1312,-7.1312,-7.1312,-7.1312,-7.1312,-7.1312,-7.1312,-7.1312,-7.1312,-7.1312,-7.1312,-7.1312,-7.1312,-7.1312,-7.1007,-7.0195,-6.9688,-6.9113,-6.8605,-6.8301,-6.8098,-6.7692,-6.7252,-6.7252,-6.7354,-6.7387,-6.7523,-6.7793,-6.776,-6.7726,-6.7286,-6.7083,-6.7218,-6.7218,-6.6981,-6.6846,-6.6812,-6.6812,-6.6812,-6.1264,-6.1501,-6.2144,-6.2415,-6.2415,-6.2415,-6.2415,-6.2415,-6.2415,-6.2415,-6.2415,-6.2415,-6.2415,-6.2415,-6.2415,-6.2415,-6.2347,-6.2279,-6.2212,-6.2347,-6.2245,-6.2212,-6.2381,-6.2415,-6.2415,-6.2415,-6.2415,-6.2415,-6.2415,-6.2415,-6.2415,-6.2415,-6.2584,-6.3125,-6.4444,-6.4715,-6.5358,-6.6542,-6.6812,-6.6812,-6.6812,-6.6812,-6.7117,-6.7489,-6.7726,-6.803,-6.8673,-6.8571,-6.8538,-6.8098,-6.8571,-6.8402,-6.803,-6.847,-6.8741,-6.8639,-6.8402,-6.8166,-6.8571,-6.8842,-6.8605,-6.8098,-6.8504,-6.8436,-6.847,-6.8639,-6.9519,-7.0094,-7.0229,-7.0567,-7.1142,-7.1312,-7.1312,-7.1312,-7.1312,-7.1312,-7.1312,-7.1312,-7.1312,-7.1312,-7.1312,-7.1312,-7.1312,-7.1312,-7.1312,-7.1312,-7.1312,-7.1312,-7.1142,-7.1041,-7.0804,-6.9958,-6.8876,-6.8267,-6.8064,-6.7793,-6.7793,-6.7557,-6.7286,-6.7049,-6.7286,-6.7523,-6.7861,-6.8064,-6.8064,-6.8301,-6.8402,-6.8267,-6.7929,-6.7455,-6.7049,-6.688,-6.6812,-6.6812,-6.6812,-6.1535,-6.1941,-6.2245,-6.2415,-6.2415,-6.2415,-6.2415,-6.2415,-6.2415,-6.2415,-6.2415,-6.2415,-6.2415,-6.2415,-6.2415,-6.2415,-6.2415,-6.2415,-6.2415,-6.2415,-6.2415,-6.2415,-6.2415,-6.2415,-6.2415,-6.2415,-6.2415,-6.2415,-6.2415,-6.2415,-6.2415,-6.2448,-6.2821,-6.3531,-6.458,-6.5019,-6.5797,-6.6542,-6.6812,-6.6812,-6.6812,-6.6846,-6.6981,-6.732,-6.7692,-6.8335,-6.891,-6.9079,-6.9214,-6.9011,-6.9282,-6.8944,-6.8707,-6.8944,-6.9214,-6.9688,-6.9417,-6.9214,-6.9147,-6.9485,-6.9214,-6.8977,-6.9248,-6.9722,-6.9722,-6.9722,-7.0026,-7.077,-7.0838,-7.1007,-7.121,-7.1312,-7.1312,-7.1312,-7.1312,-7.1312,-7.1312,-7.1312,-7.1312,-7.1312,-7.1312,-7.1312,-7.1312,-7.1312,-7.1312,-7.1312,-7.1312,-7.1312,-7.0872,-7.0297,-7.0026,-6.9586,-6.8436,-6.7354,-6.7286,-6.7218,-6.7557,-6.7455,-6.7218,-6.7117,-6.7455,-6.776,-6.8132,-6.847,-6.8639,-6.8977,-6.9417,-6.8842,-6.7996,-6.7489,-6.7049,-6.6914,-6.6812,-6.6812,-6.6812,-6.1873,-6.2381,-6.2415,-6.2415,-6.2415,-6.2415,-6.2415,-6.2415,-6.2415,-6.2415,-6.2415,-6.2415,-6.2415,-6.2415,-6.2415,-6.2415,-6.2415,-6.2415,-6.2415,-6.2415,-6.2415,-6.2415,-6.2415,-6.2415,-6.2415,-6.2415,-6.2415,-6.2415,-6.2415,-6.2415,-6.2415,-6.2448,-6.3091,-6.3835,-6.458,-6.5256,-6.6034,-6.6711,-6.6812,-6.6812,-6.6812,-6.6812,-6.6948,-6.7286,-6.7827,-6.8571,-6.9248,-6.9654,-7.0026,-6.9857,-6.9958,-6.9722,-6.9451,-6.9688,-7.0026,-7.0398,-7.0364,-7.0195,-7.0094,-7.0161,-6.9992,-6.9823,-6.9823,-7.0331,-7.0973,-7.0737,-7.0601,-7.1176,-7.121,-7.1244,-7.1312,-7.1312,-7.1312,-7.1312,-7.1312,-7.1312,-7.1312,-7.1312,-7.1312,-7.1312,-7.1312,-7.1312,-7.1312,-7.1312,-7.1312,-7.1312,-7.1312,-7.1312,-7.0804,-7.0128,-6.9654,-6.9383,-6.847,-6.7354,-6.6948,-6.6981,-6.7286,-6.7387,-6.7151,-6.7083,-6.7354,-6.7861,-6.8335,-6.8707,-6.9045,-6.918,-6.9316,-6.8639,-6.7996,-6.7624,-6.7252,-6.6948,-6.6812,-6.6812,-6.6812,-6.2347,-6.2415,-6.2415,-6.2415,-6.2415,-6.2415,-6.2415,-6.2415,-6.2415,-6.2415,-6.2415,-6.2415,-6.2415,-6.2415,-6.2415,-6.2415,-6.2415,-6.2415,-6.2415,-6.2415,-6.2415,-6.2415,-6.2415,-6.2415,-6.2415,-6.2415,-6.2415,-6.2415,-6.2415,-6.2415,-6.2415,-6.2516,-6.3362,-6.3937,-6.4647,-6.5425,-6.6136,-6.6711,-6.6812,-6.6812,-6.6812,-6.688,-6.7117,-6.7793,-6.8538,-6.935,-7.006,-7.0567,-7.0737,-7.0364,-7.0635,-7.0635,-7.0297,-7.0567,-7.0906,-7.0973,-7.1041,-7.0939,-7.0906,-7.0872,-7.0737,-7.0364,-7.0297,-7.0635,-7.121,-7.1278,-7.1278,-7.1278,-7.1312,-7.1312,-7.1312,-7.1312,-7.1312,-7.1312,-7.1312,-7.1312,-7.1312,-7.1312,-7.1312,-7.1312,-7.1312,-7.1312,-7.1312,-7.1312,-7.1312,-7.1312,-7.1312,-7.1312,-7.1075,-7.0466,-6.9789,-6.9248,-6.8538,-6.7692,-6.6948,-6.7015,-6.7252,-6.7387,-6.732,-6.7151,-6.7151,-6.7726,-6.8605,-6.8808,-6.9113,-6.9147,-6.9113,-6.8538,-6.8098,-6.7793,-6.7455,-6.7015,-6.6812,-6.6812,-6.6812,-6.2415,-6.2415,-6.2415,-6.2415,-6.2415,-6.2415,-6.2415,-6.2415,-6.2415,-6.2415,-6.2415,-6.2415,-6.2415,-6.2415,-6.2415,-6.2415,-6.2415,-6.2415,-6.2415,-6.2415,-6.2415,-6.2415,-6.2415,-6.2415,-6.2415,-6.2415,-6.2415,-6.2415,-6.2415,-6.2448,-6.2787,-6.3159,-6.3802,-6.4208,-6.485,-6.5696,-6.644,-6.6677,-6.6812,-6.6812,-6.6812,-6.6846,-6.7151,-6.7895,-6.8673,-6.9451,-7.0161,-7.0906,-7.1007,-7.1007,-7.1176,-7.1041,-7.0872,-7.1176,-7.1278,-7.1312,-7.1312,-7.1312,-7.1401,-7.1312,-7.1142,-7.1041,-7.0906,-7.1007,-7.1312,-7.1312,-7.1312,-7.1312,-7.1312,-7.1312,-7.1312,-7.1312,-7.1312,-7.1312,-7.1312,-7.1312,-7.1312,-7.1312,-7.1312,-7.1312,-7.1312,-7.1312,-7.1312,-7.1312,-7.1312,-7.1312,-7.1312,-7.1278,-7.1075,-7.0669,-6.9925,-6.9282,-6.8571,-6.7793,-6.7049,-6.7083,-6.7252,-6.732,-6.7387,-6.732,-6.732,-6.8233,-6.8944,-6.9079,-6.8944,-6.8842,-6.8673,-6.8436,-6.803,-6.7489,-6.7184,-6.6914,-6.6812,-6.6812,-6.6812,-6.2415,-6.2415,-6.2415,-6.2415,-6.2415,-6.2415,-6.2415,-6.2415,-6.2415,-6.2415,-6.2415,-6.2415,-6.2415,-6.2415,-6.2415,-6.2415,-6.2415,-6.2415,-6.2415,-6.2415,-6.2415,-6.2415,-6.2415,-6.2415,-6.2415,-6.2415,-6.2415,-6.2415,-6.2415,-6.2618,-6.299,-6.3599,-6.441,-6.485,-6.5256,-6.6068,-6.6812,-6.6812,-6.6812,-6.6812,-6.6812,-6.6846,-6.7151,-6.7895,-6.8673,-6.9451,-7.0161,-7.0872,-7.1244,-7.1244,-7.1278,-7.1312,-7.1278,-7.1312,-7.1312,-7.1312,-7.1312,-7.1367,-7.16,-7.1457,-7.1312,-7.121,-7.1244,-7.1244,-7.1312,-7.1312,-7.1312,-7.1312,-7.1312,-7.1312,-7.1312,-7.1312,-7.1312,-7.1312,-7.1312,-7.1312,-7.1312,-7.1312,-7.1312,-7.1312,-7.1312,-7.1312,-7.1312,-7.1312,-7.1312,-7.1312,-7.1312,-7.1278,-7.1176,-7.0669,-6.9925,-6.9316,-6.8707,-6.7861,-6.7083,-6.7117,-6.7117,-6.7184,-6.7286,-6.7455,-6.7726,-6.8571,-6.8808,-6.8571,-6.8436,-6.8402,-6.8166,-6.7895,-6.7455,-6.6981,-6.6846,-6.6812,-6.6812,-6.6812,-6.6812,-6.2415,-6.2415,-6.2415,-6.2415,-6.2415,-6.2415,-6.2415,-6.2415,-6.2415,-6.2415,-6.2415,-6.2415,-6.2415,-6.2415,-6.2415,-6.2415,-6.2415,-6.2415,-6.2415,-6.2415,-6.2415,-6.2415,-6.2415,-6.2415,-6.2415,-6.2415,-6.2415,-6.2415,-6.2415,-6.2717,-6.3121,-6.4005,-6.4952,-6.5662,-6.5764,-6.6406,-6.6812,-6.6812,-6.6812,-6.6812,-6.6812,-6.6812,-6.7218,-6.7895,-6.8504,-6.9214,-7.0161,-7.0737,-7.1109,-7.1278,-7.1312,-7.1312,-7.1312,-7.1312,-7.1401,-7.1457,-7.1457,-7.183,-7.2498,-7.1776,-7.1457,-7.1312,-7.1312,-7.1312,-7.1312,-7.1312,-7.1312,-7.1312,-7.1312,-7.1312,-7.1312,-7.1312,-7.1312,-7.1312,-7.1312,-7.1312,-7.1312,-7.1312,-7.1312,-7.1312,-7.1312,-7.1312,-7.1312,-7.1312,-7.1312,-7.1312,-7.1312,-7.1278,-7.121,-7.0872,-7.0195,-6.9654,-6.9113,-6.8267,-6.7557,-6.7117,-6.6981,-6.7049,-6.7218,-6.7489,-6.7861,-6.847,-6.847,-6.8132,-6.7996,-6.803,-6.7658,-6.7286,-6.6779,-6.6373,-6.6745,-6.6812,-6.6812,-6.6812,-6.6812,-6.2415,-6.2415,-6.2415,-6.2415,-6.2415,-6.2415,-6.2415,-6.2415,-6.2415,-6.2415,-6.2415,-6.2415,-6.2415,-6.2415,-6.2415,-6.2415,-6.2415,-6.2415,-6.2415,-6.2415,-6.2415,-6.2415,-6.2415,-6.2415,-6.2415,-6.2415,-6.2415,-6.2415,-6.2415,-6.2595,-6.328,-6.4166,-6.5478,-6.6339,-6.6474,-6.6745,-6.6812,-6.6812,-6.6812,-6.6812,-6.6812,-6.6846,-6.7151,-6.7861,-6.8233,-6.8944,-7.006,-7.0567,-7.0838,-7.121,-7.1312,-7.1312,-7.1312,-7.1312,-7.1688,-7.2056,-7.2279,-7.2448,-7.2749,-7.2364,-7.2004,-7.16,-7.1312,-7.1312,-7.1312,-7.1312,-7.1312,-7.1312,-7.1312,-7.1312,-7.1312,-7.1312,-7.1312,-7.1312,-7.1312,-7.1312,-7.1312,-7.1312,-7.1312,-7.1312,-7.1312,-7.1312,-7.1312,-7.1312,-7.1312,-7.1312,-7.1312,-7.1312,-7.1278,-7.1176,-7.0737,-7.0229,-6.9654,-6.8774,-6.8064,-6.7354,-6.6948,-6.6914,-6.7286,-6.7726,-6.8132,-6.8301,-6.8233,-6.7929,-6.7793,-6.7624,-6.6948,-6.6373,-6.6,-6.5831,-6.617,-6.6643,-6.6812,-6.6812,-6.6812,-6.2415,-6.2415,-6.2415,-6.2415,-6.2415,-6.2415,-6.2415,-6.2415,-6.2415,-6.2415,-6.2415,-6.2415,-6.2415,-6.2415,-6.2415,-6.2415,-6.2415,-6.2415,-6.2415,-6.2415,-6.2415,-6.2415,-6.2415,-6.2415,-6.2415,-6.2415,-6.2415,-6.2415,-6.237,-6.2149,-6.306,-6.4604,-6.6104,-6.6559,-6.6779,-6.6812,-6.6812,-6.6812,-6.6812,-6.6812,-6.6812,-6.6914,-6.7184,-6.7692,-6.8132,-6.8605,-6.9722,-7.0297,-7.05,-7.1041,-7.1312,-7.1312,-7.1312,-7.1688,-7.2056,-7.2666,-7.3536,-7.3412,-7.3044,-7.3252,-7.2666,-7.1457,-7.1312,-7.1312,-7.1312,-7.1312,-7.1312,-7.1312,-7.1312,-7.1312,-7.1312,-7.1312,-7.1312,-7.1312,-7.1312,-7.1312,-7.1312,-7.1312,-7.1312,-7.1312,-7.1312,-7.1312,-7.1312,-7.1312,-7.1312,-7.1312,-7.1312,-7.1312,-7.121,-7.0939,-7.0737,-7.0229,-6.9383,-6.8267,-6.7658,-6.7387,-6.7015,-6.6846,-6.7184,-6.759,-6.7557,-6.759,-6.7658,-6.7692,-6.7387,-6.6914,-6.6034,-6.5425,-6.5155,-6.5189,-6.5493,-6.6034,-6.6643,-6.6779,-6.6711,-6.2415,-6.2415,-6.2415,-6.2415,-6.2415,-6.2415,-6.2415,-6.2415,-6.2415,-6.2415,-6.2415,-6.2415,-6.2415,-6.2415,-6.2415,-6.2415,-6.2415,-6.2415,-6.2415,-6.2415,-6.2415,-6.2415,-6.2415,-6.2415,-6.2415,-6.2415,-6.2415,-6.2415,-6.2437,-6.2816,-6.3723,-6.4851,-6.6186,-6.6643,-6.6812,-6.6812,-6.6812,-6.6812,-6.6812,-6.6812,-6.6812,-6.6846,-6.7117,-6.7489,-6.7793,-6.8436,-6.9316,-6.9925,-7.0432,-7.0906,-7.1278,-7.1312,-7.16,-7.2279,-7.2631,-7.3377,-7.483,-7.4234,-7.3492,-7.3772,-7.288,-7.16,-7.1312,-7.1312,-7.1312,-7.1312,-7.1312,-7.1312,-7.1312,-7.1312,-7.1312,-7.1312,-7.1312,-7.1312,-7.1312,-7.1312,-7.1312,-7.1312,-7.1312,-7.1312,-7.1312,-7.1312,-7.1312,-7.1312,-7.1312,-7.1312,-7.1312,-7.1312,-7.1075,-7.0229,-6.9992,-6.9688,-6.8741,-6.7455,-6.7049,-6.7184,-6.7015,-6.6812,-6.6812,-6.7117,-6.7015,-6.7015,-6.7151,-6.7151,-6.6846,-6.6203,-6.5189,-6.4647,-6.4444,-6.458,-6.4749,-6.5459,-6.6102,-6.644,-6.6508,-6.2415,-6.2415,-6.2415,-6.2415,-6.2415,-6.2415,-6.2415,-6.2415,-6.2415,-6.2415,-6.2415,-6.2415,-6.2415,-6.2415,-6.2415,-6.2415,-6.2415,-6.2415,-6.2415,-6.2415,-6.2415,-6.2415,-6.2415,-6.2415,-6.2415,-6.2415,-6.2415,-6.2415,-6.2685,-6.3232,-6.4095,-6.5028,-6.61,-6.6542,-6.6745,-6.6812,-6.6812,-6.6812,-6.6812,-6.6812,-6.6812,-6.6812,-6.7049,-6.7151,-6.7218,-6.7895,-6.8538,-6.9214,-6.9755,-7.0432,-7.1041,-7.1278,-7.1401,-7.2279,-7.309,-7.483,-7.544,-7.5192,-7.4082,-7.3492,-7.2666,-7.1688,-7.1312,-7.1312,-7.1312,-7.1312,-7.1312,-7.1312,-7.1312,-7.1312,-7.1312,-7.1312,-7.1312,-7.1312,-7.1312,-7.1312,-7.1312,-7.1312,-7.1312,-7.1312,-7.1312,-7.1312,-7.1312,-7.1312,-7.1312,-7.1312,-7.1278,-7.1278,-7.0906,-7.006,-6.9586,-6.9316,-6.8402,-6.7252,-6.7151,-6.7286,-6.7015,-6.6812,-6.6812,-6.6812,-6.688,-6.688,-6.6846,-6.6576,-6.617,-6.529,-6.4208,-6.3835,-6.3599,-6.3734,-6.3971,-6.4749,-6.5459,-6.5764,-6.6203,-6.2415,-6.2415,-6.2415,-6.2415,-6.2415,-6.2415,-6.2415,-6.2415,-6.2415,-6.2415,-6.2415,-6.2415,-6.2415,-6.2415,-6.2415,-6.2415,-6.2415,-6.2415,-6.2415,-6.2415,-6.2415,-6.2415,-6.2415,-6.2415,-6.2415,-6.2415,-6.2415,-6.2415,-6.2753,-6.3417,-6.4204,-6.4057,-6.5478,-6.6171,-6.6406,-6.6609,-6.6812,-6.6812,-6.6812,-6.6812,-6.6812,-6.6812,-6.6812,-6.6896,-6.6896,-6.7218,-6.7793,-6.847,-6.9113,-6.9992,-7.0737,-7.1041,-7.1464,-7.2582,-7.3928,-7.544,-7.5718,-7.4903,-7.3772,-7.309,-7.2279,-7.16,-7.1312,-7.1312,-7.1312,-7.1312,-7.1312,-7.1312,-7.1312,-7.1312,-7.1312,-7.1312,-7.1312,-7.1312,-7.1312,-7.1312,-7.1312,-7.1312,-7.1312,-7.1312,-7.1312,-7.1312,-7.1312,-7.1312,-7.1312,-7.1312,-7.1176,-7.1041,-7.0635,-6.9891,-6.9519,-6.9282,-6.8301,-6.7218,-6.7252,-6.7184,-6.6948,-6.6779,-6.6812,-6.6812,-6.6812,-6.6711,-6.6609,-6.6068,-6.5425,-6.458,-6.3802,-6.3057,-6.2753,-6.3024,-6.3328,-6.3835,-6.4478,-6.4952,-6.5459,-6.2415,-6.2415,-6.2415,-6.2415,-6.2415,-6.2415,-6.2415,-6.2415,-6.2415,-6.2415,-6.2415,-6.2415,-6.2415,-6.2415,-6.2415,-6.2415,-6.2415,-6.2415,-6.2415,-6.2415,-6.2415,-6.2415,-6.2415,-6.2415,-6.2415,-6.2415,-6.2448,-6.2516,-6.2719,-6.3316,-6.3583,-6.3,-6.4774,-6.5933,-6.6203,-6.6576,-6.6862,-6.7161,-6.7161,-6.7161,-6.7112,-6.6946,-6.6946,-6.7195,-6.718,-6.7335,-6.776,-6.815,-6.8538,-6.9485,-7.0161,-7.0432,-7.1916,-7.309,-7.461,-7.5048,-7.5334,-7.4385,-7.3332,-7.2666,-7.2142,-7.16,-7.1312,-7.1312,-7.1312,-7.1312,-7.1312,-7.1312,-7.1312,-7.1312,-7.1312,-7.1312,-7.1312,-7.1312,-7.1312,-7.1312,-7.1312,-7.1312,-7.1312,-7.1312,-7.1312,-7.1278,-7.1007,-7.0973,-7.0872,-7.1075,-7.1007,-7.077,-7.0161,-6.9485,-6.918,-6.8977,-6.803,-6.7117,-6.7015,-6.6948,-6.6812,-6.6711,-6.6711,-6.6576,-6.6406,-6.6373,-6.6373,-6.5527,-6.458,-6.4241,-6.3599,-6.3057,-6.2753,-6.2854,-6.3057,-6.3024,-6.3463,-6.4208,-6.4749,-6.2415,-6.2415,-6.2415,-6.2415,-6.2415,-6.2415,-6.2415,-6.2415,-6.2415,-6.2415,-6.2381,-6.2381,-6.2415,-6.2415,-6.2313,-6.2313,-6.2381,-6.2415,-6.2415,-6.2415,-6.2415,-6.2415,-6.2415,-6.2415,-6.2415,-6.2415,-6.2482,-6.2696,-6.3148,-6.3543,-6.414,-6.4907,-6.5875,-6.6126,-6.6602,-6.701,-6.7291,-6.7787,-6.7866,-6.7945,-6.8024,-6.8068,-6.8068,-6.8378,-6.8524,-6.7856,-6.8062,-6.7962,-6.8099,-6.847,-6.9113,-7.053,-7.2626,-7.3687,-7.4722,-7.5334,-7.4425,-7.3457,-7.2797,-7.2142,-7.1688,-7.1457,-7.1312,-7.1312,-7.1312,-7.1312,-7.1312,-7.1312,-7.1312,-7.1312,-7.1312,-7.1312,-7.1312,-7.1312,-7.1312,-7.1312,-7.1312,-7.1312,-7.1312,-7.1312,-7.1312,-7.1075,-7.077,-7.0567,-7.05,-7.0432,-7.0398,-7.0128,-6.9417,-6.8774,-6.8436,-6.8132,-6.7557,-6.6914,-6.6846,-6.6779,-6.6711,-6.644,-6.6305,-6.617,-6.6034,-6.6,-6.5933,-6.4681,-6.3768,-6.3802,-6.3835,-6.3565,-6.3294,-6.326,-6.3226,-6.3396,-6.3362,-6.3903,-6.4275,-6.2415,-6.2415,-6.2415,-6.2415,-6.2415,-6.2415,-6.2415,-6.2415,-6.2415,-6.2415,-6.2313,-6.211,-6.2076,-6.2212,-6.2076,-6.2212,-6.2313,-6.2381,-6.2415,-6.2415,-6.2415,-6.2415,-6.2415,-6.2415,-6.2415,-6.2415,-6.2493,-6.2775,-6.3538,-6.411,-6.4804,-6.5868,-6.6401,-6.7092,-6.761,-6.7895,-6.8258,-6.8798,-6.8873,-6.9095,-6.9241,-6.9241,-6.9095,-6.9314,-6.8873,-6.8343,-6.8014,-6.7851,-6.7692,-6.8388,-6.9493,-7.0663,-7.2434,-7.354,-7.4199,-7.4082,-7.3457,-7.2582,-7.2142,-7.1688,-7.1312,-7.1312,-7.1312,-7.1312,-7.1312,-7.1312,-7.1312,-7.1312,-7.1312,-7.1312,-7.1312,-7.1312,-7.1312,-7.1312,-7.1312,-7.1312,-7.1312,-7.1312,-7.1312,-7.1312,-7.1109,-7.0635,-7.0297,-6.9891,-6.9823,-6.9722,-6.9688,-6.935,-6.8673,-6.8233,-6.7861,-6.7523,-6.7049,-6.6846,-6.6846,-6.6779,-6.6745,-6.6406,-6.5899,-6.5899,-6.5797,-6.573,-6.5358,-6.4343,-6.3835,-6.4106,-6.4072,-6.3869,-6.3971,-6.4005,-6.3937,-6.3903,-6.3802,-6.3632,-6.3835,-6.2581,-6.2615,-6.2459,-6.2415,-6.2415,-6.2415,-6.2415,-6.2415,-6.2415,-6.2415,-6.2279,-6.1637,-6.1772,-6.1941,-6.1704,-6.1975,-6.211,-6.2076,-6.2178,-6.2381,-6.2415,-6.2415,-6.2415,-6.2415,-6.2537,-6.2779,-6.2973,-6.3388,-6.4002,-6.4491,-6.5267,-6.6454,-6.7475,-6.8469,-6.8892,-6.9247,-6.9601,-6.9813,-6.9953,-7.0468,-7.0468,-7.04,-7.0196,-6.9672,-6.9021,-6.8496,-6.8146,-6.7638,-6.7387,-6.8352,-6.9776,-7.0903,-7.1931,-7.2976,-7.3273,-7.3252,-7.2714,-7.2056,-7.16,-7.1367,-7.1312,-7.1312,-7.1312,-7.1278,-7.1244,-7.1142,-7.1142,-7.1109,-7.1109,-7.1109,-7.1109,-7.0973,-7.0973,-7.1109,-7.1109,-7.121,-7.121,-7.1176,-7.1176,-7.1176,-7.0804,-7.0297,-6.9789,-6.9383,-6.9113,-6.9011,-6.8774,-6.8368,-6.803,-6.7726,-6.7421,-6.7218,-6.6948,-6.6812,-6.6812,-6.6542,-6.6406,-6.5865,-6.5392,-6.5527,-6.5493,-6.4986,-6.4613,-6.4275,-6.4005,-6.4072,-6.4275,-6.4208,-6.4377,-6.441,-6.4106,-6.3802,-6.3768,-6.3599,-6.3497,-6.3462,-6.3388,-6.2736,-6.2415,-6.2415,-6.2415,-6.2415,-6.2415,-6.2415,-6.2415,-6.2212,-6.1738,-6.1704,-6.2347,-6.1603,-6.1704,-6.2212,-6.2009,-6.2076,-6.2313,-6.2381,-6.2415,-6.2615,-6.2855,-6.2897,-6.3388,-6.3971,-6.4564,-6.4838,-6.5082,-6.582,-6.7256,-6.733,-6.8359,-6.9565,-6.9919,-7.0264,-7.0601,-7.0865,-7.1223,-7.1511,-7.1511,-7.1511,-7.0966,-7.0332,-6.9743,-6.8982,-6.7696,-6.7097,-6.769,-6.9241,-7.0419,-7.1273,-7.2128,-7.2684,-7.2582,-7.2142,-7.1776,-7.1401,-7.1176,-7.1142,-7.1109,-7.1075,-7.1007,-7.0838,-7.0534,-7.05,-7.0364,-7.0364,-7.0331,-7.0263,-6.9891,-6.9789,-7.0229,-7.0398,-7.0703,-7.0906,-7.0737,-7.0635,-7.0635,-7.05,-6.9891,-6.9248,-6.8808,-6.8335,-6.8199,-6.8064,-6.7692,-6.7354,-6.7151,-6.6981,-6.6812,-6.6677,-6.6812,-6.6779,-6.6136,-6.588,-6.5256,-6.4783,-6.4681,-6.441,-6.3869,-6.3531,-6.3632,-6.37,-6.3734,-6.3971,-6.441,-6.4275,-6.4174,-6.3835,-6.3599,-6.3565,-6.3531,-6.3396]}]]